<?xml version="1.0" encoding="UTF-8" standalone="no" ?>
<gpx xmlns="http://www.topografix.com/GPX/1/1" xmlns:xsi="http://www.w3.org/2001/XMLSchema-instance" xsi:schemaLocation="http://www.topografix.com/GPX/1/1 http://www.topografix.com/GPX/1/1/gpx.xsd" version="1.1" creator="VisuGPX - https://www.visugpx.com">
  <metadata>
    <name>Ruols-gorges de l'Aveyron</name>
    <desc><![CDATA[Jolie rando ]]></desc>
  </metadata>
  <trk>
    <name><![CDATA[2024-12-28_133004--ruols-les-gorges-de-laveyron]]></name>
    <extensions>
      <line xmlns="http://www.topografix.com/GPX/gpx_style/0/2">
        <width>3</width>
      </line>
    </extensions>
    <trkseg>
      <trkpt lat="44.32371" lon="2.50991">
        <ele>643.1</ele>
        <time>2024-12-28T12:30:04.000Z</time>
      </trkpt>
      <trkpt lat="44.32371" lon="2.50991">
        <ele>643.1</ele>
        <time>2024-12-28T12:30:05.000Z</time>
      </trkpt>
      <trkpt lat="44.32375" lon="2.5099">
        <ele>643.8</ele>
        <time>2024-12-28T12:30:28.000Z</time>
      </trkpt>
      <trkpt lat="44.32375" lon="2.5099">
        <ele>643.8</ele>
        <time>2024-12-28T12:30:28.000Z</time>
      </trkpt>
      <trkpt lat="44.32379" lon="2.50986">
        <ele>643.9</ele>
        <time>2024-12-28T12:30:34.000Z</time>
      </trkpt>
      <trkpt lat="44.32384" lon="2.50984">
        <ele>643.9</ele>
        <time>2024-12-28T12:30:39.000Z</time>
      </trkpt>
      <trkpt lat="44.32389" lon="2.50981">
        <ele>644.1</ele>
        <time>2024-12-28T12:30:45.000Z</time>
      </trkpt>
      <trkpt lat="44.32394" lon="2.5098">
        <ele>644.4</ele>
        <time>2024-12-28T12:30:50.000Z</time>
      </trkpt>
      <trkpt lat="44.32398" lon="2.50979">
        <ele>644.7</ele>
        <time>2024-12-28T12:30:54.000Z</time>
      </trkpt>
      <trkpt lat="44.32403" lon="2.50978">
        <ele>645.1</ele>
        <time>2024-12-28T12:30:58.000Z</time>
      </trkpt>
      <trkpt lat="44.32408" lon="2.50978">
        <ele>645.4</ele>
        <time>2024-12-28T12:31:03.000Z</time>
      </trkpt>
      <trkpt lat="44.32412" lon="2.50978">
        <ele>645.3</ele>
        <time>2024-12-28T12:31:08.000Z</time>
      </trkpt>
      <trkpt lat="44.32417" lon="2.50977">
        <ele>645.2</ele>
        <time>2024-12-28T12:31:14.000Z</time>
      </trkpt>
      <trkpt lat="44.32422" lon="2.50977">
        <ele>645</ele>
        <time>2024-12-28T12:31:20.000Z</time>
      </trkpt>
      <trkpt lat="44.32427" lon="2.50975">
        <ele>644.7</ele>
        <time>2024-12-28T12:31:25.000Z</time>
      </trkpt>
      <trkpt lat="44.32432" lon="2.50974">
        <ele>644.7</ele>
        <time>2024-12-28T12:31:30.000Z</time>
      </trkpt>
      <trkpt lat="44.32437" lon="2.5097">
        <ele>644.6</ele>
        <time>2024-12-28T12:31:36.000Z</time>
      </trkpt>
      <trkpt lat="44.32442" lon="2.50967">
        <ele>644.5</ele>
        <time>2024-12-28T12:31:41.000Z</time>
      </trkpt>
      <trkpt lat="44.32447" lon="2.50963">
        <ele>644.4</ele>
        <time>2024-12-28T12:31:46.000Z</time>
      </trkpt>
      <trkpt lat="44.32451" lon="2.5096">
        <ele>644.4</ele>
        <time>2024-12-28T12:31:51.000Z</time>
      </trkpt>
      <trkpt lat="44.32456" lon="2.50957">
        <ele>644.3</ele>
        <time>2024-12-28T12:31:55.000Z</time>
      </trkpt>
      <trkpt lat="44.3246" lon="2.50954">
        <ele>644.2</ele>
        <time>2024-12-28T12:31:59.000Z</time>
      </trkpt>
      <trkpt lat="44.32464" lon="2.50951">
        <ele>644</ele>
        <time>2024-12-28T12:32:03.000Z</time>
      </trkpt>
      <trkpt lat="44.32469" lon="2.50948">
        <ele>643.6</ele>
        <time>2024-12-28T12:32:08.000Z</time>
      </trkpt>
      <trkpt lat="44.32474" lon="2.50946">
        <ele>643</ele>
        <time>2024-12-28T12:32:13.000Z</time>
      </trkpt>
      <trkpt lat="44.32479" lon="2.50944">
        <ele>642.5</ele>
        <time>2024-12-28T12:32:17.000Z</time>
      </trkpt>
      <trkpt lat="44.32484" lon="2.50943">
        <ele>642.2</ele>
        <time>2024-12-28T12:32:20.000Z</time>
      </trkpt>
      <trkpt lat="44.32489" lon="2.50941">
        <ele>641.8</ele>
        <time>2024-12-28T12:32:24.000Z</time>
      </trkpt>
      <trkpt lat="44.32493" lon="2.50939">
        <ele>641.7</ele>
        <time>2024-12-28T12:32:30.100Z</time>
      </trkpt>
      <trkpt lat="44.32492" lon="2.50941">
        <ele>641.5</ele>
        <time>2024-12-28T12:32:40.000Z</time>
      </trkpt>
      <trkpt lat="44.32492" lon="2.50941">
        <ele>641.5</ele>
        <time>2024-12-28T12:32:41.000Z</time>
      </trkpt>
      <trkpt lat="44.32491" lon="2.50942">
        <ele>641.5</ele>
        <time>2024-12-28T12:32:42.000Z</time>
      </trkpt>
      <trkpt lat="44.3249" lon="2.50948">
        <ele>641.5</ele>
        <time>2024-12-28T12:32:55.000Z</time>
      </trkpt>
      <trkpt lat="44.32491" lon="2.50955">
        <ele>641.5</ele>
        <time>2024-12-28T12:32:59.000Z</time>
      </trkpt>
      <trkpt lat="44.32493" lon="2.50961">
        <ele>641.5</ele>
        <time>2024-12-28T12:33:03.000Z</time>
      </trkpt>
      <trkpt lat="44.32497" lon="2.50967">
        <ele>641.4</ele>
        <time>2024-12-28T12:33:07.000Z</time>
      </trkpt>
      <trkpt lat="44.325" lon="2.50971">
        <ele>641.3</ele>
        <time>2024-12-28T12:33:11.000Z</time>
      </trkpt>
      <trkpt lat="44.32504" lon="2.50975">
        <ele>641.2</ele>
        <time>2024-12-28T12:33:15.000Z</time>
      </trkpt>
      <trkpt lat="44.32508" lon="2.50979">
        <ele>641</ele>
        <time>2024-12-28T12:33:20.000Z</time>
      </trkpt>
      <trkpt lat="44.32512" lon="2.50983">
        <ele>640.8</ele>
        <time>2024-12-28T12:33:24.000Z</time>
      </trkpt>
      <trkpt lat="44.32516" lon="2.50987">
        <ele>640.5</ele>
        <time>2024-12-28T12:33:28.000Z</time>
      </trkpt>
      <trkpt lat="44.3252" lon="2.50991">
        <ele>640.5</ele>
        <time>2024-12-28T12:33:32.000Z</time>
      </trkpt>
      <trkpt lat="44.32524" lon="2.50995">
        <ele>640.3</ele>
        <time>2024-12-28T12:33:37.000Z</time>
      </trkpt>
      <trkpt lat="44.32528" lon="2.50998">
        <ele>640.1</ele>
        <time>2024-12-28T12:33:41.000Z</time>
      </trkpt>
      <trkpt lat="44.32532" lon="2.51003">
        <ele>639.7</ele>
        <time>2024-12-28T12:33:46.000Z</time>
      </trkpt>
      <trkpt lat="44.32537" lon="2.51006">
        <ele>639.2</ele>
        <time>2024-12-28T12:33:51.000Z</time>
      </trkpt>
      <trkpt lat="44.32541" lon="2.51011">
        <ele>638.5</ele>
        <time>2024-12-28T12:33:56.000Z</time>
      </trkpt>
      <trkpt lat="44.32546" lon="2.51014">
        <ele>637.8</ele>
        <time>2024-12-28T12:34:01.000Z</time>
      </trkpt>
      <trkpt lat="44.3255" lon="2.51018">
        <ele>637.3</ele>
        <time>2024-12-28T12:34:06.000Z</time>
      </trkpt>
      <trkpt lat="44.32555" lon="2.5102">
        <ele>637.1</ele>
        <time>2024-12-28T12:34:10.000Z</time>
      </trkpt>
      <trkpt lat="44.32559" lon="2.51023">
        <ele>636.8</ele>
        <time>2024-12-28T12:34:14.000Z</time>
      </trkpt>
      <trkpt lat="44.32564" lon="2.51026">
        <ele>636.5</ele>
        <time>2024-12-28T12:34:18.000Z</time>
      </trkpt>
      <trkpt lat="44.32568" lon="2.51028">
        <ele>636.2</ele>
        <time>2024-12-28T12:34:22.000Z</time>
      </trkpt>
      <trkpt lat="44.32573" lon="2.51032">
        <ele>635.5</ele>
        <time>2024-12-28T12:34:27.000Z</time>
      </trkpt>
      <trkpt lat="44.32577" lon="2.51034">
        <ele>634.7</ele>
        <time>2024-12-28T12:34:31.000Z</time>
      </trkpt>
      <trkpt lat="44.32581" lon="2.51037">
        <ele>634.2</ele>
        <time>2024-12-28T12:34:35.000Z</time>
      </trkpt>
      <trkpt lat="44.32586" lon="2.5104">
        <ele>633.5</ele>
        <time>2024-12-28T12:34:40.000Z</time>
      </trkpt>
      <trkpt lat="44.3259" lon="2.51043">
        <ele>632.6</ele>
        <time>2024-12-28T12:34:44.000Z</time>
      </trkpt>
      <trkpt lat="44.32595" lon="2.51047">
        <ele>631.4</ele>
        <time>2024-12-28T12:34:49.000Z</time>
      </trkpt>
      <trkpt lat="44.32599" lon="2.51051">
        <ele>630.2</ele>
        <time>2024-12-28T12:34:54.000Z</time>
      </trkpt>
      <trkpt lat="44.32603" lon="2.51055">
        <ele>628.7</ele>
        <time>2024-12-28T12:35:01.000Z</time>
      </trkpt>
      <trkpt lat="44.32608" lon="2.51057">
        <ele>628.3</ele>
        <time>2024-12-28T12:35:06.000Z</time>
      </trkpt>
      <trkpt lat="44.3261" lon="2.51056">
        <ele>627.8</ele>
        <time>2024-12-28T12:35:17.100Z</time>
      </trkpt>
      <trkpt lat="44.32611" lon="2.51057">
        <ele>627.4</ele>
        <time>2024-12-28T12:35:23.000Z</time>
      </trkpt>
      <trkpt lat="44.32612" lon="2.51058">
        <ele>627.3</ele>
        <time>2024-12-28T12:35:24.000Z</time>
      </trkpt>
      <trkpt lat="44.32615" lon="2.51062">
        <ele>626.8</ele>
        <time>2024-12-28T12:35:30.000Z</time>
      </trkpt>
      <trkpt lat="44.32617" lon="2.51068">
        <ele>626.5</ele>
        <time>2024-12-28T12:35:35.000Z</time>
      </trkpt>
      <trkpt lat="44.32618" lon="2.51075">
        <ele>626.2</ele>
        <time>2024-12-28T12:35:40.000Z</time>
      </trkpt>
      <trkpt lat="44.3262" lon="2.51081">
        <ele>626</ele>
        <time>2024-12-28T12:35:44.000Z</time>
      </trkpt>
      <trkpt lat="44.32622" lon="2.51088">
        <ele>625.7</ele>
        <time>2024-12-28T12:35:49.000Z</time>
      </trkpt>
      <trkpt lat="44.32623" lon="2.51094">
        <ele>625.5</ele>
        <time>2024-12-28T12:35:53.000Z</time>
      </trkpt>
      <trkpt lat="44.32625" lon="2.51099">
        <ele>625.2</ele>
        <time>2024-12-28T12:35:58.000Z</time>
      </trkpt>
      <trkpt lat="44.32627" lon="2.51107">
        <ele>624.8</ele>
        <time>2024-12-28T12:36:06.000Z</time>
      </trkpt>
      <trkpt lat="44.32629" lon="2.51114">
        <ele>624.6</ele>
        <time>2024-12-28T12:36:10.000Z</time>
      </trkpt>
      <trkpt lat="44.32632" lon="2.5112">
        <ele>624.3</ele>
        <time>2024-12-28T12:36:14.000Z</time>
      </trkpt>
      <trkpt lat="44.32634" lon="2.51126">
        <ele>623.9</ele>
        <time>2024-12-28T12:36:18.000Z</time>
      </trkpt>
      <trkpt lat="44.32636" lon="2.51133">
        <ele>623.5</ele>
        <time>2024-12-28T12:36:22.000Z</time>
      </trkpt>
      <trkpt lat="44.32638" lon="2.51139">
        <ele>623.2</ele>
        <time>2024-12-28T12:36:25.000Z</time>
      </trkpt>
      <trkpt lat="44.3264" lon="2.51147">
        <ele>622.9</ele>
        <time>2024-12-28T12:36:29.000Z</time>
      </trkpt>
      <trkpt lat="44.32641" lon="2.51154">
        <ele>622.6</ele>
        <time>2024-12-28T12:36:33.000Z</time>
      </trkpt>
      <trkpt lat="44.32642" lon="2.51161">
        <ele>622.6</ele>
        <time>2024-12-28T12:36:37.000Z</time>
      </trkpt>
      <trkpt lat="44.32643" lon="2.51168">
        <ele>622.6</ele>
        <time>2024-12-28T12:36:41.000Z</time>
      </trkpt>
      <trkpt lat="44.32645" lon="2.51175">
        <ele>622.7</ele>
        <time>2024-12-28T12:36:45.000Z</time>
      </trkpt>
      <trkpt lat="44.32646" lon="2.51181">
        <ele>622.8</ele>
        <time>2024-12-28T12:36:49.000Z</time>
      </trkpt>
      <trkpt lat="44.32648" lon="2.51187">
        <ele>622.9</ele>
        <time>2024-12-28T12:36:53.000Z</time>
      </trkpt>
      <trkpt lat="44.3265" lon="2.51193">
        <ele>623</ele>
        <time>2024-12-28T12:36:57.000Z</time>
      </trkpt>
      <trkpt lat="44.32652" lon="2.51199">
        <ele>623.2</ele>
        <time>2024-12-28T12:37:01.000Z</time>
      </trkpt>
      <trkpt lat="44.32654" lon="2.51205">
        <ele>623.3</ele>
        <time>2024-12-28T12:37:05.000Z</time>
      </trkpt>
      <trkpt lat="44.32655" lon="2.51211">
        <ele>623.4</ele>
        <time>2024-12-28T12:37:09.000Z</time>
      </trkpt>
      <trkpt lat="44.32657" lon="2.51219">
        <ele>623.5</ele>
        <time>2024-12-28T12:37:14.000Z</time>
      </trkpt>
      <trkpt lat="44.32659" lon="2.51226">
        <ele>623.7</ele>
        <time>2024-12-28T12:37:18.000Z</time>
      </trkpt>
      <trkpt lat="44.3266" lon="2.51232">
        <ele>623.9</ele>
        <time>2024-12-28T12:37:22.000Z</time>
      </trkpt>
      <trkpt lat="44.32662" lon="2.5124">
        <ele>624.1</ele>
        <time>2024-12-28T12:37:27.000Z</time>
      </trkpt>
      <trkpt lat="44.32663" lon="2.51246">
        <ele>624.3</ele>
        <time>2024-12-28T12:37:31.000Z</time>
      </trkpt>
      <trkpt lat="44.32665" lon="2.51252">
        <ele>624.4</ele>
        <time>2024-12-28T12:37:35.000Z</time>
      </trkpt>
      <trkpt lat="44.32667" lon="2.51258">
        <ele>624.6</ele>
        <time>2024-12-28T12:37:39.000Z</time>
      </trkpt>
      <trkpt lat="44.3267" lon="2.51265">
        <ele>624.8</ele>
        <time>2024-12-28T12:37:43.000Z</time>
      </trkpt>
      <trkpt lat="44.32672" lon="2.51272">
        <ele>625.2</ele>
        <time>2024-12-28T12:37:47.000Z</time>
      </trkpt>
      <trkpt lat="44.32675" lon="2.51277">
        <ele>625.5</ele>
        <time>2024-12-28T12:37:52.000Z</time>
      </trkpt>
      <trkpt lat="44.32678" lon="2.51283">
        <ele>625.7</ele>
        <time>2024-12-28T12:37:56.000Z</time>
      </trkpt>
      <trkpt lat="44.3268" lon="2.51288">
        <ele>626</ele>
        <time>2024-12-28T12:38:00.000Z</time>
      </trkpt>
      <trkpt lat="44.32683" lon="2.51293">
        <ele>626.3</ele>
        <time>2024-12-28T12:38:04.000Z</time>
      </trkpt>
      <trkpt lat="44.32685" lon="2.51301">
        <ele>626.5</ele>
        <time>2024-12-28T12:38:08.000Z</time>
      </trkpt>
      <trkpt lat="44.32687" lon="2.51308">
        <ele>626.7</ele>
        <time>2024-12-28T12:38:12.000Z</time>
      </trkpt>
      <trkpt lat="44.3269" lon="2.51315">
        <ele>627.1</ele>
        <time>2024-12-28T12:38:16.000Z</time>
      </trkpt>
      <trkpt lat="44.32693" lon="2.5132">
        <ele>627.7</ele>
        <time>2024-12-28T12:38:20.000Z</time>
      </trkpt>
      <trkpt lat="44.32697" lon="2.51326">
        <ele>628.3</ele>
        <time>2024-12-28T12:38:24.000Z</time>
      </trkpt>
      <trkpt lat="44.327" lon="2.51332">
        <ele>629</ele>
        <time>2024-12-28T12:38:28.000Z</time>
      </trkpt>
      <trkpt lat="44.32704" lon="2.51338">
        <ele>629.7</ele>
        <time>2024-12-28T12:38:32.000Z</time>
      </trkpt>
      <trkpt lat="44.32707" lon="2.51342">
        <ele>630.2</ele>
        <time>2024-12-28T12:38:36.000Z</time>
      </trkpt>
      <trkpt lat="44.32711" lon="2.51346">
        <ele>630.5</ele>
        <time>2024-12-28T12:38:40.000Z</time>
      </trkpt>
      <trkpt lat="44.32716" lon="2.51349">
        <ele>630.7</ele>
        <time>2024-12-28T12:38:44.000Z</time>
      </trkpt>
      <trkpt lat="44.32721" lon="2.51352">
        <ele>630.9</ele>
        <time>2024-12-28T12:38:48.000Z</time>
      </trkpt>
      <trkpt lat="44.32726" lon="2.51353">
        <ele>631.1</ele>
        <time>2024-12-28T12:38:52.000Z</time>
      </trkpt>
      <trkpt lat="44.3273" lon="2.51352">
        <ele>631.2</ele>
        <time>2024-12-28T12:38:56.000Z</time>
      </trkpt>
      <trkpt lat="44.32734" lon="2.51349">
        <ele>631.1</ele>
        <time>2024-12-28T12:39:01.000Z</time>
      </trkpt>
      <trkpt lat="44.32741" lon="2.51349">
        <ele>631.1</ele>
        <time>2024-12-28T12:39:04.000Z</time>
      </trkpt>
      <trkpt lat="44.32746" lon="2.51348">
        <ele>631.1</ele>
        <time>2024-12-28T12:39:08.000Z</time>
      </trkpt>
      <trkpt lat="44.32751" lon="2.51348">
        <ele>631</ele>
        <time>2024-12-28T12:39:12.000Z</time>
      </trkpt>
      <trkpt lat="44.32756" lon="2.51346">
        <ele>630.9</ele>
        <time>2024-12-28T12:39:16.000Z</time>
      </trkpt>
      <trkpt lat="44.32761" lon="2.51345">
        <ele>630.6</ele>
        <time>2024-12-28T12:39:20.000Z</time>
      </trkpt>
      <trkpt lat="44.32766" lon="2.51345">
        <ele>630.3</ele>
        <time>2024-12-28T12:39:24.000Z</time>
      </trkpt>
      <trkpt lat="44.32771" lon="2.51345">
        <ele>630.1</ele>
        <time>2024-12-28T12:39:28.000Z</time>
      </trkpt>
      <trkpt lat="44.32776" lon="2.51345">
        <ele>630</ele>
        <time>2024-12-28T12:39:32.000Z</time>
      </trkpt>
      <trkpt lat="44.3278" lon="2.51347">
        <ele>630</ele>
        <time>2024-12-28T12:39:36.000Z</time>
      </trkpt>
      <trkpt lat="44.32785" lon="2.51348">
        <ele>630</ele>
        <time>2024-12-28T12:39:40.000Z</time>
      </trkpt>
      <trkpt lat="44.3279" lon="2.51349">
        <ele>630.1</ele>
        <time>2024-12-28T12:39:44.000Z</time>
      </trkpt>
      <trkpt lat="44.32795" lon="2.51351">
        <ele>630.1</ele>
        <time>2024-12-28T12:39:48.000Z</time>
      </trkpt>
      <trkpt lat="44.32801" lon="2.51351">
        <ele>630.2</ele>
        <time>2024-12-28T12:39:55.000Z</time>
      </trkpt>
      <trkpt lat="44.32806" lon="2.51354">
        <ele>630.2</ele>
        <time>2024-12-28T12:40:00.000Z</time>
      </trkpt>
      <trkpt lat="44.32807" lon="2.51355">
        <ele>630.2</ele>
        <time>2024-12-28T12:40:04.100Z</time>
      </trkpt>
      <trkpt lat="44.32808" lon="2.51356">
        <ele>630.2</ele>
        <time>2024-12-28T12:40:08.000Z</time>
      </trkpt>
      <trkpt lat="44.32809" lon="2.51356">
        <ele>630.2</ele>
        <time>2024-12-28T12:40:09.000Z</time>
      </trkpt>
      <trkpt lat="44.32813" lon="2.51359">
        <ele>630.2</ele>
        <time>2024-12-28T12:40:14.000Z</time>
      </trkpt>
      <trkpt lat="44.32817" lon="2.51361">
        <ele>630.2</ele>
        <time>2024-12-28T12:40:18.000Z</time>
      </trkpt>
      <trkpt lat="44.32822" lon="2.51365">
        <ele>630.3</ele>
        <time>2024-12-28T12:40:22.000Z</time>
      </trkpt>
      <trkpt lat="44.32827" lon="2.51368">
        <ele>630.3</ele>
        <time>2024-12-28T12:40:26.000Z</time>
      </trkpt>
      <trkpt lat="44.32832" lon="2.51371">
        <ele>630.3</ele>
        <time>2024-12-28T12:40:30.000Z</time>
      </trkpt>
      <trkpt lat="44.32836" lon="2.51374">
        <ele>630.4</ele>
        <time>2024-12-28T12:40:33.000Z</time>
      </trkpt>
      <trkpt lat="44.32841" lon="2.51377">
        <ele>630.6</ele>
        <time>2024-12-28T12:40:37.000Z</time>
      </trkpt>
      <trkpt lat="44.32845" lon="2.51381">
        <ele>630.8</ele>
        <time>2024-12-28T12:40:42.000Z</time>
      </trkpt>
      <trkpt lat="44.3285" lon="2.51383">
        <ele>631</ele>
        <time>2024-12-28T12:40:46.000Z</time>
      </trkpt>
      <trkpt lat="44.32855" lon="2.51383">
        <ele>631</ele>
        <time>2024-12-28T12:40:50.000Z</time>
      </trkpt>
      <trkpt lat="44.3286" lon="2.51386">
        <ele>631.1</ele>
        <time>2024-12-28T12:40:54.000Z</time>
      </trkpt>
      <trkpt lat="44.32865" lon="2.51389">
        <ele>631.1</ele>
        <time>2024-12-28T12:40:58.000Z</time>
      </trkpt>
      <trkpt lat="44.32869" lon="2.51392">
        <ele>631.1</ele>
        <time>2024-12-28T12:41:02.000Z</time>
      </trkpt>
      <trkpt lat="44.32875" lon="2.51394">
        <ele>631.2</ele>
        <time>2024-12-28T12:41:06.000Z</time>
      </trkpt>
      <trkpt lat="44.32879" lon="2.51396">
        <ele>631.2</ele>
        <time>2024-12-28T12:41:10.000Z</time>
      </trkpt>
      <trkpt lat="44.32884" lon="2.51398">
        <ele>631.3</ele>
        <time>2024-12-28T12:41:14.000Z</time>
      </trkpt>
      <trkpt lat="44.3289" lon="2.514">
        <ele>631.4</ele>
        <time>2024-12-28T12:41:18.000Z</time>
      </trkpt>
      <trkpt lat="44.32894" lon="2.51403">
        <ele>631.5</ele>
        <time>2024-12-28T12:41:22.000Z</time>
      </trkpt>
      <trkpt lat="44.32899" lon="2.51405">
        <ele>631.6</ele>
        <time>2024-12-28T12:41:26.000Z</time>
      </trkpt>
      <trkpt lat="44.32905" lon="2.51407">
        <ele>631.6</ele>
        <time>2024-12-28T12:41:30.000Z</time>
      </trkpt>
      <trkpt lat="44.3291" lon="2.51409">
        <ele>631.6</ele>
        <time>2024-12-28T12:41:34.000Z</time>
      </trkpt>
      <trkpt lat="44.32915" lon="2.51411">
        <ele>631.6</ele>
        <time>2024-12-28T12:41:38.000Z</time>
      </trkpt>
      <trkpt lat="44.3292" lon="2.51412">
        <ele>631.5</ele>
        <time>2024-12-28T12:41:42.000Z</time>
      </trkpt>
      <trkpt lat="44.32925" lon="2.51413">
        <ele>631.5</ele>
        <time>2024-12-28T12:41:46.000Z</time>
      </trkpt>
      <trkpt lat="44.32929" lon="2.51414">
        <ele>631.4</ele>
        <time>2024-12-28T12:41:50.000Z</time>
      </trkpt>
      <trkpt lat="44.32935" lon="2.51415">
        <ele>631.2</ele>
        <time>2024-12-28T12:41:55.000Z</time>
      </trkpt>
      <trkpt lat="44.32939" lon="2.51416">
        <ele>631</ele>
        <time>2024-12-28T12:41:59.000Z</time>
      </trkpt>
      <trkpt lat="44.32944" lon="2.51417">
        <ele>630.9</ele>
        <time>2024-12-28T12:42:03.000Z</time>
      </trkpt>
      <trkpt lat="44.32949" lon="2.51419">
        <ele>630.8</ele>
        <time>2024-12-28T12:42:07.000Z</time>
      </trkpt>
      <trkpt lat="44.32954" lon="2.5142">
        <ele>630.7</ele>
        <time>2024-12-28T12:42:11.000Z</time>
      </trkpt>
      <trkpt lat="44.3296" lon="2.51421">
        <ele>630.7</ele>
        <time>2024-12-28T12:42:15.000Z</time>
      </trkpt>
      <trkpt lat="44.32965" lon="2.51422">
        <ele>630.7</ele>
        <time>2024-12-28T12:42:19.000Z</time>
      </trkpt>
      <trkpt lat="44.3297" lon="2.51424">
        <ele>630.8</ele>
        <time>2024-12-28T12:42:23.000Z</time>
      </trkpt>
      <trkpt lat="44.32975" lon="2.51425">
        <ele>630.9</ele>
        <time>2024-12-28T12:42:27.000Z</time>
      </trkpt>
      <trkpt lat="44.3298" lon="2.51426">
        <ele>630.9</ele>
        <time>2024-12-28T12:42:31.000Z</time>
      </trkpt>
      <trkpt lat="44.32985" lon="2.51428">
        <ele>631</ele>
        <time>2024-12-28T12:42:35.000Z</time>
      </trkpt>
      <trkpt lat="44.3299" lon="2.51429">
        <ele>631</ele>
        <time>2024-12-28T12:42:39.000Z</time>
      </trkpt>
      <trkpt lat="44.32995" lon="2.51432">
        <ele>631.1</ele>
        <time>2024-12-28T12:42:43.000Z</time>
      </trkpt>
      <trkpt lat="44.33" lon="2.51433">
        <ele>631.2</ele>
        <time>2024-12-28T12:42:47.000Z</time>
      </trkpt>
      <trkpt lat="44.33004" lon="2.51435">
        <ele>631.2</ele>
        <time>2024-12-28T12:42:51.000Z</time>
      </trkpt>
      <trkpt lat="44.33009" lon="2.51438">
        <ele>631.2</ele>
        <time>2024-12-28T12:42:55.000Z</time>
      </trkpt>
      <trkpt lat="44.33014" lon="2.51441">
        <ele>631.2</ele>
        <time>2024-12-28T12:43:00.000Z</time>
      </trkpt>
      <trkpt lat="44.33019" lon="2.51443">
        <ele>631.2</ele>
        <time>2024-12-28T12:43:04.000Z</time>
      </trkpt>
      <trkpt lat="44.33023" lon="2.51446">
        <ele>631.2</ele>
        <time>2024-12-28T12:43:08.000Z</time>
      </trkpt>
      <trkpt lat="44.33027" lon="2.5145">
        <ele>631.2</ele>
        <time>2024-12-28T12:43:12.000Z</time>
      </trkpt>
      <trkpt lat="44.33032" lon="2.51452">
        <ele>631.2</ele>
        <time>2024-12-28T12:43:15.000Z</time>
      </trkpt>
      <trkpt lat="44.33036" lon="2.51456">
        <ele>631.3</ele>
        <time>2024-12-28T12:43:19.000Z</time>
      </trkpt>
      <trkpt lat="44.33041" lon="2.5146">
        <ele>631.4</ele>
        <time>2024-12-28T12:43:23.000Z</time>
      </trkpt>
      <trkpt lat="44.33046" lon="2.51463">
        <ele>631.5</ele>
        <time>2024-12-28T12:43:27.000Z</time>
      </trkpt>
      <trkpt lat="44.3305" lon="2.51466">
        <ele>631.6</ele>
        <time>2024-12-28T12:43:31.000Z</time>
      </trkpt>
      <trkpt lat="44.33054" lon="2.51471">
        <ele>631.6</ele>
        <time>2024-12-28T12:43:35.000Z</time>
      </trkpt>
      <trkpt lat="44.33058" lon="2.51477">
        <ele>631.6</ele>
        <time>2024-12-28T12:43:39.000Z</time>
      </trkpt>
      <trkpt lat="44.33062" lon="2.51481">
        <ele>631.4</ele>
        <time>2024-12-28T12:43:44.000Z</time>
      </trkpt>
      <trkpt lat="44.33066" lon="2.51485">
        <ele>631.2</ele>
        <time>2024-12-28T12:43:48.000Z</time>
      </trkpt>
      <trkpt lat="44.3307" lon="2.51489">
        <ele>630.9</ele>
        <time>2024-12-28T12:43:52.000Z</time>
      </trkpt>
      <trkpt lat="44.33074" lon="2.51492">
        <ele>630.6</ele>
        <time>2024-12-28T12:43:56.000Z</time>
      </trkpt>
      <trkpt lat="44.33079" lon="2.51497">
        <ele>630.3</ele>
        <time>2024-12-28T12:44:01.000Z</time>
      </trkpt>
      <trkpt lat="44.3308" lon="2.51498">
        <ele>630.1</ele>
        <time>2024-12-28T12:44:04.100Z</time>
      </trkpt>
      <trkpt lat="44.33083" lon="2.51495">
        <ele>629.6</ele>
        <time>2024-12-28T12:44:13.000Z</time>
      </trkpt>
      <trkpt lat="44.33083" lon="2.51495">
        <ele>629.6</ele>
        <time>2024-12-28T12:44:14.000Z</time>
      </trkpt>
      <trkpt lat="44.33085" lon="2.51495">
        <ele>629.6</ele>
        <time>2024-12-28T12:44:17.100Z</time>
      </trkpt>
      <trkpt lat="44.33083" lon="2.51495">
        <ele>629.7</ele>
        <time>2024-12-28T12:44:56.000Z</time>
      </trkpt>
      <trkpt lat="44.33083" lon="2.51495">
        <ele>629.7</ele>
        <time>2024-12-28T12:44:57.000Z</time>
      </trkpt>
      <trkpt lat="44.33083" lon="2.51495">
        <ele>629.7</ele>
        <time>2024-12-28T12:44:57.099Z</time>
      </trkpt>
      <trkpt lat="44.33084" lon="2.51498">
        <ele>629.5</ele>
        <time>2024-12-28T12:45:09.000Z</time>
      </trkpt>
      <trkpt lat="44.33084" lon="2.51499">
        <ele>629.5</ele>
        <time>2024-12-28T12:45:10.000Z</time>
      </trkpt>
      <trkpt lat="44.33088" lon="2.51501">
        <ele>629.1</ele>
        <time>2024-12-28T12:45:20.000Z</time>
      </trkpt>
      <trkpt lat="44.33093" lon="2.51502">
        <ele>628.9</ele>
        <time>2024-12-28T12:45:26.000Z</time>
      </trkpt>
      <trkpt lat="44.33097" lon="2.51501">
        <ele>628.5</ele>
        <time>2024-12-28T12:45:34.000Z</time>
      </trkpt>
      <trkpt lat="44.33097" lon="2.51501">
        <ele>628.5</ele>
        <time>2024-12-28T12:45:34.099Z</time>
      </trkpt>
      <trkpt lat="44.33098" lon="2.515">
        <ele>628.3</ele>
        <time>2024-12-28T12:45:38.000Z</time>
      </trkpt>
      <trkpt lat="44.33098" lon="2.515">
        <ele>628.3</ele>
        <time>2024-12-28T12:45:39.000Z</time>
      </trkpt>
      <trkpt lat="44.33104" lon="2.51498">
        <ele>627.8</ele>
        <time>2024-12-28T12:45:47.000Z</time>
      </trkpt>
      <trkpt lat="44.33109" lon="2.51496">
        <ele>627.7</ele>
        <time>2024-12-28T12:45:52.000Z</time>
      </trkpt>
      <trkpt lat="44.33114" lon="2.51495">
        <ele>627.5</ele>
        <time>2024-12-28T12:45:56.000Z</time>
      </trkpt>
      <trkpt lat="44.33119" lon="2.51494">
        <ele>627.3</ele>
        <time>2024-12-28T12:46:03.000Z</time>
      </trkpt>
      <trkpt lat="44.33124" lon="2.51491">
        <ele>627.3</ele>
        <time>2024-12-28T12:46:07.000Z</time>
      </trkpt>
      <trkpt lat="44.33129" lon="2.51489">
        <ele>627.3</ele>
        <time>2024-12-28T12:46:10.000Z</time>
      </trkpt>
      <trkpt lat="44.33134" lon="2.51487">
        <ele>627.3</ele>
        <time>2024-12-28T12:46:17.000Z</time>
      </trkpt>
      <trkpt lat="44.33139" lon="2.51485">
        <ele>627.3</ele>
        <time>2024-12-28T12:46:22.000Z</time>
      </trkpt>
      <trkpt lat="44.33144" lon="2.51484">
        <ele>627.3</ele>
        <time>2024-12-28T12:46:26.000Z</time>
      </trkpt>
      <trkpt lat="44.3315" lon="2.51482">
        <ele>627.2</ele>
        <time>2024-12-28T12:46:29.000Z</time>
      </trkpt>
      <trkpt lat="44.33154" lon="2.51479">
        <ele>627.2</ele>
        <time>2024-12-28T12:46:32.000Z</time>
      </trkpt>
      <trkpt lat="44.3316" lon="2.51477">
        <ele>627.2</ele>
        <time>2024-12-28T12:46:35.000Z</time>
      </trkpt>
      <trkpt lat="44.33165" lon="2.51475">
        <ele>627.1</ele>
        <time>2024-12-28T12:46:38.000Z</time>
      </trkpt>
      <trkpt lat="44.3317" lon="2.51473">
        <ele>627</ele>
        <time>2024-12-28T12:46:41.000Z</time>
      </trkpt>
      <trkpt lat="44.33175" lon="2.51472">
        <ele>626.5</ele>
        <time>2024-12-28T12:46:45.000Z</time>
      </trkpt>
      <trkpt lat="44.3318" lon="2.51471">
        <ele>625</ele>
        <time>2024-12-28T12:46:49.000Z</time>
      </trkpt>
      <trkpt lat="44.33185" lon="2.51469">
        <ele>622.8</ele>
        <time>2024-12-28T12:46:53.000Z</time>
      </trkpt>
      <trkpt lat="44.3319" lon="2.51469">
        <ele>621</ele>
        <time>2024-12-28T12:46:57.000Z</time>
      </trkpt>
      <trkpt lat="44.33195" lon="2.51468">
        <ele>619.9</ele>
        <time>2024-12-28T12:47:01.000Z</time>
      </trkpt>
      <trkpt lat="44.332" lon="2.51468">
        <ele>619.1</ele>
        <time>2024-12-28T12:47:05.000Z</time>
      </trkpt>
      <trkpt lat="44.33204" lon="2.51467">
        <ele>618.1</ele>
        <time>2024-12-28T12:47:15.100Z</time>
      </trkpt>
      <trkpt lat="44.33205" lon="2.51466">
        <ele>618</ele>
        <time>2024-12-28T12:47:20.000Z</time>
      </trkpt>
      <trkpt lat="44.33205" lon="2.51465">
        <ele>618</ele>
        <time>2024-12-28T12:47:21.000Z</time>
      </trkpt>
      <trkpt lat="44.33205" lon="2.51465">
        <ele>618</ele>
        <time>2024-12-28T12:47:22.000Z</time>
      </trkpt>
      <trkpt lat="44.33205" lon="2.51465">
        <ele>617.9</ele>
        <time>2024-12-28T12:47:27.100Z</time>
      </trkpt>
      <trkpt lat="44.33205" lon="2.51465">
        <ele>617.9</ele>
        <time>2024-12-28T12:47:31.000Z</time>
      </trkpt>
      <trkpt lat="44.33205" lon="2.51465">
        <ele>617.9</ele>
        <time>2024-12-28T12:47:32.000Z</time>
      </trkpt>
      <trkpt lat="44.33205" lon="2.51465">
        <ele>617.9</ele>
        <time>2024-12-28T12:47:34.099Z</time>
      </trkpt>
      <trkpt lat="44.33208" lon="2.51466">
        <ele>617.9</ele>
        <time>2024-12-28T12:47:40.000Z</time>
      </trkpt>
      <trkpt lat="44.33209" lon="2.51466">
        <ele>617.9</ele>
        <time>2024-12-28T12:47:41.000Z</time>
      </trkpt>
      <trkpt lat="44.33208" lon="2.51466">
        <ele>617.9</ele>
        <time>2024-12-28T12:47:42.000Z</time>
      </trkpt>
      <trkpt lat="44.33213" lon="2.51462">
        <ele>617.9</ele>
        <time>2024-12-28T12:47:48.000Z</time>
      </trkpt>
      <trkpt lat="44.33217" lon="2.51457">
        <ele>618</ele>
        <time>2024-12-28T12:47:53.000Z</time>
      </trkpt>
      <trkpt lat="44.33221" lon="2.51454">
        <ele>618</ele>
        <time>2024-12-28T12:47:57.000Z</time>
      </trkpt>
      <trkpt lat="44.33225" lon="2.5145">
        <ele>618</ele>
        <time>2024-12-28T12:48:01.000Z</time>
      </trkpt>
      <trkpt lat="44.33229" lon="2.51447">
        <ele>618.1</ele>
        <time>2024-12-28T12:48:05.000Z</time>
      </trkpt>
      <trkpt lat="44.33234" lon="2.51444">
        <ele>618.1</ele>
        <time>2024-12-28T12:48:08.000Z</time>
      </trkpt>
      <trkpt lat="44.33239" lon="2.51441">
        <ele>618.1</ele>
        <time>2024-12-28T12:48:12.000Z</time>
      </trkpt>
      <trkpt lat="44.33243" lon="2.51439">
        <ele>618</ele>
        <time>2024-12-28T12:48:16.000Z</time>
      </trkpt>
      <trkpt lat="44.33247" lon="2.51436">
        <ele>617.9</ele>
        <time>2024-12-28T12:48:20.000Z</time>
      </trkpt>
      <trkpt lat="44.33252" lon="2.51434">
        <ele>617.7</ele>
        <time>2024-12-28T12:48:24.000Z</time>
      </trkpt>
      <trkpt lat="44.33257" lon="2.51433">
        <ele>617.2</ele>
        <time>2024-12-28T12:48:29.000Z</time>
      </trkpt>
      <trkpt lat="44.33261" lon="2.51431">
        <ele>616.6</ele>
        <time>2024-12-28T12:48:33.000Z</time>
      </trkpt>
      <trkpt lat="44.33266" lon="2.51427">
        <ele>615.8</ele>
        <time>2024-12-28T12:48:38.000Z</time>
      </trkpt>
      <trkpt lat="44.33271" lon="2.51423">
        <ele>615</ele>
        <time>2024-12-28T12:48:43.000Z</time>
      </trkpt>
      <trkpt lat="44.33275" lon="2.5142">
        <ele>614.7</ele>
        <time>2024-12-28T12:48:46.000Z</time>
      </trkpt>
      <trkpt lat="44.3328" lon="2.51416">
        <ele>614.2</ele>
        <time>2024-12-28T12:48:50.000Z</time>
      </trkpt>
      <trkpt lat="44.33283" lon="2.51412">
        <ele>613.6</ele>
        <time>2024-12-28T12:48:54.000Z</time>
      </trkpt>
      <trkpt lat="44.33287" lon="2.51408">
        <ele>613</ele>
        <time>2024-12-28T12:48:58.000Z</time>
      </trkpt>
      <trkpt lat="44.33291" lon="2.51403">
        <ele>612.3</ele>
        <time>2024-12-28T12:49:03.000Z</time>
      </trkpt>
      <trkpt lat="44.33294" lon="2.51397">
        <ele>611.9</ele>
        <time>2024-12-28T12:49:07.000Z</time>
      </trkpt>
      <trkpt lat="44.33297" lon="2.51391">
        <ele>611.6</ele>
        <time>2024-12-28T12:49:11.000Z</time>
      </trkpt>
      <trkpt lat="44.333" lon="2.51384">
        <ele>611.5</ele>
        <time>2024-12-28T12:49:15.000Z</time>
      </trkpt>
      <trkpt lat="44.33302" lon="2.51378">
        <ele>611.4</ele>
        <time>2024-12-28T12:49:18.000Z</time>
      </trkpt>
      <trkpt lat="44.33302" lon="2.51371">
        <ele>611.2</ele>
        <time>2024-12-28T12:49:22.000Z</time>
      </trkpt>
      <trkpt lat="44.33302" lon="2.51364">
        <ele>610.9</ele>
        <time>2024-12-28T12:49:26.000Z</time>
      </trkpt>
      <trkpt lat="44.33304" lon="2.51358">
        <ele>610.6</ele>
        <time>2024-12-28T12:49:30.000Z</time>
      </trkpt>
      <trkpt lat="44.33309" lon="2.51354">
        <ele>610.4</ele>
        <time>2024-12-28T12:49:34.000Z</time>
      </trkpt>
      <trkpt lat="44.33313" lon="2.51352">
        <ele>610.1</ele>
        <time>2024-12-28T12:49:38.000Z</time>
      </trkpt>
      <trkpt lat="44.33318" lon="2.5135">
        <ele>609.8</ele>
        <time>2024-12-28T12:49:42.000Z</time>
      </trkpt>
      <trkpt lat="44.33322" lon="2.51346">
        <ele>609.1</ele>
        <time>2024-12-28T12:49:47.000Z</time>
      </trkpt>
      <trkpt lat="44.33327" lon="2.51342">
        <ele>608.6</ele>
        <time>2024-12-28T12:49:52.000Z</time>
      </trkpt>
      <trkpt lat="44.33331" lon="2.5134">
        <ele>608.4</ele>
        <time>2024-12-28T12:49:56.000Z</time>
      </trkpt>
      <trkpt lat="44.33336" lon="2.51337">
        <ele>608.3</ele>
        <time>2024-12-28T12:49:59.000Z</time>
      </trkpt>
      <trkpt lat="44.3334" lon="2.51334">
        <ele>607.9</ele>
        <time>2024-12-28T12:50:04.000Z</time>
      </trkpt>
      <trkpt lat="44.33345" lon="2.51331">
        <ele>607.7</ele>
        <time>2024-12-28T12:50:08.000Z</time>
      </trkpt>
      <trkpt lat="44.3335" lon="2.51327">
        <ele>607.6</ele>
        <time>2024-12-28T12:50:12.000Z</time>
      </trkpt>
      <trkpt lat="44.33353" lon="2.51323">
        <ele>607.6</ele>
        <time>2024-12-28T12:50:15.000Z</time>
      </trkpt>
      <trkpt lat="44.33357" lon="2.51317">
        <ele>607.6</ele>
        <time>2024-12-28T12:50:19.000Z</time>
      </trkpt>
      <trkpt lat="44.33359" lon="2.51311">
        <ele>607.7</ele>
        <time>2024-12-28T12:50:24.000Z</time>
      </trkpt>
      <trkpt lat="44.3336" lon="2.51304">
        <ele>607.9</ele>
        <time>2024-12-28T12:50:29.000Z</time>
      </trkpt>
      <trkpt lat="44.33363" lon="2.51298">
        <ele>608.1</ele>
        <time>2024-12-28T12:50:33.000Z</time>
      </trkpt>
      <trkpt lat="44.33364" lon="2.51292">
        <ele>608.2</ele>
        <time>2024-12-28T12:50:38.000Z</time>
      </trkpt>
      <trkpt lat="44.33367" lon="2.51285">
        <ele>608.1</ele>
        <time>2024-12-28T12:50:43.000Z</time>
      </trkpt>
      <trkpt lat="44.33369" lon="2.51279">
        <ele>608.1</ele>
        <time>2024-12-28T12:50:47.000Z</time>
      </trkpt>
      <trkpt lat="44.33372" lon="2.51273">
        <ele>608.1</ele>
        <time>2024-12-28T12:50:51.000Z</time>
      </trkpt>
      <trkpt lat="44.33375" lon="2.51267">
        <ele>608</ele>
        <time>2024-12-28T12:50:55.000Z</time>
      </trkpt>
      <trkpt lat="44.33377" lon="2.51261">
        <ele>608</ele>
        <time>2024-12-28T12:50:59.000Z</time>
      </trkpt>
      <trkpt lat="44.3338" lon="2.51255">
        <ele>608</ele>
        <time>2024-12-28T12:51:03.000Z</time>
      </trkpt>
      <trkpt lat="44.33384" lon="2.5125">
        <ele>608</ele>
        <time>2024-12-28T12:51:08.000Z</time>
      </trkpt>
      <trkpt lat="44.33386" lon="2.51244">
        <ele>608.1</ele>
        <time>2024-12-28T12:51:12.000Z</time>
      </trkpt>
      <trkpt lat="44.33387" lon="2.51238">
        <ele>608.1</ele>
        <time>2024-12-28T12:51:16.000Z</time>
      </trkpt>
      <trkpt lat="44.33389" lon="2.51232">
        <ele>608.1</ele>
        <time>2024-12-28T12:51:20.000Z</time>
      </trkpt>
      <trkpt lat="44.33393" lon="2.51226">
        <ele>608</ele>
        <time>2024-12-28T12:51:25.000Z</time>
      </trkpt>
      <trkpt lat="44.33396" lon="2.51219">
        <ele>607.9</ele>
        <time>2024-12-28T12:51:30.000Z</time>
      </trkpt>
      <trkpt lat="44.33399" lon="2.51214">
        <ele>607.7</ele>
        <time>2024-12-28T12:51:34.000Z</time>
      </trkpt>
      <trkpt lat="44.33403" lon="2.5121">
        <ele>607.2</ele>
        <time>2024-12-28T12:51:39.000Z</time>
      </trkpt>
      <trkpt lat="44.33405" lon="2.51204">
        <ele>605.8</ele>
        <time>2024-12-28T12:51:45.000Z</time>
      </trkpt>
      <trkpt lat="44.33409" lon="2.51198">
        <ele>604.6</ele>
        <time>2024-12-28T12:51:50.000Z</time>
      </trkpt>
      <trkpt lat="44.33413" lon="2.51194">
        <ele>604</ele>
        <time>2024-12-28T12:51:55.000Z</time>
      </trkpt>
      <trkpt lat="44.33417" lon="2.5119">
        <ele>603.5</ele>
        <time>2024-12-28T12:52:00.000Z</time>
      </trkpt>
      <trkpt lat="44.3342" lon="2.51185">
        <ele>603.1</ele>
        <time>2024-12-28T12:52:05.000Z</time>
      </trkpt>
      <trkpt lat="44.33424" lon="2.51181">
        <ele>602.6</ele>
        <time>2024-12-28T12:52:10.000Z</time>
      </trkpt>
      <trkpt lat="44.33427" lon="2.51175">
        <ele>601.6</ele>
        <time>2024-12-28T12:52:16.000Z</time>
      </trkpt>
      <trkpt lat="44.3343" lon="2.51169">
        <ele>600.5</ele>
        <time>2024-12-28T12:52:22.000Z</time>
      </trkpt>
      <trkpt lat="44.33434" lon="2.51163">
        <ele>599</ele>
        <time>2024-12-28T12:52:30.000Z</time>
      </trkpt>
      <trkpt lat="44.33439" lon="2.51158">
        <ele>598.7</ele>
        <time>2024-12-28T12:52:33.000Z</time>
      </trkpt>
      <trkpt lat="44.33442" lon="2.51152">
        <ele>598.4</ele>
        <time>2024-12-28T12:52:37.000Z</time>
      </trkpt>
      <trkpt lat="44.33446" lon="2.51147">
        <ele>598.1</ele>
        <time>2024-12-28T12:52:41.000Z</time>
      </trkpt>
      <trkpt lat="44.33449" lon="2.51141">
        <ele>597.8</ele>
        <time>2024-12-28T12:52:46.000Z</time>
      </trkpt>
      <trkpt lat="44.33453" lon="2.51136">
        <ele>597.2</ele>
        <time>2024-12-28T12:52:51.000Z</time>
      </trkpt>
      <trkpt lat="44.33456" lon="2.51129">
        <ele>596.6</ele>
        <time>2024-12-28T12:52:56.000Z</time>
      </trkpt>
      <trkpt lat="44.33459" lon="2.51124">
        <ele>596.4</ele>
        <time>2024-12-28T12:53:00.000Z</time>
      </trkpt>
      <trkpt lat="44.33461" lon="2.51117">
        <ele>596.2</ele>
        <time>2024-12-28T12:53:05.000Z</time>
      </trkpt>
      <trkpt lat="44.33464" lon="2.5111">
        <ele>595.9</ele>
        <time>2024-12-28T12:53:10.000Z</time>
      </trkpt>
      <trkpt lat="44.33464" lon="2.51103">
        <ele>595.6</ele>
        <time>2024-12-28T12:53:15.000Z</time>
      </trkpt>
      <trkpt lat="44.33465" lon="2.51096">
        <ele>595.2</ele>
        <time>2024-12-28T12:53:19.000Z</time>
      </trkpt>
      <trkpt lat="44.33466" lon="2.5109">
        <ele>594.7</ele>
        <time>2024-12-28T12:53:24.000Z</time>
      </trkpt>
      <trkpt lat="44.33468" lon="2.51084">
        <ele>594</ele>
        <time>2024-12-28T12:53:29.000Z</time>
      </trkpt>
      <trkpt lat="44.33469" lon="2.51077">
        <ele>593.5</ele>
        <time>2024-12-28T12:53:34.000Z</time>
      </trkpt>
      <trkpt lat="44.3347" lon="2.51071">
        <ele>592.9</ele>
        <time>2024-12-28T12:53:40.000Z</time>
      </trkpt>
      <trkpt lat="44.33472" lon="2.51064">
        <ele>591.6</ele>
        <time>2024-12-28T12:53:46.000Z</time>
      </trkpt>
      <trkpt lat="44.33473" lon="2.51058">
        <ele>589.9</ele>
        <time>2024-12-28T12:53:53.000Z</time>
      </trkpt>
      <trkpt lat="44.33475" lon="2.51052">
        <ele>589</ele>
        <time>2024-12-28T12:53:58.000Z</time>
      </trkpt>
      <trkpt lat="44.33477" lon="2.51045">
        <ele>588.1</ele>
        <time>2024-12-28T12:54:03.000Z</time>
      </trkpt>
      <trkpt lat="44.3348" lon="2.51039">
        <ele>587.4</ele>
        <time>2024-12-28T12:54:09.000Z</time>
      </trkpt>
      <trkpt lat="44.33482" lon="2.51033">
        <ele>587.2</ele>
        <time>2024-12-28T12:54:14.000Z</time>
      </trkpt>
      <trkpt lat="44.33484" lon="2.51026">
        <ele>587</ele>
        <time>2024-12-28T12:54:21.000Z</time>
      </trkpt>
      <trkpt lat="44.33487" lon="2.5102">
        <ele>586.6</ele>
        <time>2024-12-28T12:54:28.000Z</time>
      </trkpt>
      <trkpt lat="44.3349" lon="2.51015">
        <ele>585.8</ele>
        <time>2024-12-28T12:54:36.000Z</time>
      </trkpt>
      <trkpt lat="44.33493" lon="2.51009">
        <ele>584.9</ele>
        <time>2024-12-28T12:54:42.000Z</time>
      </trkpt>
      <trkpt lat="44.33496" lon="2.51002">
        <ele>583.9</ele>
        <time>2024-12-28T12:54:48.000Z</time>
      </trkpt>
      <trkpt lat="44.33498" lon="2.50997">
        <ele>583.3</ele>
        <time>2024-12-28T12:54:54.000Z</time>
      </trkpt>
      <trkpt lat="44.335" lon="2.50991">
        <ele>583</ele>
        <time>2024-12-28T12:54:59.000Z</time>
      </trkpt>
      <trkpt lat="44.33502" lon="2.50984">
        <ele>582.7</ele>
        <time>2024-12-28T12:55:04.000Z</time>
      </trkpt>
      <trkpt lat="44.33505" lon="2.50978">
        <ele>582.2</ele>
        <time>2024-12-28T12:55:09.000Z</time>
      </trkpt>
      <trkpt lat="44.33507" lon="2.50972">
        <ele>581.6</ele>
        <time>2024-12-28T12:55:15.000Z</time>
      </trkpt>
      <trkpt lat="44.3351" lon="2.50966">
        <ele>581.2</ele>
        <time>2024-12-28T12:55:21.000Z</time>
      </trkpt>
      <trkpt lat="44.33513" lon="2.50959">
        <ele>580.5</ele>
        <time>2024-12-28T12:55:28.000Z</time>
      </trkpt>
      <trkpt lat="44.33515" lon="2.50953">
        <ele>579.7</ele>
        <time>2024-12-28T12:55:35.000Z</time>
      </trkpt>
      <trkpt lat="44.33517" lon="2.50947">
        <ele>579</ele>
        <time>2024-12-28T12:55:41.000Z</time>
      </trkpt>
      <trkpt lat="44.33521" lon="2.50941">
        <ele>578.4</ele>
        <time>2024-12-28T12:55:46.000Z</time>
      </trkpt>
      <trkpt lat="44.33524" lon="2.50937">
        <ele>577.9</ele>
        <time>2024-12-28T12:55:51.000Z</time>
      </trkpt>
      <trkpt lat="44.33526" lon="2.5093">
        <ele>577.7</ele>
        <time>2024-12-28T12:55:56.000Z</time>
      </trkpt>
      <trkpt lat="44.33527" lon="2.50924">
        <ele>577.2</ele>
        <time>2024-12-28T12:56:02.000Z</time>
      </trkpt>
      <trkpt lat="44.3353" lon="2.50919">
        <ele>576.7</ele>
        <time>2024-12-28T12:56:07.000Z</time>
      </trkpt>
      <trkpt lat="44.33533" lon="2.50913">
        <ele>576.4</ele>
        <time>2024-12-28T12:56:12.000Z</time>
      </trkpt>
      <trkpt lat="44.33537" lon="2.50908">
        <ele>575.8</ele>
        <time>2024-12-28T12:56:18.000Z</time>
      </trkpt>
      <trkpt lat="44.3354" lon="2.50903">
        <ele>575.2</ele>
        <time>2024-12-28T12:56:24.000Z</time>
      </trkpt>
      <trkpt lat="44.33543" lon="2.50897">
        <ele>574.1</ele>
        <time>2024-12-28T12:56:30.000Z</time>
      </trkpt>
      <trkpt lat="44.33545" lon="2.50892">
        <ele>572.8</ele>
        <time>2024-12-28T12:56:37.000Z</time>
      </trkpt>
      <trkpt lat="44.33548" lon="2.50887">
        <ele>571.8</ele>
        <time>2024-12-28T12:56:44.000Z</time>
      </trkpt>
      <trkpt lat="44.33553" lon="2.50882">
        <ele>570.8</ele>
        <time>2024-12-28T12:56:49.000Z</time>
      </trkpt>
      <trkpt lat="44.33557" lon="2.50878">
        <ele>569.4</ele>
        <time>2024-12-28T12:56:54.000Z</time>
      </trkpt>
      <trkpt lat="44.33561" lon="2.50874">
        <ele>568.1</ele>
        <time>2024-12-28T12:56:59.000Z</time>
      </trkpt>
      <trkpt lat="44.33564" lon="2.5087">
        <ele>567.1</ele>
        <time>2024-12-28T12:57:05.000Z</time>
      </trkpt>
      <trkpt lat="44.33568" lon="2.50866">
        <ele>566.3</ele>
        <time>2024-12-28T12:57:15.000Z</time>
      </trkpt>
      <trkpt lat="44.33572" lon="2.50862">
        <ele>566</ele>
        <time>2024-12-28T12:57:20.000Z</time>
      </trkpt>
      <trkpt lat="44.33576" lon="2.50858">
        <ele>565.4</ele>
        <time>2024-12-28T12:57:26.000Z</time>
      </trkpt>
      <trkpt lat="44.3358" lon="2.50854">
        <ele>565.1</ele>
        <time>2024-12-28T12:57:31.000Z</time>
      </trkpt>
      <trkpt lat="44.33584" lon="2.50851">
        <ele>564.5</ele>
        <time>2024-12-28T12:57:36.000Z</time>
      </trkpt>
      <trkpt lat="44.33589" lon="2.50851">
        <ele>563.2</ele>
        <time>2024-12-28T12:57:43.000Z</time>
      </trkpt>
      <trkpt lat="44.33595" lon="2.5085">
        <ele>561.9</ele>
        <time>2024-12-28T12:57:49.000Z</time>
      </trkpt>
      <trkpt lat="44.336" lon="2.50847">
        <ele>561.1</ele>
        <time>2024-12-28T12:57:54.000Z</time>
      </trkpt>
      <trkpt lat="44.33605" lon="2.50844">
        <ele>560.7</ele>
        <time>2024-12-28T12:57:58.000Z</time>
      </trkpt>
      <trkpt lat="44.3361" lon="2.50842">
        <ele>560.5</ele>
        <time>2024-12-28T12:58:02.000Z</time>
      </trkpt>
      <trkpt lat="44.33615" lon="2.50841">
        <ele>560.4</ele>
        <time>2024-12-28T12:58:06.000Z</time>
      </trkpt>
      <trkpt lat="44.3362" lon="2.50841">
        <ele>559.7</ele>
        <time>2024-12-28T12:58:10.000Z</time>
      </trkpt>
      <trkpt lat="44.33626" lon="2.50841">
        <ele>558.2</ele>
        <time>2024-12-28T12:58:15.000Z</time>
      </trkpt>
      <trkpt lat="44.33631" lon="2.50841">
        <ele>556.5</ele>
        <time>2024-12-28T12:58:19.000Z</time>
      </trkpt>
      <trkpt lat="44.33635" lon="2.50844">
        <ele>554</ele>
        <time>2024-12-28T12:58:27.000Z</time>
      </trkpt>
      <trkpt lat="44.33638" lon="2.50838">
        <ele>552.7</ele>
        <time>2024-12-28T12:58:33.000Z</time>
      </trkpt>
      <trkpt lat="44.33643" lon="2.50835">
        <ele>552.3</ele>
        <time>2024-12-28T12:58:38.000Z</time>
      </trkpt>
      <trkpt lat="44.33647" lon="2.50834">
        <ele>552.1</ele>
        <time>2024-12-28T12:58:42.000Z</time>
      </trkpt>
      <trkpt lat="44.33652" lon="2.50833">
        <ele>551.8</ele>
        <time>2024-12-28T12:58:46.000Z</time>
      </trkpt>
      <trkpt lat="44.33656" lon="2.50831">
        <ele>551.3</ele>
        <time>2024-12-28T12:58:52.000Z</time>
      </trkpt>
      <trkpt lat="44.33661" lon="2.50828">
        <ele>550.7</ele>
        <time>2024-12-28T12:58:59.000Z</time>
      </trkpt>
      <trkpt lat="44.33665" lon="2.50827">
        <ele>549.9</ele>
        <time>2024-12-28T12:59:09.100Z</time>
      </trkpt>
      <trkpt lat="44.33665" lon="2.50824">
        <ele>549.7</ele>
        <time>2024-12-28T12:59:13.000Z</time>
      </trkpt>
      <trkpt lat="44.33665" lon="2.50823">
        <ele>549.7</ele>
        <time>2024-12-28T12:59:14.000Z</time>
      </trkpt>
      <trkpt lat="44.33668" lon="2.50816">
        <ele>549.4</ele>
        <time>2024-12-28T12:59:19.000Z</time>
      </trkpt>
      <trkpt lat="44.33671" lon="2.50811">
        <ele>549.1</ele>
        <time>2024-12-28T12:59:24.000Z</time>
      </trkpt>
      <trkpt lat="44.33674" lon="2.50806">
        <ele>548.7</ele>
        <time>2024-12-28T12:59:29.000Z</time>
      </trkpt>
      <trkpt lat="44.33678" lon="2.50801">
        <ele>548.4</ele>
        <time>2024-12-28T12:59:35.000Z</time>
      </trkpt>
      <trkpt lat="44.33682" lon="2.50796">
        <ele>548.1</ele>
        <time>2024-12-28T12:59:41.000Z</time>
      </trkpt>
      <trkpt lat="44.33686" lon="2.50792">
        <ele>547.9</ele>
        <time>2024-12-28T12:59:46.000Z</time>
      </trkpt>
      <trkpt lat="44.33692" lon="2.50789">
        <ele>547.7</ele>
        <time>2024-12-28T12:59:50.000Z</time>
      </trkpt>
      <trkpt lat="44.33696" lon="2.50787">
        <ele>547.4</ele>
        <time>2024-12-28T12:59:54.000Z</time>
      </trkpt>
      <trkpt lat="44.33701" lon="2.50785">
        <ele>547.1</ele>
        <time>2024-12-28T12:59:58.000Z</time>
      </trkpt>
      <trkpt lat="44.33705" lon="2.50784">
        <ele>546.8</ele>
        <time>2024-12-28T13:00:02.000Z</time>
      </trkpt>
      <trkpt lat="44.33711" lon="2.50783">
        <ele>546.2</ele>
        <time>2024-12-28T13:00:08.000Z</time>
      </trkpt>
      <trkpt lat="44.33716" lon="2.50783">
        <ele>545.4</ele>
        <time>2024-12-28T13:00:13.000Z</time>
      </trkpt>
      <trkpt lat="44.33721" lon="2.50781">
        <ele>544.7</ele>
        <time>2024-12-28T13:00:17.000Z</time>
      </trkpt>
      <trkpt lat="44.33726" lon="2.50779">
        <ele>543.7</ele>
        <time>2024-12-28T13:00:22.000Z</time>
      </trkpt>
      <trkpt lat="44.33731" lon="2.50779">
        <ele>542.9</ele>
        <time>2024-12-28T13:00:26.000Z</time>
      </trkpt>
      <trkpt lat="44.33736" lon="2.50779">
        <ele>541.9</ele>
        <time>2024-12-28T13:00:31.000Z</time>
      </trkpt>
      <trkpt lat="44.33736" lon="2.50779">
        <ele>540.6</ele>
        <time>2024-12-28T13:00:40.099Z</time>
      </trkpt>
      <trkpt lat="44.33735" lon="2.5078">
        <ele>540.2</ele>
        <time>2024-12-28T13:00:45.000Z</time>
      </trkpt>
      <trkpt lat="44.33735" lon="2.5078">
        <ele>540.1</ele>
        <time>2024-12-28T13:00:46.000Z</time>
      </trkpt>
      <trkpt lat="44.33735" lon="2.5078">
        <ele>540.1</ele>
        <time>2024-12-28T13:00:47.000Z</time>
      </trkpt>
      <trkpt lat="44.33735" lon="2.5078">
        <ele>540.1</ele>
        <time>2024-12-28T13:00:47.099Z</time>
      </trkpt>
      <trkpt lat="44.33735" lon="2.5078">
        <ele>539.8</ele>
        <time>2024-12-28T13:00:51.000Z</time>
      </trkpt>
      <trkpt lat="44.33734" lon="2.5078">
        <ele>539.8</ele>
        <time>2024-12-28T13:00:52.000Z</time>
      </trkpt>
      <trkpt lat="44.33735" lon="2.5078">
        <ele>539.7</ele>
        <time>2024-12-28T13:00:53.000Z</time>
      </trkpt>
      <trkpt lat="44.33735" lon="2.5078">
        <ele>539.7</ele>
        <time>2024-12-28T13:00:53.099Z</time>
      </trkpt>
      <trkpt lat="44.33735" lon="2.50781">
        <ele>539.6</ele>
        <time>2024-12-28T13:00:56.000Z</time>
      </trkpt>
      <trkpt lat="44.33735" lon="2.50781">
        <ele>539.6</ele>
        <time>2024-12-28T13:00:57.000Z</time>
      </trkpt>
      <trkpt lat="44.33735" lon="2.50781">
        <ele>539.5</ele>
        <time>2024-12-28T13:00:58.000Z</time>
      </trkpt>
      <trkpt lat="44.33735" lon="2.50781">
        <ele>539.5</ele>
        <time>2024-12-28T13:00:58.099Z</time>
      </trkpt>
      <trkpt lat="44.33736" lon="2.50781">
        <ele>539.3</ele>
        <time>2024-12-28T13:01:08.000Z</time>
      </trkpt>
      <trkpt lat="44.33738" lon="2.50781">
        <ele>539.3</ele>
        <time>2024-12-28T13:01:09.000Z</time>
      </trkpt>
      <trkpt lat="44.33739" lon="2.50781">
        <ele>539.3</ele>
        <time>2024-12-28T13:01:10.000Z</time>
      </trkpt>
      <trkpt lat="44.33744" lon="2.50779">
        <ele>539</ele>
        <time>2024-12-28T13:01:15.000Z</time>
      </trkpt>
      <trkpt lat="44.33749" lon="2.50777">
        <ele>538.6</ele>
        <time>2024-12-28T13:01:20.000Z</time>
      </trkpt>
      <trkpt lat="44.33754" lon="2.50776">
        <ele>538.2</ele>
        <time>2024-12-28T13:01:25.000Z</time>
      </trkpt>
      <trkpt lat="44.3376" lon="2.50771">
        <ele>537.8</ele>
        <time>2024-12-28T13:01:31.000Z</time>
      </trkpt>
      <trkpt lat="44.33764" lon="2.50768">
        <ele>537.6</ele>
        <time>2024-12-28T13:01:34.000Z</time>
      </trkpt>
      <trkpt lat="44.33769" lon="2.50764">
        <ele>537.4</ele>
        <time>2024-12-28T13:01:38.000Z</time>
      </trkpt>
      <trkpt lat="44.33773" lon="2.50759">
        <ele>537.1</ele>
        <time>2024-12-28T13:01:42.000Z</time>
      </trkpt>
      <trkpt lat="44.33778" lon="2.50755">
        <ele>536.9</ele>
        <time>2024-12-28T13:01:46.000Z</time>
      </trkpt>
      <trkpt lat="44.33782" lon="2.5075">
        <ele>536.7</ele>
        <time>2024-12-28T13:01:50.000Z</time>
      </trkpt>
      <trkpt lat="44.33785" lon="2.50745">
        <ele>536.5</ele>
        <time>2024-12-28T13:01:54.000Z</time>
      </trkpt>
      <trkpt lat="44.33789" lon="2.50741">
        <ele>536.3</ele>
        <time>2024-12-28T13:01:58.000Z</time>
      </trkpt>
      <trkpt lat="44.33791" lon="2.50735">
        <ele>536.1</ele>
        <time>2024-12-28T13:02:02.000Z</time>
      </trkpt>
      <trkpt lat="44.33794" lon="2.50728">
        <ele>535.9</ele>
        <time>2024-12-28T13:02:06.000Z</time>
      </trkpt>
      <trkpt lat="44.33796" lon="2.50722">
        <ele>535.8</ele>
        <time>2024-12-28T13:02:10.000Z</time>
      </trkpt>
      <trkpt lat="44.33799" lon="2.50715">
        <ele>535.5</ele>
        <time>2024-12-28T13:02:14.000Z</time>
      </trkpt>
      <trkpt lat="44.33802" lon="2.50709">
        <ele>535.2</ele>
        <time>2024-12-28T13:02:18.000Z</time>
      </trkpt>
      <trkpt lat="44.33804" lon="2.50702">
        <ele>534.9</ele>
        <time>2024-12-28T13:02:22.000Z</time>
      </trkpt>
      <trkpt lat="44.33807" lon="2.50697">
        <ele>534.6</ele>
        <time>2024-12-28T13:02:26.000Z</time>
      </trkpt>
      <trkpt lat="44.33809" lon="2.5069">
        <ele>534.3</ele>
        <time>2024-12-28T13:02:31.000Z</time>
      </trkpt>
      <trkpt lat="44.33812" lon="2.50684">
        <ele>534.1</ele>
        <time>2024-12-28T13:02:35.000Z</time>
      </trkpt>
      <trkpt lat="44.33813" lon="2.50677">
        <ele>533.8</ele>
        <time>2024-12-28T13:02:40.000Z</time>
      </trkpt>
      <trkpt lat="44.33815" lon="2.50671">
        <ele>533.7</ele>
        <time>2024-12-28T13:02:45.000Z</time>
      </trkpt>
      <trkpt lat="44.33817" lon="2.50666">
        <ele>533.7</ele>
        <time>2024-12-28T13:02:50.000Z</time>
      </trkpt>
      <trkpt lat="44.3382" lon="2.5066">
        <ele>533.7</ele>
        <time>2024-12-28T13:02:55.000Z</time>
      </trkpt>
      <trkpt lat="44.33824" lon="2.50654">
        <ele>533.6</ele>
        <time>2024-12-28T13:02:59.000Z</time>
      </trkpt>
      <trkpt lat="44.33827" lon="2.50649">
        <ele>533.5</ele>
        <time>2024-12-28T13:03:04.000Z</time>
      </trkpt>
      <trkpt lat="44.3383" lon="2.50643">
        <ele>533.3</ele>
        <time>2024-12-28T13:03:07.000Z</time>
      </trkpt>
      <trkpt lat="44.33833" lon="2.50636">
        <ele>533.1</ele>
        <time>2024-12-28T13:03:11.000Z</time>
      </trkpt>
      <trkpt lat="44.33835" lon="2.5063">
        <ele>532.6</ele>
        <time>2024-12-28T13:03:15.000Z</time>
      </trkpt>
      <trkpt lat="44.33832" lon="2.50623">
        <ele>532.1</ele>
        <time>2024-12-28T13:03:20.000Z</time>
      </trkpt>
      <trkpt lat="44.33831" lon="2.50616">
        <ele>531.7</ele>
        <time>2024-12-28T13:03:26.000Z</time>
      </trkpt>
      <trkpt lat="44.33829" lon="2.5061">
        <ele>530.6</ele>
        <time>2024-12-28T13:03:45.000Z</time>
      </trkpt>
      <trkpt lat="44.33828" lon="2.50603">
        <ele>530.2</ele>
        <time>2024-12-28T13:03:50.000Z</time>
      </trkpt>
      <trkpt lat="44.33829" lon="2.50596">
        <ele>529.8</ele>
        <time>2024-12-28T13:03:55.000Z</time>
      </trkpt>
      <trkpt lat="44.3383" lon="2.50589">
        <ele>529.1</ele>
        <time>2024-12-28T13:04:01.000Z</time>
      </trkpt>
      <trkpt lat="44.33832" lon="2.50583">
        <ele>528.5</ele>
        <time>2024-12-28T13:04:06.000Z</time>
      </trkpt>
      <trkpt lat="44.33835" lon="2.50577">
        <ele>528.1</ele>
        <time>2024-12-28T13:04:11.000Z</time>
      </trkpt>
      <trkpt lat="44.33838" lon="2.50572">
        <ele>527.6</ele>
        <time>2024-12-28T13:04:16.000Z</time>
      </trkpt>
      <trkpt lat="44.33841" lon="2.50566">
        <ele>527.2</ele>
        <time>2024-12-28T13:04:21.000Z</time>
      </trkpt>
      <trkpt lat="44.33844" lon="2.50559">
        <ele>526.9</ele>
        <time>2024-12-28T13:04:26.000Z</time>
      </trkpt>
      <trkpt lat="44.33847" lon="2.50554">
        <ele>526.8</ele>
        <time>2024-12-28T13:04:30.000Z</time>
      </trkpt>
      <trkpt lat="44.3385" lon="2.50549">
        <ele>526.8</ele>
        <time>2024-12-28T13:04:34.000Z</time>
      </trkpt>
      <trkpt lat="44.33853" lon="2.50544">
        <ele>526.8</ele>
        <time>2024-12-28T13:04:38.000Z</time>
      </trkpt>
      <trkpt lat="44.33856" lon="2.50539">
        <ele>526.8</ele>
        <time>2024-12-28T13:04:42.000Z</time>
      </trkpt>
      <trkpt lat="44.33859" lon="2.50534">
        <ele>526.8</ele>
        <time>2024-12-28T13:04:46.000Z</time>
      </trkpt>
      <trkpt lat="44.33862" lon="2.50528">
        <ele>526.7</ele>
        <time>2024-12-28T13:04:51.000Z</time>
      </trkpt>
      <trkpt lat="44.33866" lon="2.50522">
        <ele>526.7</ele>
        <time>2024-12-28T13:04:56.000Z</time>
      </trkpt>
      <trkpt lat="44.33869" lon="2.50518">
        <ele>526.7</ele>
        <time>2024-12-28T13:05:00.000Z</time>
      </trkpt>
      <trkpt lat="44.33873" lon="2.50513">
        <ele>526.7</ele>
        <time>2024-12-28T13:05:04.000Z</time>
      </trkpt>
      <trkpt lat="44.33876" lon="2.50508">
        <ele>526.7</ele>
        <time>2024-12-28T13:05:09.000Z</time>
      </trkpt>
      <trkpt lat="44.33878" lon="2.50501">
        <ele>526.7</ele>
        <time>2024-12-28T13:05:16.000Z</time>
      </trkpt>
      <trkpt lat="44.33881" lon="2.50495">
        <ele>526.7</ele>
        <time>2024-12-28T13:05:21.000Z</time>
      </trkpt>
      <trkpt lat="44.33885" lon="2.5049">
        <ele>526.8</ele>
        <time>2024-12-28T13:05:25.000Z</time>
      </trkpt>
      <trkpt lat="44.3389" lon="2.50485">
        <ele>526.9</ele>
        <time>2024-12-28T13:05:29.000Z</time>
      </trkpt>
      <trkpt lat="44.33893" lon="2.5048">
        <ele>527.1</ele>
        <time>2024-12-28T13:05:33.000Z</time>
      </trkpt>
      <trkpt lat="44.33896" lon="2.50475">
        <ele>527.4</ele>
        <time>2024-12-28T13:05:38.000Z</time>
      </trkpt>
      <trkpt lat="44.33899" lon="2.5047">
        <ele>527.8</ele>
        <time>2024-12-28T13:05:43.000Z</time>
      </trkpt>
      <trkpt lat="44.33903" lon="2.50464">
        <ele>528.3</ele>
        <time>2024-12-28T13:05:48.000Z</time>
      </trkpt>
      <trkpt lat="44.33906" lon="2.50459">
        <ele>528.6</ele>
        <time>2024-12-28T13:05:54.000Z</time>
      </trkpt>
      <trkpt lat="44.3391" lon="2.50453">
        <ele>528.6</ele>
        <time>2024-12-28T13:05:59.000Z</time>
      </trkpt>
      <trkpt lat="44.33913" lon="2.50447">
        <ele>528.7</ele>
        <time>2024-12-28T13:06:03.000Z</time>
      </trkpt>
      <trkpt lat="44.33915" lon="2.50441">
        <ele>529</ele>
        <time>2024-12-28T13:06:07.000Z</time>
      </trkpt>
      <trkpt lat="44.33916" lon="2.50435">
        <ele>529.6</ele>
        <time>2024-12-28T13:06:12.000Z</time>
      </trkpt>
      <trkpt lat="44.33917" lon="2.50429">
        <ele>530</ele>
        <time>2024-12-28T13:06:16.000Z</time>
      </trkpt>
      <trkpt lat="44.33918" lon="2.50422">
        <ele>530.4</ele>
        <time>2024-12-28T13:06:20.000Z</time>
      </trkpt>
      <trkpt lat="44.33919" lon="2.50415">
        <ele>530.6</ele>
        <time>2024-12-28T13:06:25.000Z</time>
      </trkpt>
      <trkpt lat="44.3392" lon="2.50408">
        <ele>530.7</ele>
        <time>2024-12-28T13:06:29.000Z</time>
      </trkpt>
      <trkpt lat="44.3392" lon="2.50401">
        <ele>530.7</ele>
        <time>2024-12-28T13:06:33.000Z</time>
      </trkpt>
      <trkpt lat="44.3392" lon="2.50395">
        <ele>530.8</ele>
        <time>2024-12-28T13:06:37.000Z</time>
      </trkpt>
      <trkpt lat="44.33919" lon="2.50387">
        <ele>531</ele>
        <time>2024-12-28T13:06:42.000Z</time>
      </trkpt>
      <trkpt lat="44.33918" lon="2.50381">
        <ele>531.2</ele>
        <time>2024-12-28T13:06:46.000Z</time>
      </trkpt>
      <trkpt lat="44.33916" lon="2.50375">
        <ele>531.5</ele>
        <time>2024-12-28T13:06:50.000Z</time>
      </trkpt>
      <trkpt lat="44.33914" lon="2.50369">
        <ele>531.7</ele>
        <time>2024-12-28T13:06:54.000Z</time>
      </trkpt>
      <trkpt lat="44.33913" lon="2.50361">
        <ele>532</ele>
        <time>2024-12-28T13:06:59.000Z</time>
      </trkpt>
      <trkpt lat="44.33911" lon="2.50355">
        <ele>532.1</ele>
        <time>2024-12-28T13:07:03.000Z</time>
      </trkpt>
      <trkpt lat="44.33911" lon="2.5035">
        <ele>532.6</ele>
        <time>2024-12-28T13:07:09.100Z</time>
      </trkpt>
      <trkpt lat="44.33911" lon="2.50347">
        <ele>533.3</ele>
        <time>2024-12-28T13:07:16.000Z</time>
      </trkpt>
      <trkpt lat="44.33911" lon="2.50346">
        <ele>533.3</ele>
        <time>2024-12-28T13:07:17.000Z</time>
      </trkpt>
      <trkpt lat="44.33911" lon="2.50346">
        <ele>533.4</ele>
        <time>2024-12-28T13:07:18.000Z</time>
      </trkpt>
      <trkpt lat="44.33911" lon="2.50345">
        <ele>533.6</ele>
        <time>2024-12-28T13:07:20.100Z</time>
      </trkpt>
      <trkpt lat="44.33911" lon="2.50343">
        <ele>534.3</ele>
        <time>2024-12-28T13:08:16.000Z</time>
      </trkpt>
      <trkpt lat="44.33911" lon="2.50342">
        <ele>534.3</ele>
        <time>2024-12-28T13:08:17.000Z</time>
      </trkpt>
      <trkpt lat="44.33909" lon="2.50335">
        <ele>534.2</ele>
        <time>2024-12-28T13:08:23.000Z</time>
      </trkpt>
      <trkpt lat="44.33908" lon="2.50328">
        <ele>534.2</ele>
        <time>2024-12-28T13:08:31.000Z</time>
      </trkpt>
      <trkpt lat="44.33907" lon="2.50322">
        <ele>534.2</ele>
        <time>2024-12-28T13:08:36.000Z</time>
      </trkpt>
      <trkpt lat="44.33907" lon="2.50315">
        <ele>534</ele>
        <time>2024-12-28T13:08:41.000Z</time>
      </trkpt>
      <trkpt lat="44.33905" lon="2.50307">
        <ele>533.8</ele>
        <time>2024-12-28T13:08:46.000Z</time>
      </trkpt>
      <trkpt lat="44.33905" lon="2.503">
        <ele>533.5</ele>
        <time>2024-12-28T13:08:50.000Z</time>
      </trkpt>
      <trkpt lat="44.33903" lon="2.50294">
        <ele>533</ele>
        <time>2024-12-28T13:08:55.000Z</time>
      </trkpt>
      <trkpt lat="44.33901" lon="2.50288">
        <ele>532.4</ele>
        <time>2024-12-28T13:08:59.000Z</time>
      </trkpt>
      <trkpt lat="44.339" lon="2.50281">
        <ele>531.7</ele>
        <time>2024-12-28T13:09:04.000Z</time>
      </trkpt>
      <trkpt lat="44.33899" lon="2.50275">
        <ele>531.3</ele>
        <time>2024-12-28T13:09:08.000Z</time>
      </trkpt>
      <trkpt lat="44.33897" lon="2.50268">
        <ele>530.5</ele>
        <time>2024-12-28T13:09:13.000Z</time>
      </trkpt>
      <trkpt lat="44.33897" lon="2.50261">
        <ele>529.4</ele>
        <time>2024-12-28T13:09:18.000Z</time>
      </trkpt>
      <trkpt lat="44.33896" lon="2.50253">
        <ele>528.1</ele>
        <time>2024-12-28T13:09:23.000Z</time>
      </trkpt>
      <trkpt lat="44.33896" lon="2.50246">
        <ele>527.2</ele>
        <time>2024-12-28T13:09:27.000Z</time>
      </trkpt>
      <trkpt lat="44.33897" lon="2.50239">
        <ele>526.5</ele>
        <time>2024-12-28T13:09:32.000Z</time>
      </trkpt>
      <trkpt lat="44.33897" lon="2.50232">
        <ele>525.9</ele>
        <time>2024-12-28T13:09:37.000Z</time>
      </trkpt>
      <trkpt lat="44.33898" lon="2.50225">
        <ele>525.5</ele>
        <time>2024-12-28T13:09:42.000Z</time>
      </trkpt>
      <trkpt lat="44.33897" lon="2.50219">
        <ele>524.5</ele>
        <time>2024-12-28T13:09:47.000Z</time>
      </trkpt>
      <trkpt lat="44.33897" lon="2.50212">
        <ele>523.2</ele>
        <time>2024-12-28T13:09:52.000Z</time>
      </trkpt>
      <trkpt lat="44.33897" lon="2.50206">
        <ele>522.3</ele>
        <time>2024-12-28T13:09:56.000Z</time>
      </trkpt>
      <trkpt lat="44.33897" lon="2.50199">
        <ele>521.3</ele>
        <time>2024-12-28T13:10:01.000Z</time>
      </trkpt>
      <trkpt lat="44.33897" lon="2.50192">
        <ele>520.6</ele>
        <time>2024-12-28T13:10:06.000Z</time>
      </trkpt>
      <trkpt lat="44.33896" lon="2.50186">
        <ele>519.9</ele>
        <time>2024-12-28T13:10:11.000Z</time>
      </trkpt>
      <trkpt lat="44.33895" lon="2.50179">
        <ele>519.1</ele>
        <time>2024-12-28T13:10:18.000Z</time>
      </trkpt>
      <trkpt lat="44.33896" lon="2.50171">
        <ele>518.6</ele>
        <time>2024-12-28T13:10:23.000Z</time>
      </trkpt>
      <trkpt lat="44.33896" lon="2.50165">
        <ele>518.2</ele>
        <time>2024-12-28T13:10:28.000Z</time>
      </trkpt>
      <trkpt lat="44.33897" lon="2.50158">
        <ele>517.7</ele>
        <time>2024-12-28T13:10:34.000Z</time>
      </trkpt>
      <trkpt lat="44.33897" lon="2.50152">
        <ele>516.7</ele>
        <time>2024-12-28T13:10:43.000Z</time>
      </trkpt>
      <trkpt lat="44.33897" lon="2.50145">
        <ele>516.2</ele>
        <time>2024-12-28T13:10:48.000Z</time>
      </trkpt>
      <trkpt lat="44.33898" lon="2.50137">
        <ele>515.9</ele>
        <time>2024-12-28T13:10:53.000Z</time>
      </trkpt>
      <trkpt lat="44.33898" lon="2.5013">
        <ele>515.7</ele>
        <time>2024-12-28T13:10:58.000Z</time>
      </trkpt>
      <trkpt lat="44.33897" lon="2.50123">
        <ele>515.5</ele>
        <time>2024-12-28T13:11:04.000Z</time>
      </trkpt>
      <trkpt lat="44.33892" lon="2.50119">
        <ele>515.1</ele>
        <time>2024-12-28T13:11:09.000Z</time>
      </trkpt>
      <trkpt lat="44.33887" lon="2.50117">
        <ele>514.4</ele>
        <time>2024-12-28T13:11:15.000Z</time>
      </trkpt>
      <trkpt lat="44.33883" lon="2.50116">
        <ele>513.7</ele>
        <time>2024-12-28T13:11:20.000Z</time>
      </trkpt>
      <trkpt lat="44.33879" lon="2.50114">
        <ele>513.1</ele>
        <time>2024-12-28T13:11:25.000Z</time>
      </trkpt>
      <trkpt lat="44.33874" lon="2.50112">
        <ele>512.5</ele>
        <time>2024-12-28T13:11:29.000Z</time>
      </trkpt>
      <trkpt lat="44.3387" lon="2.50107">
        <ele>511.9</ele>
        <time>2024-12-28T13:11:33.000Z</time>
      </trkpt>
      <trkpt lat="44.33866" lon="2.50103">
        <ele>511.3</ele>
        <time>2024-12-28T13:11:39.000Z</time>
      </trkpt>
      <trkpt lat="44.33863" lon="2.50096">
        <ele>510.7</ele>
        <time>2024-12-28T13:11:44.000Z</time>
      </trkpt>
      <trkpt lat="44.3386" lon="2.5009">
        <ele>509.9</ele>
        <time>2024-12-28T13:11:49.000Z</time>
      </trkpt>
      <trkpt lat="44.33857" lon="2.50083">
        <ele>509.1</ele>
        <time>2024-12-28T13:11:53.000Z</time>
      </trkpt>
      <trkpt lat="44.33854" lon="2.50078">
        <ele>508.3</ele>
        <time>2024-12-28T13:11:57.000Z</time>
      </trkpt>
      <trkpt lat="44.33853" lon="2.50071">
        <ele>507.4</ele>
        <time>2024-12-28T13:12:01.000Z</time>
      </trkpt>
      <trkpt lat="44.33851" lon="2.50065">
        <ele>506.6</ele>
        <time>2024-12-28T13:12:05.000Z</time>
      </trkpt>
      <trkpt lat="44.33849" lon="2.50057">
        <ele>506.1</ele>
        <time>2024-12-28T13:12:09.000Z</time>
      </trkpt>
      <trkpt lat="44.33847" lon="2.50051">
        <ele>505.7</ele>
        <time>2024-12-28T13:12:15.000Z</time>
      </trkpt>
      <trkpt lat="44.33845" lon="2.50045">
        <ele>505.5</ele>
        <time>2024-12-28T13:12:20.000Z</time>
      </trkpt>
      <trkpt lat="44.33842" lon="2.50039">
        <ele>505.3</ele>
        <time>2024-12-28T13:12:24.000Z</time>
      </trkpt>
      <trkpt lat="44.3384" lon="2.50034">
        <ele>504.7</ele>
        <time>2024-12-28T13:12:31.000Z</time>
      </trkpt>
      <trkpt lat="44.33837" lon="2.50028">
        <ele>504.2</ele>
        <time>2024-12-28T13:12:36.000Z</time>
      </trkpt>
      <trkpt lat="44.33835" lon="2.50021">
        <ele>503.8</ele>
        <time>2024-12-28T13:12:40.000Z</time>
      </trkpt>
      <trkpt lat="44.33832" lon="2.50015">
        <ele>503.4</ele>
        <time>2024-12-28T13:12:44.000Z</time>
      </trkpt>
      <trkpt lat="44.33828" lon="2.50009">
        <ele>502.9</ele>
        <time>2024-12-28T13:12:48.000Z</time>
      </trkpt>
      <trkpt lat="44.33825" lon="2.50004">
        <ele>502.3</ele>
        <time>2024-12-28T13:12:55.000Z</time>
      </trkpt>
      <trkpt lat="44.33821" lon="2.5">
        <ele>502</ele>
        <time>2024-12-28T13:12:59.000Z</time>
      </trkpt>
      <trkpt lat="44.33818" lon="2.49995">
        <ele>501.6</ele>
        <time>2024-12-28T13:13:03.000Z</time>
      </trkpt>
      <trkpt lat="44.33814" lon="2.4999">
        <ele>501.2</ele>
        <time>2024-12-28T13:13:07.000Z</time>
      </trkpt>
      <trkpt lat="44.3381" lon="2.49987">
        <ele>500.9</ele>
        <time>2024-12-28T13:13:11.000Z</time>
      </trkpt>
      <trkpt lat="44.33806" lon="2.49983">
        <ele>500.6</ele>
        <time>2024-12-28T13:13:15.000Z</time>
      </trkpt>
      <trkpt lat="44.33802" lon="2.4998">
        <ele>500.4</ele>
        <time>2024-12-28T13:13:18.000Z</time>
      </trkpt>
      <trkpt lat="44.33798" lon="2.49978">
        <ele>500.3</ele>
        <time>2024-12-28T13:13:21.000Z</time>
      </trkpt>
      <trkpt lat="44.33794" lon="2.49975">
        <ele>500.2</ele>
        <time>2024-12-28T13:13:27.000Z</time>
      </trkpt>
      <trkpt lat="44.33794" lon="2.49975">
        <ele>500.2</ele>
        <time>2024-12-28T13:13:27.100Z</time>
      </trkpt>
      <trkpt lat="44.33794" lon="2.49975">
        <ele>500.1</ele>
        <time>2024-12-28T13:13:30.000Z</time>
      </trkpt>
      <trkpt lat="44.33794" lon="2.49975">
        <ele>500.1</ele>
        <time>2024-12-28T13:13:31.000Z</time>
      </trkpt>
      <trkpt lat="44.33794" lon="2.49975">
        <ele>500</ele>
        <time>2024-12-28T13:13:32.000Z</time>
      </trkpt>
      <trkpt lat="44.33794" lon="2.49975">
        <ele>500</ele>
        <time>2024-12-28T13:13:32.099Z</time>
      </trkpt>
      <trkpt lat="44.33793" lon="2.49973">
        <ele>499.7</ele>
        <time>2024-12-28T13:14:01.000Z</time>
      </trkpt>
      <trkpt lat="44.33794" lon="2.49973">
        <ele>499.7</ele>
        <time>2024-12-28T13:14:02.000Z</time>
      </trkpt>
      <trkpt lat="44.33794" lon="2.49973">
        <ele>499.7</ele>
        <time>2024-12-28T13:14:03.000Z</time>
      </trkpt>
      <trkpt lat="44.33794" lon="2.49972">
        <ele>499.7</ele>
        <time>2024-12-28T13:14:05.100Z</time>
      </trkpt>
      <trkpt lat="44.33794" lon="2.49971">
        <ele>499.7</ele>
        <time>2024-12-28T13:14:11.000Z</time>
      </trkpt>
      <trkpt lat="44.33793" lon="2.49971">
        <ele>499.7</ele>
        <time>2024-12-28T13:14:12.000Z</time>
      </trkpt>
      <trkpt lat="44.33792" lon="2.49971">
        <ele>499.7</ele>
        <time>2024-12-28T13:14:13.000Z</time>
      </trkpt>
      <trkpt lat="44.33788" lon="2.49969">
        <ele>499.6</ele>
        <time>2024-12-28T13:14:18.000Z</time>
      </trkpt>
      <trkpt lat="44.33783" lon="2.49967">
        <ele>499.5</ele>
        <time>2024-12-28T13:14:27.000Z</time>
      </trkpt>
      <trkpt lat="44.33778" lon="2.49965">
        <ele>499.4</ele>
        <time>2024-12-28T13:14:33.000Z</time>
      </trkpt>
      <trkpt lat="44.33774" lon="2.49961">
        <ele>499.3</ele>
        <time>2024-12-28T13:14:37.000Z</time>
      </trkpt>
      <trkpt lat="44.33769" lon="2.49957">
        <ele>499.1</ele>
        <time>2024-12-28T13:14:40.000Z</time>
      </trkpt>
      <trkpt lat="44.33764" lon="2.49954">
        <ele>498.6</ele>
        <time>2024-12-28T13:14:44.000Z</time>
      </trkpt>
      <trkpt lat="44.3376" lon="2.4995">
        <ele>498.1</ele>
        <time>2024-12-28T13:14:48.000Z</time>
      </trkpt>
      <trkpt lat="44.33756" lon="2.49944">
        <ele>497.4</ele>
        <time>2024-12-28T13:14:54.000Z</time>
      </trkpt>
      <trkpt lat="44.33752" lon="2.4994">
        <ele>497</ele>
        <time>2024-12-28T13:14:59.000Z</time>
      </trkpt>
      <trkpt lat="44.33748" lon="2.49936">
        <ele>496.8</ele>
        <time>2024-12-28T13:15:09.000Z</time>
      </trkpt>
      <trkpt lat="44.33744" lon="2.49933">
        <ele>496.8</ele>
        <time>2024-12-28T13:15:15.000Z</time>
      </trkpt>
      <trkpt lat="44.33739" lon="2.4993">
        <ele>496.9</ele>
        <time>2024-12-28T13:15:20.000Z</time>
      </trkpt>
      <trkpt lat="44.33734" lon="2.49929">
        <ele>496.9</ele>
        <time>2024-12-28T13:15:33.000Z</time>
      </trkpt>
      <trkpt lat="44.33729" lon="2.49927">
        <ele>496.9</ele>
        <time>2024-12-28T13:15:40.000Z</time>
      </trkpt>
      <trkpt lat="44.33725" lon="2.49926">
        <ele>496.6</ele>
        <time>2024-12-28T13:15:50.000Z</time>
      </trkpt>
      <trkpt lat="44.3372" lon="2.49923">
        <ele>496.1</ele>
        <time>2024-12-28T13:15:58.000Z</time>
      </trkpt>
      <trkpt lat="44.33715" lon="2.4992">
        <ele>495.5</ele>
        <time>2024-12-28T13:16:07.000Z</time>
      </trkpt>
      <trkpt lat="44.3371" lon="2.49916">
        <ele>495.3</ele>
        <time>2024-12-28T13:16:13.000Z</time>
      </trkpt>
      <trkpt lat="44.33707" lon="2.4991">
        <ele>495.1</ele>
        <time>2024-12-28T13:16:18.000Z</time>
      </trkpt>
      <trkpt lat="44.33703" lon="2.49903">
        <ele>494.9</ele>
        <time>2024-12-28T13:16:24.000Z</time>
      </trkpt>
      <trkpt lat="44.33699" lon="2.49899">
        <ele>494.8</ele>
        <time>2024-12-28T13:16:28.000Z</time>
      </trkpt>
      <trkpt lat="44.33695" lon="2.49894">
        <ele>494.6</ele>
        <time>2024-12-28T13:16:34.000Z</time>
      </trkpt>
      <trkpt lat="44.33691" lon="2.49889">
        <ele>494.4</ele>
        <time>2024-12-28T13:16:41.000Z</time>
      </trkpt>
      <trkpt lat="44.33688" lon="2.49884">
        <ele>494</ele>
        <time>2024-12-28T13:16:49.000Z</time>
      </trkpt>
      <trkpt lat="44.33686" lon="2.49879">
        <ele>493.7</ele>
        <time>2024-12-28T13:16:55.099Z</time>
      </trkpt>
      <trkpt lat="44.33686" lon="2.49877">
        <ele>493.5</ele>
        <time>2024-12-28T13:17:06.000Z</time>
      </trkpt>
      <trkpt lat="44.33686" lon="2.49877">
        <ele>493.5</ele>
        <time>2024-12-28T13:17:07.000Z</time>
      </trkpt>
      <trkpt lat="44.33686" lon="2.49877">
        <ele>493.5</ele>
        <time>2024-12-28T13:17:07.100Z</time>
      </trkpt>
      <trkpt lat="44.33684" lon="2.49874">
        <ele>493.5</ele>
        <time>2024-12-28T13:17:13.000Z</time>
      </trkpt>
      <trkpt lat="44.33683" lon="2.49874">
        <ele>493.6</ele>
        <time>2024-12-28T13:17:14.000Z</time>
      </trkpt>
      <trkpt lat="44.33683" lon="2.49874">
        <ele>493.6</ele>
        <time>2024-12-28T13:17:14.100Z</time>
      </trkpt>
      <trkpt lat="44.33681" lon="2.49868">
        <ele>493.7</ele>
        <time>2024-12-28T13:17:20.000Z</time>
      </trkpt>
      <trkpt lat="44.33681" lon="2.49867">
        <ele>493.7</ele>
        <time>2024-12-28T13:17:21.000Z</time>
      </trkpt>
      <trkpt lat="44.33681" lon="2.49866">
        <ele>493.7</ele>
        <time>2024-12-28T13:17:22.000Z</time>
      </trkpt>
      <trkpt lat="44.33678" lon="2.49858">
        <ele>493.8</ele>
        <time>2024-12-28T13:17:27.000Z</time>
      </trkpt>
      <trkpt lat="44.33677" lon="2.49852">
        <ele>494.1</ele>
        <time>2024-12-28T13:17:31.000Z</time>
      </trkpt>
      <trkpt lat="44.33675" lon="2.49844">
        <ele>494.6</ele>
        <time>2024-12-28T13:17:35.000Z</time>
      </trkpt>
      <trkpt lat="44.33675" lon="2.49837">
        <ele>495.3</ele>
        <time>2024-12-28T13:17:39.000Z</time>
      </trkpt>
      <trkpt lat="44.33674" lon="2.49829">
        <ele>496.1</ele>
        <time>2024-12-28T13:17:44.000Z</time>
      </trkpt>
      <trkpt lat="44.33673" lon="2.49821">
        <ele>496.3</ele>
        <time>2024-12-28T13:17:49.000Z</time>
      </trkpt>
      <trkpt lat="44.33673" lon="2.49814">
        <ele>496.3</ele>
        <time>2024-12-28T13:17:54.000Z</time>
      </trkpt>
      <trkpt lat="44.33672" lon="2.49806">
        <ele>496.2</ele>
        <time>2024-12-28T13:18:00.000Z</time>
      </trkpt>
      <trkpt lat="44.33669" lon="2.498">
        <ele>496.2</ele>
        <time>2024-12-28T13:18:04.000Z</time>
      </trkpt>
      <trkpt lat="44.33665" lon="2.49794">
        <ele>496.1</ele>
        <time>2024-12-28T13:18:09.000Z</time>
      </trkpt>
      <trkpt lat="44.33661" lon="2.49788">
        <ele>496.1</ele>
        <time>2024-12-28T13:18:14.000Z</time>
      </trkpt>
      <trkpt lat="44.33658" lon="2.49785">
        <ele>496</ele>
        <time>2024-12-28T13:18:17.000Z</time>
      </trkpt>
      <trkpt lat="44.33653" lon="2.49782">
        <ele>496</ele>
        <time>2024-12-28T13:18:20.000Z</time>
      </trkpt>
      <trkpt lat="44.33649" lon="2.49777">
        <ele>495.9</ele>
        <time>2024-12-28T13:18:24.000Z</time>
      </trkpt>
      <trkpt lat="44.33647" lon="2.4977">
        <ele>495.7</ele>
        <time>2024-12-28T13:18:29.000Z</time>
      </trkpt>
      <trkpt lat="44.33644" lon="2.49765">
        <ele>495.5</ele>
        <time>2024-12-28T13:18:34.000Z</time>
      </trkpt>
      <trkpt lat="44.33642" lon="2.49759">
        <ele>495.5</ele>
        <time>2024-12-28T13:18:37.000Z</time>
      </trkpt>
      <trkpt lat="44.33639" lon="2.49753">
        <ele>495.5</ele>
        <time>2024-12-28T13:18:40.000Z</time>
      </trkpt>
      <trkpt lat="44.33636" lon="2.49747">
        <ele>495.5</ele>
        <time>2024-12-28T13:18:45.000Z</time>
      </trkpt>
      <trkpt lat="44.33632" lon="2.49742">
        <ele>495.6</ele>
        <time>2024-12-28T13:18:50.000Z</time>
      </trkpt>
      <trkpt lat="44.3363" lon="2.49735">
        <ele>495.6</ele>
        <time>2024-12-28T13:18:55.000Z</time>
      </trkpt>
      <trkpt lat="44.33627" lon="2.49729">
        <ele>495.6</ele>
        <time>2024-12-28T13:19:05.000Z</time>
      </trkpt>
      <trkpt lat="44.33625" lon="2.49723">
        <ele>495.7</ele>
        <time>2024-12-28T13:19:11.000Z</time>
      </trkpt>
      <trkpt lat="44.33625" lon="2.49716">
        <ele>496</ele>
        <time>2024-12-28T13:19:18.000Z</time>
      </trkpt>
      <trkpt lat="44.33622" lon="2.49711">
        <ele>496.4</ele>
        <time>2024-12-28T13:19:26.000Z</time>
      </trkpt>
      <trkpt lat="44.33619" lon="2.49704">
        <ele>496.4</ele>
        <time>2024-12-28T13:19:31.000Z</time>
      </trkpt>
      <trkpt lat="44.33615" lon="2.49698">
        <ele>496.5</ele>
        <time>2024-12-28T13:19:35.000Z</time>
      </trkpt>
      <trkpt lat="44.33614" lon="2.49692">
        <ele>496.6</ele>
        <time>2024-12-28T13:19:41.000Z</time>
      </trkpt>
      <trkpt lat="44.33612" lon="2.49685">
        <ele>496.7</ele>
        <time>2024-12-28T13:19:47.000Z</time>
      </trkpt>
      <trkpt lat="44.3361" lon="2.49677">
        <ele>496.8</ele>
        <time>2024-12-28T13:19:51.000Z</time>
      </trkpt>
      <trkpt lat="44.33608" lon="2.49671">
        <ele>496.9</ele>
        <time>2024-12-28T13:19:54.000Z</time>
      </trkpt>
      <trkpt lat="44.33608" lon="2.49664">
        <ele>497</ele>
        <time>2024-12-28T13:19:59.000Z</time>
      </trkpt>
      <trkpt lat="44.33606" lon="2.49657">
        <ele>497.1</ele>
        <time>2024-12-28T13:20:03.000Z</time>
      </trkpt>
      <trkpt lat="44.33605" lon="2.49649">
        <ele>497.1</ele>
        <time>2024-12-28T13:20:07.000Z</time>
      </trkpt>
      <trkpt lat="44.33604" lon="2.49642">
        <ele>497.2</ele>
        <time>2024-12-28T13:20:12.000Z</time>
      </trkpt>
      <trkpt lat="44.33603" lon="2.49635">
        <ele>497.5</ele>
        <time>2024-12-28T13:20:19.000Z</time>
      </trkpt>
      <trkpt lat="44.33603" lon="2.49631">
        <ele>498.4</ele>
        <time>2024-12-28T13:20:27.100Z</time>
      </trkpt>
      <trkpt lat="44.33604" lon="2.4963">
        <ele>499.6</ele>
        <time>2024-12-28T13:20:33.000Z</time>
      </trkpt>
      <trkpt lat="44.33604" lon="2.4963">
        <ele>499.8</ele>
        <time>2024-12-28T13:20:34.000Z</time>
      </trkpt>
      <trkpt lat="44.33604" lon="2.49623">
        <ele>501.3</ele>
        <time>2024-12-28T13:20:43.000Z</time>
      </trkpt>
      <trkpt lat="44.33606" lon="2.49617">
        <ele>502.4</ele>
        <time>2024-12-28T13:20:51.000Z</time>
      </trkpt>
      <trkpt lat="44.33608" lon="2.4961">
        <ele>502.9</ele>
        <time>2024-12-28T13:20:57.000Z</time>
      </trkpt>
      <trkpt lat="44.33609" lon="2.49603">
        <ele>503.2</ele>
        <time>2024-12-28T13:21:02.000Z</time>
      </trkpt>
      <trkpt lat="44.33612" lon="2.49598">
        <ele>503.5</ele>
        <time>2024-12-28T13:21:06.000Z</time>
      </trkpt>
      <trkpt lat="44.33614" lon="2.49592">
        <ele>503.8</ele>
        <time>2024-12-28T13:21:10.000Z</time>
      </trkpt>
      <trkpt lat="44.33617" lon="2.49586">
        <ele>504.2</ele>
        <time>2024-12-28T13:21:15.000Z</time>
      </trkpt>
      <trkpt lat="44.33618" lon="2.49579">
        <ele>504.6</ele>
        <time>2024-12-28T13:21:23.000Z</time>
      </trkpt>
      <trkpt lat="44.3362" lon="2.49573">
        <ele>505.1</ele>
        <time>2024-12-28T13:21:28.000Z</time>
      </trkpt>
      <trkpt lat="44.33622" lon="2.49566">
        <ele>505.4</ele>
        <time>2024-12-28T13:21:33.000Z</time>
      </trkpt>
      <trkpt lat="44.33622" lon="2.49564">
        <ele>505.8</ele>
        <time>2024-12-28T13:21:42.099Z</time>
      </trkpt>
      <trkpt lat="44.33622" lon="2.49564">
        <ele>505.8</ele>
        <time>2024-12-28T13:21:45.000Z</time>
      </trkpt>
      <trkpt lat="44.33622" lon="2.49564">
        <ele>505.8</ele>
        <time>2024-12-28T13:21:46.000Z</time>
      </trkpt>
      <trkpt lat="44.33622" lon="2.49564">
        <ele>505.8</ele>
        <time>2024-12-28T13:21:47.000Z</time>
      </trkpt>
      <trkpt lat="44.33622" lon="2.49564">
        <ele>505.8</ele>
        <time>2024-12-28T13:21:47.099Z</time>
      </trkpt>
      <trkpt lat="44.33622" lon="2.49564">
        <ele>505.6</ele>
        <time>2024-12-28T13:22:11.000Z</time>
      </trkpt>
      <trkpt lat="44.33622" lon="2.49564">
        <ele>505.6</ele>
        <time>2024-12-28T13:22:12.000Z</time>
      </trkpt>
      <trkpt lat="44.33622" lon="2.49564">
        <ele>505.6</ele>
        <time>2024-12-28T13:22:13.000Z</time>
      </trkpt>
      <trkpt lat="44.33622" lon="2.49564">
        <ele>505.6</ele>
        <time>2024-12-28T13:22:13.100Z</time>
      </trkpt>
      <trkpt lat="44.33622" lon="2.49564">
        <ele>505.6</ele>
        <time>2024-12-28T13:22:19.000Z</time>
      </trkpt>
      <trkpt lat="44.33621" lon="2.49564">
        <ele>505.5</ele>
        <time>2024-12-28T13:22:20.000Z</time>
      </trkpt>
      <trkpt lat="44.33621" lon="2.49564">
        <ele>505.5</ele>
        <time>2024-12-28T13:22:20.100Z</time>
      </trkpt>
      <trkpt lat="44.33622" lon="2.49561">
        <ele>505.4</ele>
        <time>2024-12-28T13:22:24.000Z</time>
      </trkpt>
      <trkpt lat="44.33622" lon="2.49561">
        <ele>505.4</ele>
        <time>2024-12-28T13:22:25.000Z</time>
      </trkpt>
      <trkpt lat="44.33623" lon="2.49554">
        <ele>505.2</ele>
        <time>2024-12-28T13:22:32.000Z</time>
      </trkpt>
      <trkpt lat="44.33623" lon="2.49547">
        <ele>505</ele>
        <time>2024-12-28T13:22:36.000Z</time>
      </trkpt>
      <trkpt lat="44.33625" lon="2.49541">
        <ele>505</ele>
        <time>2024-12-28T13:22:40.000Z</time>
      </trkpt>
      <trkpt lat="44.33625" lon="2.49535">
        <ele>505.3</ele>
        <time>2024-12-28T13:22:44.000Z</time>
      </trkpt>
      <trkpt lat="44.33625" lon="2.49528">
        <ele>505.5</ele>
        <time>2024-12-28T13:22:48.000Z</time>
      </trkpt>
      <trkpt lat="44.33626" lon="2.49521">
        <ele>505.8</ele>
        <time>2024-12-28T13:22:52.000Z</time>
      </trkpt>
      <trkpt lat="44.33626" lon="2.49514">
        <ele>505.9</ele>
        <time>2024-12-28T13:22:56.000Z</time>
      </trkpt>
      <trkpt lat="44.33628" lon="2.49508">
        <ele>506</ele>
        <time>2024-12-28T13:23:00.000Z</time>
      </trkpt>
      <trkpt lat="44.33627" lon="2.49502">
        <ele>505.9</ele>
        <time>2024-12-28T13:23:09.100Z</time>
      </trkpt>
      <trkpt lat="44.33627" lon="2.49499">
        <ele>505.9</ele>
        <time>2024-12-28T13:23:13.000Z</time>
      </trkpt>
      <trkpt lat="44.33627" lon="2.49498">
        <ele>505.8</ele>
        <time>2024-12-28T13:23:14.000Z</time>
      </trkpt>
      <trkpt lat="44.33627" lon="2.49497">
        <ele>505.8</ele>
        <time>2024-12-28T13:23:15.000Z</time>
      </trkpt>
      <trkpt lat="44.33631" lon="2.49492">
        <ele>505.8</ele>
        <time>2024-12-28T13:23:20.000Z</time>
      </trkpt>
      <trkpt lat="44.33634" lon="2.49487">
        <ele>505.6</ele>
        <time>2024-12-28T13:23:24.000Z</time>
      </trkpt>
      <trkpt lat="44.33638" lon="2.49483">
        <ele>505.5</ele>
        <time>2024-12-28T13:23:28.000Z</time>
      </trkpt>
      <trkpt lat="44.33642" lon="2.49479">
        <ele>505.4</ele>
        <time>2024-12-28T13:23:32.000Z</time>
      </trkpt>
      <trkpt lat="44.33645" lon="2.49475">
        <ele>505.4</ele>
        <time>2024-12-28T13:23:36.000Z</time>
      </trkpt>
      <trkpt lat="44.33649" lon="2.4947">
        <ele>505.3</ele>
        <time>2024-12-28T13:23:40.000Z</time>
      </trkpt>
      <trkpt lat="44.33653" lon="2.49466">
        <ele>505.1</ele>
        <time>2024-12-28T13:23:44.000Z</time>
      </trkpt>
      <trkpt lat="44.33657" lon="2.49462">
        <ele>505.1</ele>
        <time>2024-12-28T13:23:48.000Z</time>
      </trkpt>
      <trkpt lat="44.33661" lon="2.49459">
        <ele>505</ele>
        <time>2024-12-28T13:23:53.000Z</time>
      </trkpt>
      <trkpt lat="44.33664" lon="2.49454">
        <ele>504.8</ele>
        <time>2024-12-28T13:23:58.000Z</time>
      </trkpt>
      <trkpt lat="44.33667" lon="2.49448">
        <ele>504.7</ele>
        <time>2024-12-28T13:24:03.000Z</time>
      </trkpt>
      <trkpt lat="44.33671" lon="2.49443">
        <ele>504.5</ele>
        <time>2024-12-28T13:24:09.000Z</time>
      </trkpt>
      <trkpt lat="44.33675" lon="2.49439">
        <ele>504.4</ele>
        <time>2024-12-28T13:24:13.000Z</time>
      </trkpt>
      <trkpt lat="44.33679" lon="2.49435">
        <ele>504.4</ele>
        <time>2024-12-28T13:24:17.000Z</time>
      </trkpt>
      <trkpt lat="44.33683" lon="2.4943">
        <ele>504.2</ele>
        <time>2024-12-28T13:24:22.000Z</time>
      </trkpt>
      <trkpt lat="44.33687" lon="2.49427">
        <ele>503.9</ele>
        <time>2024-12-28T13:24:26.000Z</time>
      </trkpt>
      <trkpt lat="44.33692" lon="2.49423">
        <ele>503.6</ele>
        <time>2024-12-28T13:24:30.000Z</time>
      </trkpt>
      <trkpt lat="44.33696" lon="2.49418">
        <ele>503.3</ele>
        <time>2024-12-28T13:24:34.000Z</time>
      </trkpt>
      <trkpt lat="44.33699" lon="2.49414">
        <ele>503</ele>
        <time>2024-12-28T13:24:38.000Z</time>
      </trkpt>
      <trkpt lat="44.33703" lon="2.49409">
        <ele>502.5</ele>
        <time>2024-12-28T13:24:43.000Z</time>
      </trkpt>
      <trkpt lat="44.33706" lon="2.49404">
        <ele>502.1</ele>
        <time>2024-12-28T13:24:48.000Z</time>
      </trkpt>
      <trkpt lat="44.3371" lon="2.49399">
        <ele>501.9</ele>
        <time>2024-12-28T13:24:52.000Z</time>
      </trkpt>
      <trkpt lat="44.33714" lon="2.49396">
        <ele>501.6</ele>
        <time>2024-12-28T13:24:57.000Z</time>
      </trkpt>
      <trkpt lat="44.33717" lon="2.49391">
        <ele>500.9</ele>
        <time>2024-12-28T13:25:03.000Z</time>
      </trkpt>
      <trkpt lat="44.3372" lon="2.49386">
        <ele>500.1</ele>
        <time>2024-12-28T13:25:09.000Z</time>
      </trkpt>
      <trkpt lat="44.33721" lon="2.49385">
        <ele>499.9</ele>
        <time>2024-12-28T13:25:12.100Z</time>
      </trkpt>
      <trkpt lat="44.33721" lon="2.49385">
        <ele>499.7</ele>
        <time>2024-12-28T13:25:15.000Z</time>
      </trkpt>
      <trkpt lat="44.33721" lon="2.49384">
        <ele>499.6</ele>
        <time>2024-12-28T13:25:16.000Z</time>
      </trkpt>
      <trkpt lat="44.33721" lon="2.49384">
        <ele>499.6</ele>
        <time>2024-12-28T13:25:17.000Z</time>
      </trkpt>
      <trkpt lat="44.33721" lon="2.49384">
        <ele>499.5</ele>
        <time>2024-12-28T13:25:19.100Z</time>
      </trkpt>
      <trkpt lat="44.33723" lon="2.49381">
        <ele>499.3</ele>
        <time>2024-12-28T13:25:26.000Z</time>
      </trkpt>
      <trkpt lat="44.33723" lon="2.4938">
        <ele>499.3</ele>
        <time>2024-12-28T13:25:27.000Z</time>
      </trkpt>
      <trkpt lat="44.33723" lon="2.4938">
        <ele>499.2</ele>
        <time>2024-12-28T13:25:28.000Z</time>
      </trkpt>
      <trkpt lat="44.33723" lon="2.4938">
        <ele>499.2</ele>
        <time>2024-12-28T13:25:30.100Z</time>
      </trkpt>
      <trkpt lat="44.33723" lon="2.49379">
        <ele>499</ele>
        <time>2024-12-28T13:25:40.000Z</time>
      </trkpt>
      <trkpt lat="44.33723" lon="2.49379">
        <ele>499</ele>
        <time>2024-12-28T13:25:41.000Z</time>
      </trkpt>
      <trkpt lat="44.33723" lon="2.49379">
        <ele>498.9</ele>
        <time>2024-12-28T13:25:42.000Z</time>
      </trkpt>
      <trkpt lat="44.33723" lon="2.49379">
        <ele>498.9</ele>
        <time>2024-12-28T13:25:42.099Z</time>
      </trkpt>
      <trkpt lat="44.33724" lon="2.49379">
        <ele>498.7</ele>
        <time>2024-12-28T13:25:46.000Z</time>
      </trkpt>
      <trkpt lat="44.33725" lon="2.49379">
        <ele>498.6</ele>
        <time>2024-12-28T13:25:47.000Z</time>
      </trkpt>
      <trkpt lat="44.33729" lon="2.49375">
        <ele>497.9</ele>
        <time>2024-12-28T13:25:52.000Z</time>
      </trkpt>
      <trkpt lat="44.33733" lon="2.49371">
        <ele>497.3</ele>
        <time>2024-12-28T13:25:56.000Z</time>
      </trkpt>
      <trkpt lat="44.33737" lon="2.49367">
        <ele>496.8</ele>
        <time>2024-12-28T13:26:00.000Z</time>
      </trkpt>
      <trkpt lat="44.33741" lon="2.49363">
        <ele>496.5</ele>
        <time>2024-12-28T13:26:04.000Z</time>
      </trkpt>
      <trkpt lat="44.33745" lon="2.49358">
        <ele>496.3</ele>
        <time>2024-12-28T13:26:08.000Z</time>
      </trkpt>
      <trkpt lat="44.33749" lon="2.49354">
        <ele>495.9</ele>
        <time>2024-12-28T13:26:13.000Z</time>
      </trkpt>
      <trkpt lat="44.33752" lon="2.4935">
        <ele>494.8</ele>
        <time>2024-12-28T13:26:22.100Z</time>
      </trkpt>
      <trkpt lat="44.33755" lon="2.4935">
        <ele>494.1</ele>
        <time>2024-12-28T13:26:28.000Z</time>
      </trkpt>
      <trkpt lat="44.33756" lon="2.4935">
        <ele>494</ele>
        <time>2024-12-28T13:26:29.000Z</time>
      </trkpt>
      <trkpt lat="44.3376" lon="2.49351">
        <ele>493.4</ele>
        <time>2024-12-28T13:26:34.000Z</time>
      </trkpt>
      <trkpt lat="44.33765" lon="2.4935">
        <ele>492.8</ele>
        <time>2024-12-28T13:26:40.000Z</time>
      </trkpt>
      <trkpt lat="44.3377" lon="2.49353">
        <ele>492.3</ele>
        <time>2024-12-28T13:26:46.000Z</time>
      </trkpt>
      <trkpt lat="44.33773" lon="2.49357">
        <ele>491.9</ele>
        <time>2024-12-28T13:26:52.000Z</time>
      </trkpt>
      <trkpt lat="44.33773" lon="2.49357">
        <ele>491.7</ele>
        <time>2024-12-28T13:26:55.099Z</time>
      </trkpt>
      <trkpt lat="44.33773" lon="2.49358">
        <ele>491.6</ele>
        <time>2024-12-28T13:26:59.000Z</time>
      </trkpt>
      <trkpt lat="44.33773" lon="2.49359">
        <ele>491.6</ele>
        <time>2024-12-28T13:27:00.000Z</time>
      </trkpt>
      <trkpt lat="44.33776" lon="2.49365">
        <ele>491.4</ele>
        <time>2024-12-28T13:27:04.000Z</time>
      </trkpt>
      <trkpt lat="44.3378" lon="2.49371">
        <ele>491</ele>
        <time>2024-12-28T13:27:09.000Z</time>
      </trkpt>
      <trkpt lat="44.33783" lon="2.49377">
        <ele>490.6</ele>
        <time>2024-12-28T13:27:14.000Z</time>
      </trkpt>
      <trkpt lat="44.33787" lon="2.49381">
        <ele>490.3</ele>
        <time>2024-12-28T13:27:19.000Z</time>
      </trkpt>
      <trkpt lat="44.3379" lon="2.49386">
        <ele>490.1</ele>
        <time>2024-12-28T13:27:23.000Z</time>
      </trkpt>
      <trkpt lat="44.33794" lon="2.4939">
        <ele>489.9</ele>
        <time>2024-12-28T13:27:27.000Z</time>
      </trkpt>
      <trkpt lat="44.33797" lon="2.49396">
        <ele>489.7</ele>
        <time>2024-12-28T13:27:31.000Z</time>
      </trkpt>
      <trkpt lat="44.338" lon="2.49401">
        <ele>489.5</ele>
        <time>2024-12-28T13:27:35.000Z</time>
      </trkpt>
      <trkpt lat="44.33801" lon="2.49402">
        <ele>489.3</ele>
        <time>2024-12-28T13:27:40.099Z</time>
      </trkpt>
      <trkpt lat="44.33803" lon="2.49404">
        <ele>489.2</ele>
        <time>2024-12-28T13:27:44.000Z</time>
      </trkpt>
      <trkpt lat="44.33803" lon="2.49405">
        <ele>489.2</ele>
        <time>2024-12-28T13:27:45.000Z</time>
      </trkpt>
      <trkpt lat="44.33806" lon="2.4941">
        <ele>489.1</ele>
        <time>2024-12-28T13:27:51.000Z</time>
      </trkpt>
      <trkpt lat="44.33809" lon="2.49415">
        <ele>488.9</ele>
        <time>2024-12-28T13:27:56.000Z</time>
      </trkpt>
      <trkpt lat="44.33813" lon="2.4942">
        <ele>488.8</ele>
        <time>2024-12-28T13:28:01.000Z</time>
      </trkpt>
      <trkpt lat="44.33816" lon="2.49426">
        <ele>488.7</ele>
        <time>2024-12-28T13:28:06.000Z</time>
      </trkpt>
      <trkpt lat="44.33819" lon="2.49431">
        <ele>488.6</ele>
        <time>2024-12-28T13:28:10.000Z</time>
      </trkpt>
      <trkpt lat="44.33823" lon="2.49437">
        <ele>488.4</ele>
        <time>2024-12-28T13:28:15.000Z</time>
      </trkpt>
      <trkpt lat="44.33824" lon="2.49438">
        <ele>488.3</ele>
        <time>2024-12-28T13:28:18.100Z</time>
      </trkpt>
      <trkpt lat="44.33824" lon="2.49438">
        <ele>488.1</ele>
        <time>2024-12-28T13:28:33.000Z</time>
      </trkpt>
      <trkpt lat="44.33825" lon="2.49439">
        <ele>488.1</ele>
        <time>2024-12-28T13:28:34.000Z</time>
      </trkpt>
      <trkpt lat="44.33828" lon="2.49444">
        <ele>488</ele>
        <time>2024-12-28T13:28:39.000Z</time>
      </trkpt>
      <trkpt lat="44.33831" lon="2.49449">
        <ele>488</ele>
        <time>2024-12-28T13:28:44.000Z</time>
      </trkpt>
      <trkpt lat="44.33834" lon="2.49454">
        <ele>488</ele>
        <time>2024-12-28T13:28:48.000Z</time>
      </trkpt>
      <trkpt lat="44.33837" lon="2.49459">
        <ele>488</ele>
        <time>2024-12-28T13:28:52.000Z</time>
      </trkpt>
      <trkpt lat="44.3384" lon="2.49464">
        <ele>488</ele>
        <time>2024-12-28T13:28:56.000Z</time>
      </trkpt>
      <trkpt lat="44.33844" lon="2.49469">
        <ele>488.1</ele>
        <time>2024-12-28T13:29:00.000Z</time>
      </trkpt>
      <trkpt lat="44.33847" lon="2.49474">
        <ele>488.1</ele>
        <time>2024-12-28T13:29:07.000Z</time>
      </trkpt>
      <trkpt lat="44.3385" lon="2.4948">
        <ele>488.2</ele>
        <time>2024-12-28T13:29:12.000Z</time>
      </trkpt>
      <trkpt lat="44.33853" lon="2.49485">
        <ele>488.3</ele>
        <time>2024-12-28T13:29:16.000Z</time>
      </trkpt>
      <trkpt lat="44.33856" lon="2.49491">
        <ele>488.4</ele>
        <time>2024-12-28T13:29:20.000Z</time>
      </trkpt>
      <trkpt lat="44.3386" lon="2.49496">
        <ele>488.5</ele>
        <time>2024-12-28T13:29:24.000Z</time>
      </trkpt>
      <trkpt lat="44.33863" lon="2.49502">
        <ele>488.7</ele>
        <time>2024-12-28T13:29:28.000Z</time>
      </trkpt>
      <trkpt lat="44.33866" lon="2.49507">
        <ele>488.8</ele>
        <time>2024-12-28T13:29:32.000Z</time>
      </trkpt>
      <trkpt lat="44.3387" lon="2.49512">
        <ele>489</ele>
        <time>2024-12-28T13:29:36.000Z</time>
      </trkpt>
      <trkpt lat="44.33873" lon="2.49517">
        <ele>489.1</ele>
        <time>2024-12-28T13:29:40.000Z</time>
      </trkpt>
      <trkpt lat="44.33875" lon="2.49523">
        <ele>489.3</ele>
        <time>2024-12-28T13:29:44.000Z</time>
      </trkpt>
      <trkpt lat="44.33878" lon="2.4953">
        <ele>489.4</ele>
        <time>2024-12-28T13:29:48.000Z</time>
      </trkpt>
      <trkpt lat="44.33881" lon="2.49536">
        <ele>489.5</ele>
        <time>2024-12-28T13:29:52.000Z</time>
      </trkpt>
      <trkpt lat="44.33885" lon="2.49541">
        <ele>489.7</ele>
        <time>2024-12-28T13:29:56.000Z</time>
      </trkpt>
      <trkpt lat="44.33889" lon="2.49546">
        <ele>490</ele>
        <time>2024-12-28T13:30:00.000Z</time>
      </trkpt>
      <trkpt lat="44.33893" lon="2.49551">
        <ele>490.3</ele>
        <time>2024-12-28T13:30:04.000Z</time>
      </trkpt>
      <trkpt lat="44.33897" lon="2.49556">
        <ele>490.5</ele>
        <time>2024-12-28T13:30:08.000Z</time>
      </trkpt>
      <trkpt lat="44.33901" lon="2.4956">
        <ele>490.8</ele>
        <time>2024-12-28T13:30:13.000Z</time>
      </trkpt>
      <trkpt lat="44.33901" lon="2.4956">
        <ele>491.1</ele>
        <time>2024-12-28T13:30:17.100Z</time>
      </trkpt>
      <trkpt lat="44.33902" lon="2.4956">
        <ele>491.4</ele>
        <time>2024-12-28T13:30:23.000Z</time>
      </trkpt>
      <trkpt lat="44.33903" lon="2.4956">
        <ele>491.5</ele>
        <time>2024-12-28T13:30:24.000Z</time>
      </trkpt>
      <trkpt lat="44.33908" lon="2.49563">
        <ele>491.7</ele>
        <time>2024-12-28T13:30:28.000Z</time>
      </trkpt>
      <trkpt lat="44.33913" lon="2.49565">
        <ele>491.8</ele>
        <time>2024-12-28T13:30:32.000Z</time>
      </trkpt>
      <trkpt lat="44.33917" lon="2.49566">
        <ele>491.9</ele>
        <time>2024-12-28T13:30:36.000Z</time>
      </trkpt>
      <trkpt lat="44.33922" lon="2.49566">
        <ele>492.1</ele>
        <time>2024-12-28T13:30:40.000Z</time>
      </trkpt>
      <trkpt lat="44.33927" lon="2.49567">
        <ele>492.2</ele>
        <time>2024-12-28T13:30:44.000Z</time>
      </trkpt>
      <trkpt lat="44.33932" lon="2.49568">
        <ele>492.3</ele>
        <time>2024-12-28T13:30:48.000Z</time>
      </trkpt>
      <trkpt lat="44.33937" lon="2.49568">
        <ele>492.4</ele>
        <time>2024-12-28T13:30:52.000Z</time>
      </trkpt>
      <trkpt lat="44.33943" lon="2.49567">
        <ele>492.6</ele>
        <time>2024-12-28T13:30:56.000Z</time>
      </trkpt>
      <trkpt lat="44.33948" lon="2.49566">
        <ele>492.9</ele>
        <time>2024-12-28T13:31:00.000Z</time>
      </trkpt>
      <trkpt lat="44.33954" lon="2.49565">
        <ele>493.2</ele>
        <time>2024-12-28T13:31:04.000Z</time>
      </trkpt>
      <trkpt lat="44.3396" lon="2.49564">
        <ele>493.7</ele>
        <time>2024-12-28T13:31:08.000Z</time>
      </trkpt>
      <trkpt lat="44.33965" lon="2.49563">
        <ele>494.4</ele>
        <time>2024-12-28T13:31:12.000Z</time>
      </trkpt>
      <trkpt lat="44.33969" lon="2.49561">
        <ele>495.2</ele>
        <time>2024-12-28T13:31:16.000Z</time>
      </trkpt>
      <trkpt lat="44.33974" lon="2.49559">
        <ele>495.8</ele>
        <time>2024-12-28T13:31:20.000Z</time>
      </trkpt>
      <trkpt lat="44.33979" lon="2.49557">
        <ele>496.4</ele>
        <time>2024-12-28T13:31:24.000Z</time>
      </trkpt>
      <trkpt lat="44.33985" lon="2.49554">
        <ele>496.9</ele>
        <time>2024-12-28T13:31:28.000Z</time>
      </trkpt>
      <trkpt lat="44.3399" lon="2.49551">
        <ele>497.4</ele>
        <time>2024-12-28T13:31:32.000Z</time>
      </trkpt>
      <trkpt lat="44.33994" lon="2.49549">
        <ele>497.9</ele>
        <time>2024-12-28T13:31:36.000Z</time>
      </trkpt>
      <trkpt lat="44.33999" lon="2.49546">
        <ele>498.3</ele>
        <time>2024-12-28T13:31:40.000Z</time>
      </trkpt>
      <trkpt lat="44.34003" lon="2.49544">
        <ele>498.7</ele>
        <time>2024-12-28T13:31:44.000Z</time>
      </trkpt>
      <trkpt lat="44.34008" lon="2.49543">
        <ele>499.1</ele>
        <time>2024-12-28T13:31:48.000Z</time>
      </trkpt>
      <trkpt lat="44.34013" lon="2.49542">
        <ele>499.3</ele>
        <time>2024-12-28T13:31:52.000Z</time>
      </trkpt>
      <trkpt lat="44.34018" lon="2.4954">
        <ele>499.6</ele>
        <time>2024-12-28T13:31:56.000Z</time>
      </trkpt>
      <trkpt lat="44.34022" lon="2.49538">
        <ele>499.8</ele>
        <time>2024-12-28T13:32:00.000Z</time>
      </trkpt>
      <trkpt lat="44.34027" lon="2.49535">
        <ele>500</ele>
        <time>2024-12-28T13:32:05.000Z</time>
      </trkpt>
      <trkpt lat="44.34032" lon="2.49532">
        <ele>500.1</ele>
        <time>2024-12-28T13:32:10.000Z</time>
      </trkpt>
      <trkpt lat="44.34036" lon="2.4953">
        <ele>500.1</ele>
        <time>2024-12-28T13:32:14.000Z</time>
      </trkpt>
      <trkpt lat="44.34041" lon="2.49527">
        <ele>500.1</ele>
        <time>2024-12-28T13:32:18.000Z</time>
      </trkpt>
      <trkpt lat="44.34046" lon="2.49525">
        <ele>500.1</ele>
        <time>2024-12-28T13:32:22.000Z</time>
      </trkpt>
      <trkpt lat="44.34051" lon="2.49522">
        <ele>500.3</ele>
        <time>2024-12-28T13:32:26.000Z</time>
      </trkpt>
      <trkpt lat="44.34057" lon="2.4952">
        <ele>500.5</ele>
        <time>2024-12-28T13:32:30.000Z</time>
      </trkpt>
      <trkpt lat="44.34061" lon="2.49518">
        <ele>500.8</ele>
        <time>2024-12-28T13:32:34.000Z</time>
      </trkpt>
      <trkpt lat="44.34067" lon="2.49515">
        <ele>501.8</ele>
        <time>2024-12-28T13:32:42.000Z</time>
      </trkpt>
      <trkpt lat="44.34071" lon="2.49512">
        <ele>502.3</ele>
        <time>2024-12-28T13:32:46.000Z</time>
      </trkpt>
      <trkpt lat="44.34076" lon="2.4951">
        <ele>503.2</ele>
        <time>2024-12-28T13:32:51.000Z</time>
      </trkpt>
      <trkpt lat="44.34081" lon="2.49508">
        <ele>503.7</ele>
        <time>2024-12-28T13:32:55.000Z</time>
      </trkpt>
      <trkpt lat="44.34086" lon="2.49506">
        <ele>504</ele>
        <time>2024-12-28T13:32:59.000Z</time>
      </trkpt>
      <trkpt lat="44.34091" lon="2.49503">
        <ele>504.3</ele>
        <time>2024-12-28T13:33:03.000Z</time>
      </trkpt>
      <trkpt lat="44.34095" lon="2.49501">
        <ele>504.7</ele>
        <time>2024-12-28T13:33:06.000Z</time>
      </trkpt>
      <trkpt lat="44.341" lon="2.49498">
        <ele>505.4</ele>
        <time>2024-12-28T13:33:10.000Z</time>
      </trkpt>
      <trkpt lat="44.34105" lon="2.49496">
        <ele>506.2</ele>
        <time>2024-12-28T13:33:14.000Z</time>
      </trkpt>
      <trkpt lat="44.3411" lon="2.49494">
        <ele>506.9</ele>
        <time>2024-12-28T13:33:18.000Z</time>
      </trkpt>
      <trkpt lat="44.34115" lon="2.49492">
        <ele>507.4</ele>
        <time>2024-12-28T13:33:22.000Z</time>
      </trkpt>
      <trkpt lat="44.3412" lon="2.4949">
        <ele>507.8</ele>
        <time>2024-12-28T13:33:26.000Z</time>
      </trkpt>
      <trkpt lat="44.34125" lon="2.49487">
        <ele>508</ele>
        <time>2024-12-28T13:33:30.000Z</time>
      </trkpt>
      <trkpt lat="44.3413" lon="2.49484">
        <ele>508.1</ele>
        <time>2024-12-28T13:33:34.000Z</time>
      </trkpt>
      <trkpt lat="44.34134" lon="2.4948">
        <ele>508.2</ele>
        <time>2024-12-28T13:33:38.000Z</time>
      </trkpt>
      <trkpt lat="44.3414" lon="2.49478">
        <ele>508.3</ele>
        <time>2024-12-28T13:33:42.000Z</time>
      </trkpt>
      <trkpt lat="44.34144" lon="2.49476">
        <ele>508.3</ele>
        <time>2024-12-28T13:33:46.000Z</time>
      </trkpt>
      <trkpt lat="44.34149" lon="2.49473">
        <ele>508.4</ele>
        <time>2024-12-28T13:33:50.000Z</time>
      </trkpt>
      <trkpt lat="44.34153" lon="2.49471">
        <ele>508.4</ele>
        <time>2024-12-28T13:33:54.000Z</time>
      </trkpt>
      <trkpt lat="44.34158" lon="2.49469">
        <ele>508.4</ele>
        <time>2024-12-28T13:33:58.000Z</time>
      </trkpt>
      <trkpt lat="44.34163" lon="2.49466">
        <ele>508.6</ele>
        <time>2024-12-28T13:34:02.000Z</time>
      </trkpt>
      <trkpt lat="44.34168" lon="2.49465">
        <ele>508.8</ele>
        <time>2024-12-28T13:34:06.000Z</time>
      </trkpt>
      <trkpt lat="44.34173" lon="2.49462">
        <ele>509.1</ele>
        <time>2024-12-28T13:34:10.000Z</time>
      </trkpt>
      <trkpt lat="44.34178" lon="2.49461">
        <ele>509.7</ele>
        <time>2024-12-28T13:34:14.000Z</time>
      </trkpt>
      <trkpt lat="44.34183" lon="2.49461">
        <ele>510.6</ele>
        <time>2024-12-28T13:34:18.000Z</time>
      </trkpt>
      <trkpt lat="44.34188" lon="2.4946">
        <ele>511.4</ele>
        <time>2024-12-28T13:34:22.000Z</time>
      </trkpt>
      <trkpt lat="44.34194" lon="2.49461">
        <ele>512.2</ele>
        <time>2024-12-28T13:34:26.000Z</time>
      </trkpt>
      <trkpt lat="44.34199" lon="2.49462">
        <ele>512.6</ele>
        <time>2024-12-28T13:34:30.000Z</time>
      </trkpt>
      <trkpt lat="44.34204" lon="2.49463">
        <ele>512.8</ele>
        <time>2024-12-28T13:34:34.000Z</time>
      </trkpt>
      <trkpt lat="44.3421" lon="2.49464">
        <ele>513.1</ele>
        <time>2024-12-28T13:34:38.000Z</time>
      </trkpt>
      <trkpt lat="44.34215" lon="2.49462">
        <ele>513.4</ele>
        <time>2024-12-28T13:34:42.000Z</time>
      </trkpt>
      <trkpt lat="44.34219" lon="2.49458">
        <ele>513.7</ele>
        <time>2024-12-28T13:34:46.000Z</time>
      </trkpt>
      <trkpt lat="44.34224" lon="2.49454">
        <ele>514</ele>
        <time>2024-12-28T13:34:50.000Z</time>
      </trkpt>
      <trkpt lat="44.34229" lon="2.49451">
        <ele>514.3</ele>
        <time>2024-12-28T13:34:54.000Z</time>
      </trkpt>
      <trkpt lat="44.3423" lon="2.49447">
        <ele>515.1</ele>
        <time>2024-12-28T13:35:00.100Z</time>
      </trkpt>
      <trkpt lat="44.3423" lon="2.49447">
        <ele>516</ele>
        <time>2024-12-28T13:35:20.000Z</time>
      </trkpt>
      <trkpt lat="44.3423" lon="2.49447">
        <ele>516</ele>
        <time>2024-12-28T13:35:21.000Z</time>
      </trkpt>
      <trkpt lat="44.3423" lon="2.49447">
        <ele>516</ele>
        <time>2024-12-28T13:35:22.000Z</time>
      </trkpt>
      <trkpt lat="44.3423" lon="2.49447">
        <ele>516</ele>
        <time>2024-12-28T13:35:22.100Z</time>
      </trkpt>
      <trkpt lat="44.3423" lon="2.4945">
        <ele>516.2</ele>
        <time>2024-12-28T13:35:30.000Z</time>
      </trkpt>
      <trkpt lat="44.3423" lon="2.49451">
        <ele>516.3</ele>
        <time>2024-12-28T13:35:31.000Z</time>
      </trkpt>
      <trkpt lat="44.3423" lon="2.4945">
        <ele>516.4</ele>
        <time>2024-12-28T13:35:32.000Z</time>
      </trkpt>
      <trkpt lat="44.34231" lon="2.49447">
        <ele>517</ele>
        <time>2024-12-28T13:35:37.099Z</time>
      </trkpt>
      <trkpt lat="44.3423" lon="2.49448">
        <ele>517.9</ele>
        <time>2024-12-28T13:35:45.000Z</time>
      </trkpt>
      <trkpt lat="44.34229" lon="2.4945">
        <ele>517.9</ele>
        <time>2024-12-28T13:35:46.000Z</time>
      </trkpt>
      <trkpt lat="44.34229" lon="2.49452">
        <ele>517.9</ele>
        <time>2024-12-28T13:35:47.000Z</time>
      </trkpt>
      <trkpt lat="44.34225" lon="2.49457">
        <ele>518</ele>
        <time>2024-12-28T13:35:51.000Z</time>
      </trkpt>
      <trkpt lat="44.34222" lon="2.49462">
        <ele>518</ele>
        <time>2024-12-28T13:35:56.000Z</time>
      </trkpt>
      <trkpt lat="44.34223" lon="2.49462">
        <ele>518</ele>
        <time>2024-12-28T13:35:59.099Z</time>
      </trkpt>
      <trkpt lat="44.34223" lon="2.49465">
        <ele>517.6</ele>
        <time>2024-12-28T13:36:18.000Z</time>
      </trkpt>
      <trkpt lat="44.34222" lon="2.49466">
        <ele>517.5</ele>
        <time>2024-12-28T13:36:20.100Z</time>
      </trkpt>
      <trkpt lat="44.34222" lon="2.49466">
        <ele>516.9</ele>
        <time>2024-12-28T13:36:38.000Z</time>
      </trkpt>
      <trkpt lat="44.34222" lon="2.49466">
        <ele>516.9</ele>
        <time>2024-12-28T13:36:39.000Z</time>
      </trkpt>
      <trkpt lat="44.34222" lon="2.49466">
        <ele>516.9</ele>
        <time>2024-12-28T13:36:39.099Z</time>
      </trkpt>
      <trkpt lat="44.34222" lon="2.49466">
        <ele>516.8</ele>
        <time>2024-12-28T13:36:43.000Z</time>
      </trkpt>
      <trkpt lat="44.34222" lon="2.49466">
        <ele>516.8</ele>
        <time>2024-12-28T13:36:44.000Z</time>
      </trkpt>
      <trkpt lat="44.34223" lon="2.49467">
        <ele>516.8</ele>
        <time>2024-12-28T13:36:47.099Z</time>
      </trkpt>
      <trkpt lat="44.34226" lon="2.49468">
        <ele>516.9</ele>
        <time>2024-12-28T13:36:50.000Z</time>
      </trkpt>
      <trkpt lat="44.34227" lon="2.49468">
        <ele>516.9</ele>
        <time>2024-12-28T13:36:51.000Z</time>
      </trkpt>
      <trkpt lat="44.34229" lon="2.49468">
        <ele>516.9</ele>
        <time>2024-12-28T13:36:52.000Z</time>
      </trkpt>
      <trkpt lat="44.34234" lon="2.49469">
        <ele>516.9</ele>
        <time>2024-12-28T13:36:56.000Z</time>
      </trkpt>
      <trkpt lat="44.34239" lon="2.49471">
        <ele>516.9</ele>
        <time>2024-12-28T13:37:01.000Z</time>
      </trkpt>
      <trkpt lat="44.34244" lon="2.49472">
        <ele>517</ele>
        <time>2024-12-28T13:37:05.000Z</time>
      </trkpt>
      <trkpt lat="44.34249" lon="2.49472">
        <ele>517</ele>
        <time>2024-12-28T13:37:09.000Z</time>
      </trkpt>
      <trkpt lat="44.34254" lon="2.49473">
        <ele>517.1</ele>
        <time>2024-12-28T13:37:13.000Z</time>
      </trkpt>
      <trkpt lat="44.3426" lon="2.49475">
        <ele>517.2</ele>
        <time>2024-12-28T13:37:18.000Z</time>
      </trkpt>
      <trkpt lat="44.34264" lon="2.49476">
        <ele>517.4</ele>
        <time>2024-12-28T13:37:22.000Z</time>
      </trkpt>
      <trkpt lat="44.34269" lon="2.49477">
        <ele>517.5</ele>
        <time>2024-12-28T13:37:30.000Z</time>
      </trkpt>
      <trkpt lat="44.34274" lon="2.49479">
        <ele>517.7</ele>
        <time>2024-12-28T13:37:34.000Z</time>
      </trkpt>
      <trkpt lat="44.34279" lon="2.49479">
        <ele>518.1</ele>
        <time>2024-12-28T13:37:39.000Z</time>
      </trkpt>
      <trkpt lat="44.34285" lon="2.4948">
        <ele>518.5</ele>
        <time>2024-12-28T13:37:43.000Z</time>
      </trkpt>
      <trkpt lat="44.3429" lon="2.4948">
        <ele>519</ele>
        <time>2024-12-28T13:37:47.000Z</time>
      </trkpt>
      <trkpt lat="44.34295" lon="2.49481">
        <ele>519.5</ele>
        <time>2024-12-28T13:37:51.000Z</time>
      </trkpt>
      <trkpt lat="44.343" lon="2.49481">
        <ele>519.8</ele>
        <time>2024-12-28T13:37:55.000Z</time>
      </trkpt>
      <trkpt lat="44.34305" lon="2.49482">
        <ele>520.1</ele>
        <time>2024-12-28T13:37:59.000Z</time>
      </trkpt>
      <trkpt lat="44.3431" lon="2.49483">
        <ele>520.3</ele>
        <time>2024-12-28T13:38:03.000Z</time>
      </trkpt>
      <trkpt lat="44.34315" lon="2.49483">
        <ele>520.4</ele>
        <time>2024-12-28T13:38:07.000Z</time>
      </trkpt>
      <trkpt lat="44.3432" lon="2.49481">
        <ele>520.5</ele>
        <time>2024-12-28T13:38:12.000Z</time>
      </trkpt>
      <trkpt lat="44.34325" lon="2.49479">
        <ele>520.6</ele>
        <time>2024-12-28T13:38:16.000Z</time>
      </trkpt>
      <trkpt lat="44.3433" lon="2.49478">
        <ele>520.8</ele>
        <time>2024-12-28T13:38:20.000Z</time>
      </trkpt>
      <trkpt lat="44.34335" lon="2.49476">
        <ele>520.9</ele>
        <time>2024-12-28T13:38:24.000Z</time>
      </trkpt>
      <trkpt lat="44.34339" lon="2.49474">
        <ele>521.2</ele>
        <time>2024-12-28T13:38:28.000Z</time>
      </trkpt>
      <trkpt lat="44.34344" lon="2.49472">
        <ele>521.4</ele>
        <time>2024-12-28T13:38:32.000Z</time>
      </trkpt>
      <trkpt lat="44.34348" lon="2.49469">
        <ele>521.7</ele>
        <time>2024-12-28T13:38:36.000Z</time>
      </trkpt>
      <trkpt lat="44.34353" lon="2.49465">
        <ele>522</ele>
        <time>2024-12-28T13:38:40.000Z</time>
      </trkpt>
      <trkpt lat="44.34357" lon="2.49461">
        <ele>522.3</ele>
        <time>2024-12-28T13:38:44.000Z</time>
      </trkpt>
      <trkpt lat="44.34362" lon="2.49457">
        <ele>522.6</ele>
        <time>2024-12-28T13:38:48.000Z</time>
      </trkpt>
      <trkpt lat="44.34366" lon="2.49453">
        <ele>522.8</ele>
        <time>2024-12-28T13:38:53.000Z</time>
      </trkpt>
      <trkpt lat="44.34369" lon="2.49447">
        <ele>523</ele>
        <time>2024-12-28T13:38:57.000Z</time>
      </trkpt>
      <trkpt lat="44.34372" lon="2.49442">
        <ele>523.1</ele>
        <time>2024-12-28T13:39:01.000Z</time>
      </trkpt>
      <trkpt lat="44.34376" lon="2.49436">
        <ele>523.2</ele>
        <time>2024-12-28T13:39:05.000Z</time>
      </trkpt>
      <trkpt lat="44.3438" lon="2.4943">
        <ele>523.3</ele>
        <time>2024-12-28T13:39:09.000Z</time>
      </trkpt>
      <trkpt lat="44.34384" lon="2.49424">
        <ele>523.5</ele>
        <time>2024-12-28T13:39:13.000Z</time>
      </trkpt>
      <trkpt lat="44.34388" lon="2.49418">
        <ele>523.7</ele>
        <time>2024-12-28T13:39:17.000Z</time>
      </trkpt>
      <trkpt lat="44.34392" lon="2.49412">
        <ele>524</ele>
        <time>2024-12-28T13:39:21.000Z</time>
      </trkpt>
      <trkpt lat="44.34395" lon="2.49406">
        <ele>524.8</ele>
        <time>2024-12-28T13:39:25.000Z</time>
      </trkpt>
      <trkpt lat="44.34399" lon="2.494">
        <ele>525.6</ele>
        <time>2024-12-28T13:39:29.000Z</time>
      </trkpt>
      <trkpt lat="44.34402" lon="2.49393">
        <ele>526.3</ele>
        <time>2024-12-28T13:39:33.000Z</time>
      </trkpt>
      <trkpt lat="44.34406" lon="2.49388">
        <ele>526.8</ele>
        <time>2024-12-28T13:39:37.000Z</time>
      </trkpt>
      <trkpt lat="44.3441" lon="2.49382">
        <ele>527.1</ele>
        <time>2024-12-28T13:39:41.000Z</time>
      </trkpt>
      <trkpt lat="44.34413" lon="2.49376">
        <ele>527.2</ele>
        <time>2024-12-28T13:39:45.000Z</time>
      </trkpt>
      <trkpt lat="44.34417" lon="2.4937">
        <ele>527.3</ele>
        <time>2024-12-28T13:39:49.000Z</time>
      </trkpt>
      <trkpt lat="44.34421" lon="2.49365">
        <ele>527.4</ele>
        <time>2024-12-28T13:39:53.000Z</time>
      </trkpt>
      <trkpt lat="44.34424" lon="2.49359">
        <ele>527.4</ele>
        <time>2024-12-28T13:39:57.000Z</time>
      </trkpt>
      <trkpt lat="44.34428" lon="2.49354">
        <ele>527.5</ele>
        <time>2024-12-28T13:40:01.000Z</time>
      </trkpt>
      <trkpt lat="44.34431" lon="2.49349">
        <ele>527.5</ele>
        <time>2024-12-28T13:40:04.000Z</time>
      </trkpt>
      <trkpt lat="44.34435" lon="2.49342">
        <ele>527.5</ele>
        <time>2024-12-28T13:40:08.000Z</time>
      </trkpt>
      <trkpt lat="44.34439" lon="2.49336">
        <ele>527.5</ele>
        <time>2024-12-28T13:40:12.000Z</time>
      </trkpt>
      <trkpt lat="44.34441" lon="2.4933">
        <ele>527.5</ele>
        <time>2024-12-28T13:40:16.000Z</time>
      </trkpt>
      <trkpt lat="44.34445" lon="2.49324">
        <ele>527.5</ele>
        <time>2024-12-28T13:40:20.000Z</time>
      </trkpt>
      <trkpt lat="44.34447" lon="2.49318">
        <ele>527.5</ele>
        <time>2024-12-28T13:40:24.000Z</time>
      </trkpt>
      <trkpt lat="44.34451" lon="2.49312">
        <ele>527.4</ele>
        <time>2024-12-28T13:40:28.000Z</time>
      </trkpt>
      <trkpt lat="44.34455" lon="2.49306">
        <ele>527.5</ele>
        <time>2024-12-28T13:40:32.000Z</time>
      </trkpt>
      <trkpt lat="44.34459" lon="2.49301">
        <ele>527.5</ele>
        <time>2024-12-28T13:40:36.000Z</time>
      </trkpt>
      <trkpt lat="44.34463" lon="2.49297">
        <ele>527.5</ele>
        <time>2024-12-28T13:40:40.000Z</time>
      </trkpt>
      <trkpt lat="44.34467" lon="2.49292">
        <ele>527.5</ele>
        <time>2024-12-28T13:40:44.000Z</time>
      </trkpt>
      <trkpt lat="44.3447" lon="2.49287">
        <ele>527.5</ele>
        <time>2024-12-28T13:40:48.000Z</time>
      </trkpt>
      <trkpt lat="44.34474" lon="2.49282">
        <ele>527.5</ele>
        <time>2024-12-28T13:40:52.000Z</time>
      </trkpt>
      <trkpt lat="44.34477" lon="2.49276">
        <ele>527.5</ele>
        <time>2024-12-28T13:40:56.000Z</time>
      </trkpt>
      <trkpt lat="44.34481" lon="2.4927">
        <ele>527.5</ele>
        <time>2024-12-28T13:41:00.000Z</time>
      </trkpt>
      <trkpt lat="44.34483" lon="2.49262">
        <ele>527.7</ele>
        <time>2024-12-28T13:41:04.000Z</time>
      </trkpt>
      <trkpt lat="44.34484" lon="2.49256">
        <ele>527.9</ele>
        <time>2024-12-28T13:41:08.000Z</time>
      </trkpt>
      <trkpt lat="44.34486" lon="2.49251">
        <ele>528.1</ele>
        <time>2024-12-28T13:41:12.000Z</time>
      </trkpt>
      <trkpt lat="44.34487" lon="2.49244">
        <ele>528.4</ele>
        <time>2024-12-28T13:41:16.000Z</time>
      </trkpt>
      <trkpt lat="44.3449" lon="2.49238">
        <ele>528.9</ele>
        <time>2024-12-28T13:41:20.000Z</time>
      </trkpt>
      <trkpt lat="44.34494" lon="2.49233">
        <ele>530.1</ele>
        <time>2024-12-28T13:41:25.000Z</time>
      </trkpt>
      <trkpt lat="44.34497" lon="2.49227">
        <ele>531.6</ele>
        <time>2024-12-28T13:41:29.000Z</time>
      </trkpt>
      <trkpt lat="44.34497" lon="2.49222">
        <ele>533.9</ele>
        <time>2024-12-28T13:41:43.099Z</time>
      </trkpt>
      <trkpt lat="44.34497" lon="2.49219">
        <ele>533.9</ele>
        <time>2024-12-28T13:41:46.000Z</time>
      </trkpt>
      <trkpt lat="44.34497" lon="2.49219">
        <ele>533.9</ele>
        <time>2024-12-28T13:41:47.000Z</time>
      </trkpt>
      <trkpt lat="44.34497" lon="2.49219">
        <ele>533.9</ele>
        <time>2024-12-28T13:41:50.099Z</time>
      </trkpt>
      <trkpt lat="44.34498" lon="2.49219">
        <ele>533.8</ele>
        <time>2024-12-28T13:41:59.000Z</time>
      </trkpt>
      <trkpt lat="44.34499" lon="2.49218">
        <ele>533.8</ele>
        <time>2024-12-28T13:42:00.000Z</time>
      </trkpt>
      <trkpt lat="44.34501" lon="2.49212">
        <ele>533.7</ele>
        <time>2024-12-28T13:42:05.000Z</time>
      </trkpt>
      <trkpt lat="44.34501" lon="2.4921">
        <ele>533.7</ele>
        <time>2024-12-28T13:42:07.100Z</time>
      </trkpt>
      <trkpt lat="44.34501" lon="2.4921">
        <ele>533.7</ele>
        <time>2024-12-28T13:42:13.000Z</time>
      </trkpt>
      <trkpt lat="44.34501" lon="2.4921">
        <ele>533.6</ele>
        <time>2024-12-28T13:42:14.000Z</time>
      </trkpt>
      <trkpt lat="44.34501" lon="2.4921">
        <ele>533.6</ele>
        <time>2024-12-28T13:42:14.100Z</time>
      </trkpt>
      <trkpt lat="44.34502" lon="2.4921">
        <ele>533.6</ele>
        <time>2024-12-28T13:42:18.000Z</time>
      </trkpt>
      <trkpt lat="44.34502" lon="2.4921">
        <ele>533.6</ele>
        <time>2024-12-28T13:42:19.000Z</time>
      </trkpt>
      <trkpt lat="44.34501" lon="2.4921">
        <ele>533.5</ele>
        <time>2024-12-28T13:42:20.000Z</time>
      </trkpt>
      <trkpt lat="44.34501" lon="2.4921">
        <ele>533.5</ele>
        <time>2024-12-28T13:42:20.100Z</time>
      </trkpt>
      <trkpt lat="44.34503" lon="2.49207">
        <ele>533.4</ele>
        <time>2024-12-28T13:42:25.000Z</time>
      </trkpt>
      <trkpt lat="44.34504" lon="2.49206">
        <ele>533.4</ele>
        <time>2024-12-28T13:42:26.000Z</time>
      </trkpt>
      <trkpt lat="44.34505" lon="2.49205">
        <ele>533.3</ele>
        <time>2024-12-28T13:42:27.000Z</time>
      </trkpt>
      <trkpt lat="44.34507" lon="2.49199">
        <ele>532.7</ele>
        <time>2024-12-28T13:42:38.000Z</time>
      </trkpt>
      <trkpt lat="44.3451" lon="2.49194">
        <ele>532.2</ele>
        <time>2024-12-28T13:42:45.000Z</time>
      </trkpt>
      <trkpt lat="44.3451" lon="2.49192">
        <ele>531.9</ele>
        <time>2024-12-28T13:42:49.099Z</time>
      </trkpt>
      <trkpt lat="44.34509" lon="2.49191">
        <ele>531.7</ele>
        <time>2024-12-28T13:42:53.000Z</time>
      </trkpt>
      <trkpt lat="44.34509" lon="2.49191">
        <ele>531.7</ele>
        <time>2024-12-28T13:42:54.000Z</time>
      </trkpt>
      <trkpt lat="44.34509" lon="2.49191">
        <ele>531.6</ele>
        <time>2024-12-28T13:42:55.000Z</time>
      </trkpt>
      <trkpt lat="44.34508" lon="2.49191">
        <ele>531.4</ele>
        <time>2024-12-28T13:42:58.099Z</time>
      </trkpt>
      <trkpt lat="44.34508" lon="2.49193">
        <ele>530.9</ele>
        <time>2024-12-28T13:43:16.000Z</time>
      </trkpt>
      <trkpt lat="44.34508" lon="2.49194">
        <ele>530.9</ele>
        <time>2024-12-28T13:43:17.000Z</time>
      </trkpt>
      <trkpt lat="44.34506" lon="2.49201">
        <ele>530.8</ele>
        <time>2024-12-28T13:43:22.000Z</time>
      </trkpt>
      <trkpt lat="44.34504" lon="2.49199">
        <ele>530.8</ele>
        <time>2024-12-28T13:43:30.100Z</time>
      </trkpt>
      <trkpt lat="44.34504" lon="2.49197">
        <ele>530.8</ele>
        <time>2024-12-28T13:43:33.000Z</time>
      </trkpt>
      <trkpt lat="44.34503" lon="2.49196">
        <ele>530.8</ele>
        <time>2024-12-28T13:43:34.000Z</time>
      </trkpt>
      <trkpt lat="44.34508" lon="2.49195">
        <ele>530.8</ele>
        <time>2024-12-28T13:43:51.000Z</time>
      </trkpt>
      <trkpt lat="44.34512" lon="2.49199">
        <ele>530.5</ele>
        <time>2024-12-28T13:43:59.000Z</time>
      </trkpt>
      <trkpt lat="44.34515" lon="2.49204">
        <ele>530.4</ele>
        <time>2024-12-28T13:44:04.000Z</time>
      </trkpt>
      <trkpt lat="44.3452" lon="2.49206">
        <ele>530.4</ele>
        <time>2024-12-28T13:44:08.000Z</time>
      </trkpt>
      <trkpt lat="44.34525" lon="2.49207">
        <ele>530.5</ele>
        <time>2024-12-28T13:44:11.000Z</time>
      </trkpt>
      <trkpt lat="44.3453" lon="2.49209">
        <ele>530.5</ele>
        <time>2024-12-28T13:44:15.000Z</time>
      </trkpt>
      <trkpt lat="44.34533" lon="2.49214">
        <ele>530.7</ele>
        <time>2024-12-28T13:44:21.000Z</time>
      </trkpt>
      <trkpt lat="44.34537" lon="2.49217">
        <ele>531</ele>
        <time>2024-12-28T13:44:25.000Z</time>
      </trkpt>
      <trkpt lat="44.34542" lon="2.4922">
        <ele>531.4</ele>
        <time>2024-12-28T13:44:32.000Z</time>
      </trkpt>
      <trkpt lat="44.34546" lon="2.49222">
        <ele>531.5</ele>
        <time>2024-12-28T13:44:36.000Z</time>
      </trkpt>
      <trkpt lat="44.34548" lon="2.49224">
        <ele>531.8</ele>
        <time>2024-12-28T13:44:42.099Z</time>
      </trkpt>
      <trkpt lat="44.34549" lon="2.49226">
        <ele>532.3</ele>
        <time>2024-12-28T13:44:50.000Z</time>
      </trkpt>
      <trkpt lat="44.3455" lon="2.49227">
        <ele>532.3</ele>
        <time>2024-12-28T13:44:51.000Z</time>
      </trkpt>
      <trkpt lat="44.3455" lon="2.49228">
        <ele>532.3</ele>
        <time>2024-12-28T13:44:52.000Z</time>
      </trkpt>
      <trkpt lat="44.34549" lon="2.49235">
        <ele>532.5</ele>
        <time>2024-12-28T13:44:57.000Z</time>
      </trkpt>
      <trkpt lat="44.3455" lon="2.49237">
        <ele>532.7</ele>
        <time>2024-12-28T13:45:05.100Z</time>
      </trkpt>
      <trkpt lat="44.3455" lon="2.49239">
        <ele>532.9</ele>
        <time>2024-12-28T13:45:09.000Z</time>
      </trkpt>
      <trkpt lat="44.3455" lon="2.4924">
        <ele>532.9</ele>
        <time>2024-12-28T13:45:10.000Z</time>
      </trkpt>
      <trkpt lat="44.34549" lon="2.49245">
        <ele>533.3</ele>
        <time>2024-12-28T13:45:20.100Z</time>
      </trkpt>
      <trkpt lat="44.34548" lon="2.49246">
        <ele>533.4</ele>
        <time>2024-12-28T13:45:22.000Z</time>
      </trkpt>
      <trkpt lat="44.34547" lon="2.49247">
        <ele>533.5</ele>
        <time>2024-12-28T13:45:23.000Z</time>
      </trkpt>
      <trkpt lat="44.34543" lon="2.49249">
        <ele>534</ele>
        <time>2024-12-28T13:45:30.100Z</time>
      </trkpt>
      <trkpt lat="44.34541" lon="2.49248">
        <ele>534.3</ele>
        <time>2024-12-28T13:45:34.000Z</time>
      </trkpt>
      <trkpt lat="44.34541" lon="2.49248">
        <ele>534.4</ele>
        <time>2024-12-28T13:45:35.000Z</time>
      </trkpt>
      <trkpt lat="44.3454" lon="2.49249">
        <ele>534.6</ele>
        <time>2024-12-28T13:45:38.099Z</time>
      </trkpt>
      <trkpt lat="44.34541" lon="2.49249">
        <ele>534.7</ele>
        <time>2024-12-28T13:45:41.000Z</time>
      </trkpt>
      <trkpt lat="44.3454" lon="2.49249">
        <ele>534.7</ele>
        <time>2024-12-28T13:45:42.000Z</time>
      </trkpt>
      <trkpt lat="44.3454" lon="2.49249">
        <ele>534.7</ele>
        <time>2024-12-28T13:45:43.000Z</time>
      </trkpt>
      <trkpt lat="44.3454" lon="2.49249">
        <ele>534.7</ele>
        <time>2024-12-28T13:45:43.099Z</time>
      </trkpt>
      <trkpt lat="44.34538" lon="2.4925">
        <ele>534.8</ele>
        <time>2024-12-28T13:45:46.000Z</time>
      </trkpt>
      <trkpt lat="44.34537" lon="2.49251">
        <ele>534.8</ele>
        <time>2024-12-28T13:45:47.000Z</time>
      </trkpt>
      <trkpt lat="44.34535" lon="2.49256">
        <ele>534.8</ele>
        <time>2024-12-28T13:45:53.000Z</time>
      </trkpt>
      <trkpt lat="44.34535" lon="2.49255">
        <ele>535</ele>
        <time>2024-12-28T13:46:05.100Z</time>
      </trkpt>
      <trkpt lat="44.34536" lon="2.49255">
        <ele>535.1</ele>
        <time>2024-12-28T13:46:09.000Z</time>
      </trkpt>
      <trkpt lat="44.34536" lon="2.49254">
        <ele>535.1</ele>
        <time>2024-12-28T13:46:10.000Z</time>
      </trkpt>
      <trkpt lat="44.34536" lon="2.49255">
        <ele>535.2</ele>
        <time>2024-12-28T13:46:12.100Z</time>
      </trkpt>
      <trkpt lat="44.34533" lon="2.49253">
        <ele>535.8</ele>
        <time>2024-12-28T13:46:20.000Z</time>
      </trkpt>
      <trkpt lat="44.34533" lon="2.49252">
        <ele>535.8</ele>
        <time>2024-12-28T13:46:21.000Z</time>
      </trkpt>
      <trkpt lat="44.34533" lon="2.49252">
        <ele>535.9</ele>
        <time>2024-12-28T13:46:22.000Z</time>
      </trkpt>
      <trkpt lat="44.3453" lon="2.49258">
        <ele>536.3</ele>
        <time>2024-12-28T13:46:32.000Z</time>
      </trkpt>
      <trkpt lat="44.3453" lon="2.49264">
        <ele>536.4</ele>
        <time>2024-12-28T13:46:37.000Z</time>
      </trkpt>
      <trkpt lat="44.34526" lon="2.49267">
        <ele>535.9</ele>
        <time>2024-12-28T13:46:48.000Z</time>
      </trkpt>
      <trkpt lat="44.34526" lon="2.49273">
        <ele>536</ele>
        <time>2024-12-28T13:46:53.000Z</time>
      </trkpt>
      <trkpt lat="44.34526" lon="2.49281">
        <ele>536.4</ele>
        <time>2024-12-28T13:46:57.000Z</time>
      </trkpt>
      <trkpt lat="44.34528" lon="2.49287">
        <ele>536.9</ele>
        <time>2024-12-28T13:47:01.000Z</time>
      </trkpt>
      <trkpt lat="44.34532" lon="2.49288">
        <ele>537.9</ele>
        <time>2024-12-28T13:47:17.100Z</time>
      </trkpt>
      <trkpt lat="44.34532" lon="2.49288">
        <ele>538.1</ele>
        <time>2024-12-28T13:47:23.000Z</time>
      </trkpt>
      <trkpt lat="44.34532" lon="2.49288">
        <ele>538.1</ele>
        <time>2024-12-28T13:47:24.000Z</time>
      </trkpt>
      <trkpt lat="44.34532" lon="2.49288">
        <ele>538.1</ele>
        <time>2024-12-28T13:47:25.000Z</time>
      </trkpt>
      <trkpt lat="44.34532" lon="2.49288">
        <ele>538.1</ele>
        <time>2024-12-28T13:47:25.100Z</time>
      </trkpt>
      <trkpt lat="44.34532" lon="2.49288">
        <ele>538.3</ele>
        <time>2024-12-28T13:47:29.000Z</time>
      </trkpt>
      <trkpt lat="44.34532" lon="2.49288">
        <ele>538.3</ele>
        <time>2024-12-28T13:47:30.000Z</time>
      </trkpt>
      <trkpt lat="44.34532" lon="2.49288">
        <ele>538.4</ele>
        <time>2024-12-28T13:47:32.099Z</time>
      </trkpt>
      <trkpt lat="44.34533" lon="2.49287">
        <ele>538.9</ele>
        <time>2024-12-28T13:48:36.000Z</time>
      </trkpt>
      <trkpt lat="44.34533" lon="2.49287">
        <ele>538.9</ele>
        <time>2024-12-28T13:48:37.000Z</time>
      </trkpt>
      <trkpt lat="44.34533" lon="2.49287">
        <ele>538.9</ele>
        <time>2024-12-28T13:48:40.099Z</time>
      </trkpt>
      <trkpt lat="44.34533" lon="2.49288">
        <ele>538.8</ele>
        <time>2024-12-28T13:49:14.000Z</time>
      </trkpt>
      <trkpt lat="44.34533" lon="2.49288">
        <ele>538.8</ele>
        <time>2024-12-28T13:49:15.000Z</time>
      </trkpt>
      <trkpt lat="44.34533" lon="2.49288">
        <ele>538.8</ele>
        <time>2024-12-28T13:49:15.100Z</time>
      </trkpt>
      <trkpt lat="44.34532" lon="2.49288">
        <ele>538.8</ele>
        <time>2024-12-28T13:49:29.000Z</time>
      </trkpt>
      <trkpt lat="44.34532" lon="2.49288">
        <ele>538.8</ele>
        <time>2024-12-28T13:49:30.000Z</time>
      </trkpt>
      <trkpt lat="44.34532" lon="2.49288">
        <ele>538.8</ele>
        <time>2024-12-28T13:49:30.100Z</time>
      </trkpt>
      <trkpt lat="44.34532" lon="2.49288">
        <ele>538.9</ele>
        <time>2024-12-28T13:51:06.000Z</time>
      </trkpt>
      <trkpt lat="44.34532" lon="2.49288">
        <ele>538.9</ele>
        <time>2024-12-28T13:51:07.000Z</time>
      </trkpt>
      <trkpt lat="44.34532" lon="2.49288">
        <ele>538.9</ele>
        <time>2024-12-28T13:51:12.100Z</time>
      </trkpt>
      <trkpt lat="44.34532" lon="2.49288">
        <ele>539</ele>
        <time>2024-12-28T13:51:18.000Z</time>
      </trkpt>
      <trkpt lat="44.34532" lon="2.49288">
        <ele>539</ele>
        <time>2024-12-28T13:51:19.000Z</time>
      </trkpt>
      <trkpt lat="44.34532" lon="2.49288">
        <ele>539.1</ele>
        <time>2024-12-28T13:51:24.100Z</time>
      </trkpt>
      <trkpt lat="44.34533" lon="2.49289">
        <ele>539.5</ele>
        <time>2024-12-28T13:51:38.000Z</time>
      </trkpt>
      <trkpt lat="44.34533" lon="2.49288">
        <ele>539.5</ele>
        <time>2024-12-28T13:51:39.000Z</time>
      </trkpt>
      <trkpt lat="44.34534" lon="2.49288">
        <ele>539.5</ele>
        <time>2024-12-28T13:51:40.000Z</time>
      </trkpt>
      <trkpt lat="44.34534" lon="2.49288">
        <ele>539.5</ele>
        <time>2024-12-28T13:51:40.099Z</time>
      </trkpt>
      <trkpt lat="44.34534" lon="2.49288">
        <ele>539.8</ele>
        <time>2024-12-28T13:52:18.000Z</time>
      </trkpt>
      <trkpt lat="44.34534" lon="2.49288">
        <ele>539.8</ele>
        <time>2024-12-28T13:52:19.000Z</time>
      </trkpt>
      <trkpt lat="44.34534" lon="2.49288">
        <ele>539.8</ele>
        <time>2024-12-28T13:52:20.000Z</time>
      </trkpt>
      <trkpt lat="44.34534" lon="2.49288">
        <ele>539.8</ele>
        <time>2024-12-28T13:52:20.100Z</time>
      </trkpt>
      <trkpt lat="44.34537" lon="2.49289">
        <ele>538.1</ele>
        <time>2024-12-28T13:53:43.000Z</time>
      </trkpt>
      <trkpt lat="44.34537" lon="2.49289">
        <ele>538.1</ele>
        <time>2024-12-28T13:53:44.000Z</time>
      </trkpt>
      <trkpt lat="44.34537" lon="2.49289">
        <ele>538.1</ele>
        <time>2024-12-28T13:53:44.099Z</time>
      </trkpt>
      <trkpt lat="44.34535" lon="2.4929">
        <ele>538</ele>
        <time>2024-12-28T13:54:09.000Z</time>
      </trkpt>
      <trkpt lat="44.34535" lon="2.4929">
        <ele>538</ele>
        <time>2024-12-28T13:54:10.000Z</time>
      </trkpt>
      <trkpt lat="44.34535" lon="2.49289">
        <ele>537.9</ele>
        <time>2024-12-28T13:54:13.100Z</time>
      </trkpt>
      <trkpt lat="44.34535" lon="2.49287">
        <ele>537.7</ele>
        <time>2024-12-28T13:54:18.000Z</time>
      </trkpt>
      <trkpt lat="44.34534" lon="2.49285">
        <ele>537.7</ele>
        <time>2024-12-28T13:54:19.000Z</time>
      </trkpt>
      <trkpt lat="44.34532" lon="2.49278">
        <ele>537.5</ele>
        <time>2024-12-28T13:54:24.000Z</time>
      </trkpt>
      <trkpt lat="44.3453" lon="2.49271">
        <ele>537.3</ele>
        <time>2024-12-28T13:54:29.000Z</time>
      </trkpt>
      <trkpt lat="44.34529" lon="2.49267">
        <ele>537.1</ele>
        <time>2024-12-28T13:54:34.099Z</time>
      </trkpt>
      <trkpt lat="44.34528" lon="2.49264">
        <ele>537</ele>
        <time>2024-12-28T13:54:38.000Z</time>
      </trkpt>
      <trkpt lat="44.34527" lon="2.49264">
        <ele>536.9</ele>
        <time>2024-12-28T13:54:39.000Z</time>
      </trkpt>
      <trkpt lat="44.34526" lon="2.49263">
        <ele>536.9</ele>
        <time>2024-12-28T13:54:40.000Z</time>
      </trkpt>
      <trkpt lat="44.34521" lon="2.4926">
        <ele>536.7</ele>
        <time>2024-12-28T13:54:46.000Z</time>
      </trkpt>
      <trkpt lat="44.34516" lon="2.49261">
        <ele>536.5</ele>
        <time>2024-12-28T13:54:51.000Z</time>
      </trkpt>
      <trkpt lat="44.34511" lon="2.49261">
        <ele>536.4</ele>
        <time>2024-12-28T13:54:55.000Z</time>
      </trkpt>
      <trkpt lat="44.34506" lon="2.4926">
        <ele>536.2</ele>
        <time>2024-12-28T13:55:00.000Z</time>
      </trkpt>
      <trkpt lat="44.34501" lon="2.49262">
        <ele>536.1</ele>
        <time>2024-12-28T13:55:05.000Z</time>
      </trkpt>
      <trkpt lat="44.34499" lon="2.49255">
        <ele>536</ele>
        <time>2024-12-28T13:55:11.000Z</time>
      </trkpt>
      <trkpt lat="44.345" lon="2.49248">
        <ele>535.9</ele>
        <time>2024-12-28T13:55:15.000Z</time>
      </trkpt>
      <trkpt lat="44.34503" lon="2.49241">
        <ele>535.4</ele>
        <time>2024-12-28T13:55:19.000Z</time>
      </trkpt>
      <trkpt lat="44.34508" lon="2.49239">
        <ele>534.5</ele>
        <time>2024-12-28T13:55:23.000Z</time>
      </trkpt>
      <trkpt lat="44.34513" lon="2.49235">
        <ele>533.4</ele>
        <time>2024-12-28T13:55:27.000Z</time>
      </trkpt>
      <trkpt lat="44.34515" lon="2.49231">
        <ele>532.9</ele>
        <time>2024-12-28T13:55:35.099Z</time>
      </trkpt>
      <trkpt lat="44.34515" lon="2.49231">
        <ele>533</ele>
        <time>2024-12-28T13:55:41.000Z</time>
      </trkpt>
      <trkpt lat="44.34515" lon="2.49231">
        <ele>533</ele>
        <time>2024-12-28T13:55:42.000Z</time>
      </trkpt>
      <trkpt lat="44.34515" lon="2.49231">
        <ele>533</ele>
        <time>2024-12-28T13:55:42.099Z</time>
      </trkpt>
      <trkpt lat="44.34514" lon="2.4923">
        <ele>533.1</ele>
        <time>2024-12-28T13:55:48.000Z</time>
      </trkpt>
      <trkpt lat="44.34513" lon="2.4923">
        <ele>533.2</ele>
        <time>2024-12-28T13:55:49.000Z</time>
      </trkpt>
      <trkpt lat="44.34512" lon="2.4923">
        <ele>533.4</ele>
        <time>2024-12-28T13:55:57.099Z</time>
      </trkpt>
      <trkpt lat="44.3451" lon="2.4923">
        <ele>533.5</ele>
        <time>2024-12-28T13:56:00.000Z</time>
      </trkpt>
      <trkpt lat="44.34509" lon="2.49231">
        <ele>533.5</ele>
        <time>2024-12-28T13:56:01.000Z</time>
      </trkpt>
      <trkpt lat="44.34509" lon="2.49231">
        <ele>533.5</ele>
        <time>2024-12-28T13:56:02.000Z</time>
      </trkpt>
      <trkpt lat="44.34509" lon="2.49231">
        <ele>533.5</ele>
        <time>2024-12-28T13:56:04.100Z</time>
      </trkpt>
      <trkpt lat="44.34507" lon="2.49232">
        <ele>533.5</ele>
        <time>2024-12-28T13:56:26.000Z</time>
      </trkpt>
      <trkpt lat="44.34506" lon="2.49232">
        <ele>533.5</ele>
        <time>2024-12-28T13:56:27.000Z</time>
      </trkpt>
      <trkpt lat="44.34505" lon="2.49232">
        <ele>533.5</ele>
        <time>2024-12-28T13:56:28.000Z</time>
      </trkpt>
      <trkpt lat="44.34501" lon="2.49234">
        <ele>533.6</ele>
        <time>2024-12-28T13:56:38.000Z</time>
      </trkpt>
      <trkpt lat="44.34499" lon="2.4924">
        <ele>533.6</ele>
        <time>2024-12-28T13:56:44.000Z</time>
      </trkpt>
      <trkpt lat="44.34499" lon="2.4924">
        <ele>533.6</ele>
        <time>2024-12-28T13:56:47.099Z</time>
      </trkpt>
      <trkpt lat="44.34499" lon="2.4924">
        <ele>533.5</ele>
        <time>2024-12-28T13:56:55.000Z</time>
      </trkpt>
      <trkpt lat="44.34498" lon="2.49241">
        <ele>533.5</ele>
        <time>2024-12-28T13:56:56.000Z</time>
      </trkpt>
      <trkpt lat="44.34498" lon="2.49241">
        <ele>533.5</ele>
        <time>2024-12-28T13:56:57.000Z</time>
      </trkpt>
      <trkpt lat="44.34498" lon="2.49241">
        <ele>533.5</ele>
        <time>2024-12-28T13:56:57.099Z</time>
      </trkpt>
      <trkpt lat="44.34495" lon="2.49242">
        <ele>533.4</ele>
        <time>2024-12-28T13:57:01.000Z</time>
      </trkpt>
      <trkpt lat="44.34495" lon="2.49242">
        <ele>533.4</ele>
        <time>2024-12-28T13:57:02.000Z</time>
      </trkpt>
      <trkpt lat="44.34495" lon="2.49242">
        <ele>533.4</ele>
        <time>2024-12-28T13:57:03.000Z</time>
      </trkpt>
      <trkpt lat="44.34491" lon="2.49248">
        <ele>533.3</ele>
        <time>2024-12-28T13:57:09.000Z</time>
      </trkpt>
      <trkpt lat="44.34488" lon="2.49254">
        <ele>533.2</ele>
        <time>2024-12-28T13:57:14.000Z</time>
      </trkpt>
      <trkpt lat="44.34485" lon="2.49259">
        <ele>533.1</ele>
        <time>2024-12-28T13:57:18.000Z</time>
      </trkpt>
      <trkpt lat="44.34481" lon="2.49264">
        <ele>533.1</ele>
        <time>2024-12-28T13:57:23.000Z</time>
      </trkpt>
      <trkpt lat="44.34477" lon="2.49268">
        <ele>533.1</ele>
        <time>2024-12-28T13:57:29.000Z</time>
      </trkpt>
      <trkpt lat="44.34477" lon="2.4927">
        <ele>531.8</ele>
        <time>2024-12-28T13:57:42.099Z</time>
      </trkpt>
      <trkpt lat="44.34477" lon="2.49268">
        <ele>530.8</ele>
        <time>2024-12-28T13:57:46.000Z</time>
      </trkpt>
      <trkpt lat="44.34477" lon="2.49268">
        <ele>530.5</ele>
        <time>2024-12-28T13:57:47.000Z</time>
      </trkpt>
      <trkpt lat="44.34477" lon="2.49268">
        <ele>530.3</ele>
        <time>2024-12-28T13:57:48.000Z</time>
      </trkpt>
      <trkpt lat="44.34477" lon="2.49268">
        <ele>530.3</ele>
        <time>2024-12-28T13:57:48.099Z</time>
      </trkpt>
      <trkpt lat="44.34477" lon="2.4927">
        <ele>528.9</ele>
        <time>2024-12-28T13:58:03.000Z</time>
      </trkpt>
      <trkpt lat="44.34476" lon="2.49272">
        <ele>528.9</ele>
        <time>2024-12-28T13:58:04.000Z</time>
      </trkpt>
      <trkpt lat="44.34475" lon="2.49274">
        <ele>528.8</ele>
        <time>2024-12-28T13:58:05.000Z</time>
      </trkpt>
      <trkpt lat="44.34473" lon="2.49281">
        <ele>528.6</ele>
        <time>2024-12-28T13:58:09.000Z</time>
      </trkpt>
      <trkpt lat="44.34469" lon="2.49285">
        <ele>528.4</ele>
        <time>2024-12-28T13:58:13.000Z</time>
      </trkpt>
      <trkpt lat="44.34466" lon="2.4929">
        <ele>528.1</ele>
        <time>2024-12-28T13:58:18.000Z</time>
      </trkpt>
      <trkpt lat="44.34462" lon="2.49294">
        <ele>527.9</ele>
        <time>2024-12-28T13:58:22.000Z</time>
      </trkpt>
      <trkpt lat="44.34458" lon="2.493">
        <ele>527.5</ele>
        <time>2024-12-28T13:58:28.000Z</time>
      </trkpt>
      <trkpt lat="44.34454" lon="2.49304">
        <ele>527.2</ele>
        <time>2024-12-28T13:58:32.000Z</time>
      </trkpt>
      <trkpt lat="44.3445" lon="2.49307">
        <ele>527</ele>
        <time>2024-12-28T13:58:36.000Z</time>
      </trkpt>
      <trkpt lat="44.34449" lon="2.49308">
        <ele>525.1</ele>
        <time>2024-12-28T13:58:50.099Z</time>
      </trkpt>
      <trkpt lat="44.34449" lon="2.49308">
        <ele>524</ele>
        <time>2024-12-28T13:59:04.000Z</time>
      </trkpt>
      <trkpt lat="44.34449" lon="2.49308">
        <ele>523.9</ele>
        <time>2024-12-28T13:59:05.000Z</time>
      </trkpt>
      <trkpt lat="44.34449" lon="2.49308">
        <ele>523.7</ele>
        <time>2024-12-28T13:59:15.100Z</time>
      </trkpt>
      <trkpt lat="44.34449" lon="2.49308">
        <ele>523.5</ele>
        <time>2024-12-28T13:59:36.000Z</time>
      </trkpt>
      <trkpt lat="44.34449" lon="2.49308">
        <ele>523.5</ele>
        <time>2024-12-28T13:59:37.000Z</time>
      </trkpt>
      <trkpt lat="44.34449" lon="2.49308">
        <ele>523.5</ele>
        <time>2024-12-28T13:59:38.000Z</time>
      </trkpt>
      <trkpt lat="44.34449" lon="2.49308">
        <ele>523.5</ele>
        <time>2024-12-28T13:59:38.099Z</time>
      </trkpt>
      <trkpt lat="44.34449" lon="2.4931">
        <ele>523.5</ele>
        <time>2024-12-28T14:00:06.000Z</time>
      </trkpt>
      <trkpt lat="44.34448" lon="2.49311">
        <ele>523.5</ele>
        <time>2024-12-28T14:00:07.000Z</time>
      </trkpt>
      <trkpt lat="44.34448" lon="2.49312">
        <ele>523.5</ele>
        <time>2024-12-28T14:00:08.000Z</time>
      </trkpt>
      <trkpt lat="44.34445" lon="2.49318">
        <ele>523.5</ele>
        <time>2024-12-28T14:00:15.000Z</time>
      </trkpt>
      <trkpt lat="44.34443" lon="2.49324">
        <ele>523.5</ele>
        <time>2024-12-28T14:00:21.000Z</time>
      </trkpt>
      <trkpt lat="44.3444" lon="2.49329">
        <ele>523.5</ele>
        <time>2024-12-28T14:00:25.000Z</time>
      </trkpt>
      <trkpt lat="44.34437" lon="2.49335">
        <ele>523.4</ele>
        <time>2024-12-28T14:00:33.000Z</time>
      </trkpt>
      <trkpt lat="44.34434" lon="2.4934">
        <ele>523.4</ele>
        <time>2024-12-28T14:00:37.000Z</time>
      </trkpt>
      <trkpt lat="44.34431" lon="2.49346">
        <ele>523.3</ele>
        <time>2024-12-28T14:00:41.000Z</time>
      </trkpt>
      <trkpt lat="44.34427" lon="2.49353">
        <ele>523.2</ele>
        <time>2024-12-28T14:00:45.000Z</time>
      </trkpt>
      <trkpt lat="44.34425" lon="2.49359">
        <ele>523.2</ele>
        <time>2024-12-28T14:00:48.000Z</time>
      </trkpt>
      <trkpt lat="44.34422" lon="2.49364">
        <ele>523.1</ele>
        <time>2024-12-28T14:00:51.000Z</time>
      </trkpt>
      <trkpt lat="44.34418" lon="2.49369">
        <ele>523.1</ele>
        <time>2024-12-28T14:00:55.000Z</time>
      </trkpt>
      <trkpt lat="44.34414" lon="2.49375">
        <ele>523.1</ele>
        <time>2024-12-28T14:00:59.000Z</time>
      </trkpt>
      <trkpt lat="44.3441" lon="2.4938">
        <ele>523</ele>
        <time>2024-12-28T14:01:03.000Z</time>
      </trkpt>
      <trkpt lat="44.34407" lon="2.49386">
        <ele>523</ele>
        <time>2024-12-28T14:01:07.000Z</time>
      </trkpt>
      <trkpt lat="44.34404" lon="2.49392">
        <ele>523</ele>
        <time>2024-12-28T14:01:11.000Z</time>
      </trkpt>
      <trkpt lat="44.344" lon="2.49398">
        <ele>523</ele>
        <time>2024-12-28T14:01:15.000Z</time>
      </trkpt>
      <trkpt lat="44.34397" lon="2.49404">
        <ele>523</ele>
        <time>2024-12-28T14:01:19.000Z</time>
      </trkpt>
      <trkpt lat="44.34393" lon="2.4941">
        <ele>523</ele>
        <time>2024-12-28T14:01:23.000Z</time>
      </trkpt>
      <trkpt lat="44.34389" lon="2.49415">
        <ele>522.9</ele>
        <time>2024-12-28T14:01:27.000Z</time>
      </trkpt>
      <trkpt lat="44.34386" lon="2.49421">
        <ele>522.9</ele>
        <time>2024-12-28T14:01:31.000Z</time>
      </trkpt>
      <trkpt lat="44.34382" lon="2.49426">
        <ele>522.8</ele>
        <time>2024-12-28T14:01:35.000Z</time>
      </trkpt>
      <trkpt lat="44.34379" lon="2.49432">
        <ele>522.8</ele>
        <time>2024-12-28T14:01:39.000Z</time>
      </trkpt>
      <trkpt lat="44.34375" lon="2.49438">
        <ele>522.7</ele>
        <time>2024-12-28T14:01:43.000Z</time>
      </trkpt>
      <trkpt lat="44.34372" lon="2.49444">
        <ele>522.7</ele>
        <time>2024-12-28T14:01:47.000Z</time>
      </trkpt>
      <trkpt lat="44.34368" lon="2.4945">
        <ele>522.6</ele>
        <time>2024-12-28T14:01:51.000Z</time>
      </trkpt>
      <trkpt lat="44.34364" lon="2.49455">
        <ele>522.6</ele>
        <time>2024-12-28T14:01:55.000Z</time>
      </trkpt>
      <trkpt lat="44.3436" lon="2.49459">
        <ele>522.5</ele>
        <time>2024-12-28T14:01:58.000Z</time>
      </trkpt>
      <trkpt lat="44.34356" lon="2.49463">
        <ele>522.5</ele>
        <time>2024-12-28T14:02:01.000Z</time>
      </trkpt>
      <trkpt lat="44.34352" lon="2.49467">
        <ele>522.4</ele>
        <time>2024-12-28T14:02:05.000Z</time>
      </trkpt>
      <trkpt lat="44.34347" lon="2.4947">
        <ele>522.3</ele>
        <time>2024-12-28T14:02:09.000Z</time>
      </trkpt>
      <trkpt lat="44.34342" lon="2.49473">
        <ele>522.3</ele>
        <time>2024-12-28T14:02:13.000Z</time>
      </trkpt>
      <trkpt lat="44.34336" lon="2.49476">
        <ele>522.2</ele>
        <time>2024-12-28T14:02:18.000Z</time>
      </trkpt>
      <trkpt lat="44.34331" lon="2.49478">
        <ele>522.2</ele>
        <time>2024-12-28T14:02:23.000Z</time>
      </trkpt>
      <trkpt lat="44.34326" lon="2.49478">
        <ele>522.2</ele>
        <time>2024-12-28T14:02:27.000Z</time>
      </trkpt>
      <trkpt lat="44.3432" lon="2.49481">
        <ele>522.2</ele>
        <time>2024-12-28T14:02:31.000Z</time>
      </trkpt>
      <trkpt lat="44.34315" lon="2.49482">
        <ele>522.2</ele>
        <time>2024-12-28T14:02:35.000Z</time>
      </trkpt>
      <trkpt lat="44.3431" lon="2.49482">
        <ele>522.2</ele>
        <time>2024-12-28T14:02:39.000Z</time>
      </trkpt>
      <trkpt lat="44.34304" lon="2.49482">
        <ele>522.2</ele>
        <time>2024-12-28T14:02:43.000Z</time>
      </trkpt>
      <trkpt lat="44.34299" lon="2.4948">
        <ele>522.1</ele>
        <time>2024-12-28T14:02:47.000Z</time>
      </trkpt>
      <trkpt lat="44.34293" lon="2.49479">
        <ele>522.1</ele>
        <time>2024-12-28T14:02:51.000Z</time>
      </trkpt>
      <trkpt lat="44.34288" lon="2.4948">
        <ele>522</ele>
        <time>2024-12-28T14:02:55.000Z</time>
      </trkpt>
      <trkpt lat="44.34282" lon="2.49479">
        <ele>522</ele>
        <time>2024-12-28T14:02:59.000Z</time>
      </trkpt>
      <trkpt lat="44.34277" lon="2.49478">
        <ele>521.8</ele>
        <time>2024-12-28T14:03:03.000Z</time>
      </trkpt>
      <trkpt lat="44.34272" lon="2.49477">
        <ele>521.7</ele>
        <time>2024-12-28T14:03:07.000Z</time>
      </trkpt>
      <trkpt lat="44.34267" lon="2.49476">
        <ele>521.4</ele>
        <time>2024-12-28T14:03:11.000Z</time>
      </trkpt>
      <trkpt lat="44.34262" lon="2.49475">
        <ele>521.1</ele>
        <time>2024-12-28T14:03:15.000Z</time>
      </trkpt>
      <trkpt lat="44.34256" lon="2.49474">
        <ele>520.8</ele>
        <time>2024-12-28T14:03:19.000Z</time>
      </trkpt>
      <trkpt lat="44.34251" lon="2.49473">
        <ele>520.4</ele>
        <time>2024-12-28T14:03:23.000Z</time>
      </trkpt>
      <trkpt lat="44.34246" lon="2.49472">
        <ele>519.8</ele>
        <time>2024-12-28T14:03:27.000Z</time>
      </trkpt>
      <trkpt lat="44.34241" lon="2.49471">
        <ele>519.2</ele>
        <time>2024-12-28T14:03:31.000Z</time>
      </trkpt>
      <trkpt lat="44.34236" lon="2.4947">
        <ele>518.8</ele>
        <time>2024-12-28T14:03:35.000Z</time>
      </trkpt>
      <trkpt lat="44.34231" lon="2.49469">
        <ele>518.4</ele>
        <time>2024-12-28T14:03:39.000Z</time>
      </trkpt>
      <trkpt lat="44.34225" lon="2.49468">
        <ele>518.1</ele>
        <time>2024-12-28T14:03:43.000Z</time>
      </trkpt>
      <trkpt lat="44.3422" lon="2.49466">
        <ele>517.9</ele>
        <time>2024-12-28T14:03:47.000Z</time>
      </trkpt>
      <trkpt lat="44.34215" lon="2.49464">
        <ele>517.6</ele>
        <time>2024-12-28T14:03:51.000Z</time>
      </trkpt>
      <trkpt lat="44.34209" lon="2.49462">
        <ele>517.4</ele>
        <time>2024-12-28T14:03:55.000Z</time>
      </trkpt>
      <trkpt lat="44.34204" lon="2.49462">
        <ele>517.1</ele>
        <time>2024-12-28T14:03:59.000Z</time>
      </trkpt>
      <trkpt lat="44.34198" lon="2.49462">
        <ele>516.8</ele>
        <time>2024-12-28T14:04:03.000Z</time>
      </trkpt>
      <trkpt lat="44.34193" lon="2.49461">
        <ele>516.5</ele>
        <time>2024-12-28T14:04:07.000Z</time>
      </trkpt>
      <trkpt lat="44.34187" lon="2.49462">
        <ele>516.1</ele>
        <time>2024-12-28T14:04:11.000Z</time>
      </trkpt>
      <trkpt lat="44.34182" lon="2.49462">
        <ele>515.8</ele>
        <time>2024-12-28T14:04:15.000Z</time>
      </trkpt>
      <trkpt lat="44.34177" lon="2.49462">
        <ele>515.4</ele>
        <time>2024-12-28T14:04:19.000Z</time>
      </trkpt>
      <trkpt lat="44.34172" lon="2.49463">
        <ele>515</ele>
        <time>2024-12-28T14:04:23.000Z</time>
      </trkpt>
      <trkpt lat="44.34167" lon="2.49465">
        <ele>514.5</ele>
        <time>2024-12-28T14:04:27.000Z</time>
      </trkpt>
      <trkpt lat="44.34161" lon="2.49467">
        <ele>514</ele>
        <time>2024-12-28T14:04:31.000Z</time>
      </trkpt>
      <trkpt lat="44.34156" lon="2.49469">
        <ele>513.6</ele>
        <time>2024-12-28T14:04:35.000Z</time>
      </trkpt>
      <trkpt lat="44.34152" lon="2.49471">
        <ele>513.2</ele>
        <time>2024-12-28T14:04:39.000Z</time>
      </trkpt>
      <trkpt lat="44.34147" lon="2.49473">
        <ele>512.8</ele>
        <time>2024-12-28T14:04:43.000Z</time>
      </trkpt>
      <trkpt lat="44.34142" lon="2.49475">
        <ele>512.5</ele>
        <time>2024-12-28T14:04:47.000Z</time>
      </trkpt>
      <trkpt lat="44.34137" lon="2.49477">
        <ele>512.2</ele>
        <time>2024-12-28T14:04:51.000Z</time>
      </trkpt>
      <trkpt lat="44.34132" lon="2.4948">
        <ele>512</ele>
        <time>2024-12-28T14:04:55.000Z</time>
      </trkpt>
      <trkpt lat="44.34127" lon="2.49482">
        <ele>511.8</ele>
        <time>2024-12-28T14:04:58.000Z</time>
      </trkpt>
      <trkpt lat="44.34123" lon="2.49484">
        <ele>511.6</ele>
        <time>2024-12-28T14:05:01.000Z</time>
      </trkpt>
      <trkpt lat="44.34118" lon="2.49487">
        <ele>511.3</ele>
        <time>2024-12-28T14:05:05.000Z</time>
      </trkpt>
      <trkpt lat="44.34112" lon="2.4949">
        <ele>511.2</ele>
        <time>2024-12-28T14:05:09.000Z</time>
      </trkpt>
      <trkpt lat="44.34107" lon="2.49492">
        <ele>511.2</ele>
        <time>2024-12-28T14:05:13.000Z</time>
      </trkpt>
      <trkpt lat="44.34101" lon="2.49494">
        <ele>511.1</ele>
        <time>2024-12-28T14:05:17.000Z</time>
      </trkpt>
      <trkpt lat="44.34098" lon="2.49497">
        <ele>511</ele>
        <time>2024-12-28T14:05:20.000Z</time>
      </trkpt>
      <trkpt lat="44.34092" lon="2.49499">
        <ele>510.6</ele>
        <time>2024-12-28T14:05:24.000Z</time>
      </trkpt>
      <trkpt lat="44.34086" lon="2.49502">
        <ele>509.8</ele>
        <time>2024-12-28T14:05:28.000Z</time>
      </trkpt>
      <trkpt lat="44.34081" lon="2.49504">
        <ele>508.8</ele>
        <time>2024-12-28T14:05:32.000Z</time>
      </trkpt>
      <trkpt lat="44.34076" lon="2.49507">
        <ele>507.9</ele>
        <time>2024-12-28T14:05:36.000Z</time>
      </trkpt>
      <trkpt lat="44.34071" lon="2.49509">
        <ele>507</ele>
        <time>2024-12-28T14:05:40.000Z</time>
      </trkpt>
      <trkpt lat="44.34066" lon="2.49511">
        <ele>505.9</ele>
        <time>2024-12-28T14:05:44.000Z</time>
      </trkpt>
      <trkpt lat="44.34061" lon="2.49513">
        <ele>504.8</ele>
        <time>2024-12-28T14:05:48.000Z</time>
      </trkpt>
      <trkpt lat="44.34056" lon="2.49516">
        <ele>504.3</ele>
        <time>2024-12-28T14:05:52.000Z</time>
      </trkpt>
      <trkpt lat="44.34051" lon="2.49518">
        <ele>504.1</ele>
        <time>2024-12-28T14:05:56.000Z</time>
      </trkpt>
      <trkpt lat="44.34046" lon="2.49521">
        <ele>503.8</ele>
        <time>2024-12-28T14:06:00.000Z</time>
      </trkpt>
      <trkpt lat="44.3404" lon="2.49523">
        <ele>503.6</ele>
        <time>2024-12-28T14:06:04.000Z</time>
      </trkpt>
      <trkpt lat="44.34035" lon="2.49526">
        <ele>503.5</ele>
        <time>2024-12-28T14:06:08.000Z</time>
      </trkpt>
      <trkpt lat="44.3403" lon="2.49529">
        <ele>503.4</ele>
        <time>2024-12-28T14:06:12.000Z</time>
      </trkpt>
      <trkpt lat="44.34025" lon="2.4953">
        <ele>503.3</ele>
        <time>2024-12-28T14:06:16.000Z</time>
      </trkpt>
      <trkpt lat="44.3402" lon="2.49533">
        <ele>503.2</ele>
        <time>2024-12-28T14:06:20.000Z</time>
      </trkpt>
      <trkpt lat="44.34015" lon="2.49535">
        <ele>503</ele>
        <time>2024-12-28T14:06:24.000Z</time>
      </trkpt>
      <trkpt lat="44.34009" lon="2.49538">
        <ele>502.6</ele>
        <time>2024-12-28T14:06:28.000Z</time>
      </trkpt>
      <trkpt lat="44.34004" lon="2.4954">
        <ele>502.2</ele>
        <time>2024-12-28T14:06:32.000Z</time>
      </trkpt>
      <trkpt lat="44.33999" lon="2.49542">
        <ele>501.6</ele>
        <time>2024-12-28T14:06:36.000Z</time>
      </trkpt>
      <trkpt lat="44.33994" lon="2.49545">
        <ele>501.1</ele>
        <time>2024-12-28T14:06:40.000Z</time>
      </trkpt>
      <trkpt lat="44.33988" lon="2.49546">
        <ele>500.7</ele>
        <time>2024-12-28T14:06:44.000Z</time>
      </trkpt>
      <trkpt lat="44.33983" lon="2.49548">
        <ele>500.3</ele>
        <time>2024-12-28T14:06:48.000Z</time>
      </trkpt>
      <trkpt lat="44.33979" lon="2.4955">
        <ele>499.8</ele>
        <time>2024-12-28T14:06:52.000Z</time>
      </trkpt>
      <trkpt lat="44.33974" lon="2.49553">
        <ele>499.3</ele>
        <time>2024-12-28T14:06:56.000Z</time>
      </trkpt>
      <trkpt lat="44.33969" lon="2.49556">
        <ele>498.9</ele>
        <time>2024-12-28T14:07:00.000Z</time>
      </trkpt>
      <trkpt lat="44.33963" lon="2.49559">
        <ele>498.5</ele>
        <time>2024-12-28T14:07:04.000Z</time>
      </trkpt>
      <trkpt lat="44.33958" lon="2.49561">
        <ele>498.1</ele>
        <time>2024-12-28T14:07:08.000Z</time>
      </trkpt>
      <trkpt lat="44.33953" lon="2.49563">
        <ele>497.7</ele>
        <time>2024-12-28T14:07:12.000Z</time>
      </trkpt>
      <trkpt lat="44.33948" lon="2.49564">
        <ele>497.3</ele>
        <time>2024-12-28T14:07:16.000Z</time>
      </trkpt>
      <trkpt lat="44.33943" lon="2.49565">
        <ele>496.9</ele>
        <time>2024-12-28T14:07:20.000Z</time>
      </trkpt>
      <trkpt lat="44.33937" lon="2.49566">
        <ele>496.5</ele>
        <time>2024-12-28T14:07:24.000Z</time>
      </trkpt>
      <trkpt lat="44.33932" lon="2.49565">
        <ele>496.2</ele>
        <time>2024-12-28T14:07:28.000Z</time>
      </trkpt>
      <trkpt lat="44.33926" lon="2.49564">
        <ele>496</ele>
        <time>2024-12-28T14:07:32.000Z</time>
      </trkpt>
      <trkpt lat="44.33921" lon="2.49562">
        <ele>495.9</ele>
        <time>2024-12-28T14:07:36.000Z</time>
      </trkpt>
      <trkpt lat="44.33915" lon="2.49561">
        <ele>495.8</ele>
        <time>2024-12-28T14:07:40.000Z</time>
      </trkpt>
      <trkpt lat="44.3391" lon="2.49559">
        <ele>495.8</ele>
        <time>2024-12-28T14:07:44.000Z</time>
      </trkpt>
      <trkpt lat="44.33905" lon="2.49556">
        <ele>495.7</ele>
        <time>2024-12-28T14:07:48.000Z</time>
      </trkpt>
      <trkpt lat="44.339" lon="2.49553">
        <ele>495.6</ele>
        <time>2024-12-28T14:07:52.000Z</time>
      </trkpt>
      <trkpt lat="44.33895" lon="2.49549">
        <ele>495.5</ele>
        <time>2024-12-28T14:07:56.000Z</time>
      </trkpt>
      <trkpt lat="44.33891" lon="2.49544">
        <ele>495.3</ele>
        <time>2024-12-28T14:08:00.000Z</time>
      </trkpt>
      <trkpt lat="44.33888" lon="2.49539">
        <ele>495</ele>
        <time>2024-12-28T14:08:04.000Z</time>
      </trkpt>
      <trkpt lat="44.33884" lon="2.49534">
        <ele>494.8</ele>
        <time>2024-12-28T14:08:08.000Z</time>
      </trkpt>
      <trkpt lat="44.3388" lon="2.49528">
        <ele>494.6</ele>
        <time>2024-12-28T14:08:12.000Z</time>
      </trkpt>
      <trkpt lat="44.33876" lon="2.49522">
        <ele>494.4</ele>
        <time>2024-12-28T14:08:16.000Z</time>
      </trkpt>
      <trkpt lat="44.33872" lon="2.49517">
        <ele>494.3</ele>
        <time>2024-12-28T14:08:20.000Z</time>
      </trkpt>
      <trkpt lat="44.33869" lon="2.49511">
        <ele>494.1</ele>
        <time>2024-12-28T14:08:24.000Z</time>
      </trkpt>
      <trkpt lat="44.33865" lon="2.49505">
        <ele>493.9</ele>
        <time>2024-12-28T14:08:28.000Z</time>
      </trkpt>
      <trkpt lat="44.33861" lon="2.49499">
        <ele>493.7</ele>
        <time>2024-12-28T14:08:32.000Z</time>
      </trkpt>
      <trkpt lat="44.33858" lon="2.49493">
        <ele>493.5</ele>
        <time>2024-12-28T14:08:36.000Z</time>
      </trkpt>
      <trkpt lat="44.33854" lon="2.49487">
        <ele>493.3</ele>
        <time>2024-12-28T14:08:40.000Z</time>
      </trkpt>
      <trkpt lat="44.33851" lon="2.49482">
        <ele>493</ele>
        <time>2024-12-28T14:08:44.000Z</time>
      </trkpt>
      <trkpt lat="44.33847" lon="2.49476">
        <ele>492.8</ele>
        <time>2024-12-28T14:08:48.000Z</time>
      </trkpt>
      <trkpt lat="44.33843" lon="2.4947">
        <ele>492.6</ele>
        <time>2024-12-28T14:08:52.000Z</time>
      </trkpt>
      <trkpt lat="44.3384" lon="2.49464">
        <ele>492.4</ele>
        <time>2024-12-28T14:08:56.000Z</time>
      </trkpt>
      <trkpt lat="44.33836" lon="2.49458">
        <ele>492.3</ele>
        <time>2024-12-28T14:09:00.000Z</time>
      </trkpt>
      <trkpt lat="44.33832" lon="2.49452">
        <ele>492.2</ele>
        <time>2024-12-28T14:09:04.000Z</time>
      </trkpt>
      <trkpt lat="44.33828" lon="2.49446">
        <ele>492</ele>
        <time>2024-12-28T14:09:08.000Z</time>
      </trkpt>
      <trkpt lat="44.33825" lon="2.4944">
        <ele>492</ele>
        <time>2024-12-28T14:09:12.000Z</time>
      </trkpt>
      <trkpt lat="44.33822" lon="2.49435">
        <ele>491.9</ele>
        <time>2024-12-28T14:09:15.000Z</time>
      </trkpt>
      <trkpt lat="44.33819" lon="2.49429">
        <ele>491.9</ele>
        <time>2024-12-28T14:09:19.000Z</time>
      </trkpt>
      <trkpt lat="44.33816" lon="2.49423">
        <ele>492</ele>
        <time>2024-12-28T14:09:23.000Z</time>
      </trkpt>
      <trkpt lat="44.33811" lon="2.49418">
        <ele>492.1</ele>
        <time>2024-12-28T14:09:27.000Z</time>
      </trkpt>
      <trkpt lat="44.33807" lon="2.49412">
        <ele>492.2</ele>
        <time>2024-12-28T14:09:31.000Z</time>
      </trkpt>
      <trkpt lat="44.33804" lon="2.49407">
        <ele>492.3</ele>
        <time>2024-12-28T14:09:35.000Z</time>
      </trkpt>
      <trkpt lat="44.33801" lon="2.49402">
        <ele>492.5</ele>
        <time>2024-12-28T14:09:39.000Z</time>
      </trkpt>
      <trkpt lat="44.33798" lon="2.49396">
        <ele>492.6</ele>
        <time>2024-12-28T14:09:44.000Z</time>
      </trkpt>
      <trkpt lat="44.33794" lon="2.49389">
        <ele>492.7</ele>
        <time>2024-12-28T14:09:48.000Z</time>
      </trkpt>
      <trkpt lat="44.33792" lon="2.49384">
        <ele>492.8</ele>
        <time>2024-12-28T14:09:52.000Z</time>
      </trkpt>
      <trkpt lat="44.33788" lon="2.4938">
        <ele>492.9</ele>
        <time>2024-12-28T14:09:56.000Z</time>
      </trkpt>
      <trkpt lat="44.33785" lon="2.49375">
        <ele>492.9</ele>
        <time>2024-12-28T14:10:01.000Z</time>
      </trkpt>
      <trkpt lat="44.33784" lon="2.49373">
        <ele>492.9</ele>
        <time>2024-12-28T14:10:04.100Z</time>
      </trkpt>
      <trkpt lat="44.33782" lon="2.49372">
        <ele>493.1</ele>
        <time>2024-12-28T14:10:13.000Z</time>
      </trkpt>
      <trkpt lat="44.33782" lon="2.49371">
        <ele>493.1</ele>
        <time>2024-12-28T14:10:14.000Z</time>
      </trkpt>
      <trkpt lat="44.33781" lon="2.49371">
        <ele>493.1</ele>
        <time>2024-12-28T14:10:15.000Z</time>
      </trkpt>
      <trkpt lat="44.33781" lon="2.4937">
        <ele>493.2</ele>
        <time>2024-12-28T14:10:17.100Z</time>
      </trkpt>
      <trkpt lat="44.33781" lon="2.49369">
        <ele>493.4</ele>
        <time>2024-12-28T14:10:35.000Z</time>
      </trkpt>
      <trkpt lat="44.3378" lon="2.49368">
        <ele>493.3</ele>
        <time>2024-12-28T14:10:36.000Z</time>
      </trkpt>
      <trkpt lat="44.3378" lon="2.49367">
        <ele>493.3</ele>
        <time>2024-12-28T14:10:37.000Z</time>
      </trkpt>
      <trkpt lat="44.33776" lon="2.49363">
        <ele>493.3</ele>
        <time>2024-12-28T14:10:45.000Z</time>
      </trkpt>
      <trkpt lat="44.33773" lon="2.49357">
        <ele>493.3</ele>
        <time>2024-12-28T14:10:50.000Z</time>
      </trkpt>
      <trkpt lat="44.33768" lon="2.49352">
        <ele>493.4</ele>
        <time>2024-12-28T14:10:55.000Z</time>
      </trkpt>
      <trkpt lat="44.33766" lon="2.49346">
        <ele>493.4</ele>
        <time>2024-12-28T14:11:00.000Z</time>
      </trkpt>
      <trkpt lat="44.33765" lon="2.4934">
        <ele>493.4</ele>
        <time>2024-12-28T14:11:05.000Z</time>
      </trkpt>
      <trkpt lat="44.33767" lon="2.49334">
        <ele>493.4</ele>
        <time>2024-12-28T14:11:11.000Z</time>
      </trkpt>
      <trkpt lat="44.33769" lon="2.49328">
        <ele>493.4</ele>
        <time>2024-12-28T14:11:17.000Z</time>
      </trkpt>
      <trkpt lat="44.33772" lon="2.49322">
        <ele>493.3</ele>
        <time>2024-12-28T14:11:22.000Z</time>
      </trkpt>
      <trkpt lat="44.33775" lon="2.49316">
        <ele>493.3</ele>
        <time>2024-12-28T14:11:27.000Z</time>
      </trkpt>
      <trkpt lat="44.33778" lon="2.4931">
        <ele>493.2</ele>
        <time>2024-12-28T14:11:33.000Z</time>
      </trkpt>
      <trkpt lat="44.33781" lon="2.49304">
        <ele>493.2</ele>
        <time>2024-12-28T14:11:37.000Z</time>
      </trkpt>
      <trkpt lat="44.33783" lon="2.49298">
        <ele>493.1</ele>
        <time>2024-12-28T14:11:41.000Z</time>
      </trkpt>
      <trkpt lat="44.33786" lon="2.49293">
        <ele>493.1</ele>
        <time>2024-12-28T14:11:45.000Z</time>
      </trkpt>
      <trkpt lat="44.33787" lon="2.49287">
        <ele>493.1</ele>
        <time>2024-12-28T14:11:49.000Z</time>
      </trkpt>
      <trkpt lat="44.33789" lon="2.49281">
        <ele>493.1</ele>
        <time>2024-12-28T14:11:53.000Z</time>
      </trkpt>
      <trkpt lat="44.33792" lon="2.49275">
        <ele>493.1</ele>
        <time>2024-12-28T14:11:58.000Z</time>
      </trkpt>
      <trkpt lat="44.33795" lon="2.49269">
        <ele>493.1</ele>
        <time>2024-12-28T14:12:02.000Z</time>
      </trkpt>
      <trkpt lat="44.33797" lon="2.49263">
        <ele>493.3</ele>
        <time>2024-12-28T14:12:08.000Z</time>
      </trkpt>
      <trkpt lat="44.33801" lon="2.49257">
        <ele>494.2</ele>
        <time>2024-12-28T14:12:14.000Z</time>
      </trkpt>
      <trkpt lat="44.33805" lon="2.49253">
        <ele>495.1</ele>
        <time>2024-12-28T14:12:18.000Z</time>
      </trkpt>
      <trkpt lat="44.33809" lon="2.49249">
        <ele>496.1</ele>
        <time>2024-12-28T14:12:23.000Z</time>
      </trkpt>
      <trkpt lat="44.33813" lon="2.49244">
        <ele>496.6</ele>
        <time>2024-12-28T14:12:28.000Z</time>
      </trkpt>
      <trkpt lat="44.33817" lon="2.49238">
        <ele>497</ele>
        <time>2024-12-28T14:12:33.000Z</time>
      </trkpt>
      <trkpt lat="44.33818" lon="2.49231">
        <ele>497.5</ele>
        <time>2024-12-28T14:12:38.000Z</time>
      </trkpt>
      <trkpt lat="44.33819" lon="2.49224">
        <ele>497.8</ele>
        <time>2024-12-28T14:12:43.000Z</time>
      </trkpt>
      <trkpt lat="44.3382" lon="2.49218">
        <ele>497.8</ele>
        <time>2024-12-28T14:12:47.000Z</time>
      </trkpt>
      <trkpt lat="44.33822" lon="2.49211">
        <ele>497.9</ele>
        <time>2024-12-28T14:12:51.000Z</time>
      </trkpt>
      <trkpt lat="44.33825" lon="2.49205">
        <ele>497.9</ele>
        <time>2024-12-28T14:12:55.000Z</time>
      </trkpt>
      <trkpt lat="44.33828" lon="2.492">
        <ele>498</ele>
        <time>2024-12-28T14:12:59.000Z</time>
      </trkpt>
      <trkpt lat="44.33832" lon="2.49195">
        <ele>498.2</ele>
        <time>2024-12-28T14:13:03.000Z</time>
      </trkpt>
      <trkpt lat="44.33836" lon="2.49191">
        <ele>498.5</ele>
        <time>2024-12-28T14:13:07.000Z</time>
      </trkpt>
      <trkpt lat="44.3384" lon="2.49188">
        <ele>498.9</ele>
        <time>2024-12-28T14:13:13.000Z</time>
      </trkpt>
      <trkpt lat="44.33845" lon="2.49185">
        <ele>499.2</ele>
        <time>2024-12-28T14:13:18.000Z</time>
      </trkpt>
      <trkpt lat="44.33848" lon="2.49181">
        <ele>499.9</ele>
        <time>2024-12-28T14:13:28.100Z</time>
      </trkpt>
      <trkpt lat="44.3385" lon="2.4918">
        <ele>500</ele>
        <time>2024-12-28T14:13:31.000Z</time>
      </trkpt>
      <trkpt lat="44.33851" lon="2.49179">
        <ele>500</ele>
        <time>2024-12-28T14:13:32.000Z</time>
      </trkpt>
      <trkpt lat="44.33856" lon="2.49177">
        <ele>500</ele>
        <time>2024-12-28T14:13:36.000Z</time>
      </trkpt>
      <trkpt lat="44.3386" lon="2.49175">
        <ele>499.9</ele>
        <time>2024-12-28T14:13:40.000Z</time>
      </trkpt>
      <trkpt lat="44.33865" lon="2.49172">
        <ele>499.7</ele>
        <time>2024-12-28T14:13:45.000Z</time>
      </trkpt>
      <trkpt lat="44.33871" lon="2.4917">
        <ele>499.6</ele>
        <time>2024-12-28T14:13:50.000Z</time>
      </trkpt>
      <trkpt lat="44.33876" lon="2.49169">
        <ele>499.5</ele>
        <time>2024-12-28T14:13:54.000Z</time>
      </trkpt>
      <trkpt lat="44.33881" lon="2.49168">
        <ele>499.6</ele>
        <time>2024-12-28T14:13:58.000Z</time>
      </trkpt>
      <trkpt lat="44.33885" lon="2.49168">
        <ele>499.7</ele>
        <time>2024-12-28T14:14:01.000Z</time>
      </trkpt>
      <trkpt lat="44.3389" lon="2.49167">
        <ele>499.7</ele>
        <time>2024-12-28T14:14:05.000Z</time>
      </trkpt>
      <trkpt lat="44.33895" lon="2.49164">
        <ele>499.7</ele>
        <time>2024-12-28T14:14:10.000Z</time>
      </trkpt>
      <trkpt lat="44.339" lon="2.49161">
        <ele>499.8</ele>
        <time>2024-12-28T14:14:14.000Z</time>
      </trkpt>
      <trkpt lat="44.33904" lon="2.49157">
        <ele>499.9</ele>
        <time>2024-12-28T14:14:18.000Z</time>
      </trkpt>
      <trkpt lat="44.33909" lon="2.49155">
        <ele>500.1</ele>
        <time>2024-12-28T14:14:22.000Z</time>
      </trkpt>
      <trkpt lat="44.33913" lon="2.49153">
        <ele>500.4</ele>
        <time>2024-12-28T14:14:26.000Z</time>
      </trkpt>
      <trkpt lat="44.33918" lon="2.49151">
        <ele>500.7</ele>
        <time>2024-12-28T14:14:29.000Z</time>
      </trkpt>
      <trkpt lat="44.33923" lon="2.4915">
        <ele>501.7</ele>
        <time>2024-12-28T14:14:33.000Z</time>
      </trkpt>
      <trkpt lat="44.33928" lon="2.49147">
        <ele>502.9</ele>
        <time>2024-12-28T14:14:37.000Z</time>
      </trkpt>
      <trkpt lat="44.33931" lon="2.49145">
        <ele>504.4</ele>
        <time>2024-12-28T14:14:43.099Z</time>
      </trkpt>
      <trkpt lat="44.33932" lon="2.49145">
        <ele>505.1</ele>
        <time>2024-12-28T14:14:48.000Z</time>
      </trkpt>
      <trkpt lat="44.33933" lon="2.49145">
        <ele>505.3</ele>
        <time>2024-12-28T14:14:49.000Z</time>
      </trkpt>
      <trkpt lat="44.33932" lon="2.49145">
        <ele>505.8</ele>
        <time>2024-12-28T14:14:52.099Z</time>
      </trkpt>
      <trkpt lat="44.33932" lon="2.49145">
        <ele>506.2</ele>
        <time>2024-12-28T14:14:56.000Z</time>
      </trkpt>
      <trkpt lat="44.33932" lon="2.49144">
        <ele>506.3</ele>
        <time>2024-12-28T14:14:57.000Z</time>
      </trkpt>
      <trkpt lat="44.33935" lon="2.49143">
        <ele>506.4</ele>
        <time>2024-12-28T14:15:05.100Z</time>
      </trkpt>
      <trkpt lat="44.33936" lon="2.49141">
        <ele>506.4</ele>
        <time>2024-12-28T14:15:14.000Z</time>
      </trkpt>
      <trkpt lat="44.33937" lon="2.4914">
        <ele>506.4</ele>
        <time>2024-12-28T14:15:15.000Z</time>
      </trkpt>
      <trkpt lat="44.33938" lon="2.49138">
        <ele>506.4</ele>
        <time>2024-12-28T14:15:20.100Z</time>
      </trkpt>
      <trkpt lat="44.33936" lon="2.4914">
        <ele>506.4</ele>
        <time>2024-12-28T14:15:29.000Z</time>
      </trkpt>
      <trkpt lat="44.33935" lon="2.49141">
        <ele>506.4</ele>
        <time>2024-12-28T14:15:30.000Z</time>
      </trkpt>
      <trkpt lat="44.33932" lon="2.49147">
        <ele>506.5</ele>
        <time>2024-12-28T14:15:35.000Z</time>
      </trkpt>
      <trkpt lat="44.33933" lon="2.49155">
        <ele>506.5</ele>
        <time>2024-12-28T14:15:40.000Z</time>
      </trkpt>
      <trkpt lat="44.33933" lon="2.49159">
        <ele>506.6</ele>
        <time>2024-12-28T14:15:47.099Z</time>
      </trkpt>
      <trkpt lat="44.33933" lon="2.49159">
        <ele>506.7</ele>
        <time>2024-12-28T14:15:58.000Z</time>
      </trkpt>
      <trkpt lat="44.33933" lon="2.49159">
        <ele>506.7</ele>
        <time>2024-12-28T14:15:59.000Z</time>
      </trkpt>
      <trkpt lat="44.33933" lon="2.49159">
        <ele>506.7</ele>
        <time>2024-12-28T14:16:00.000Z</time>
      </trkpt>
      <trkpt lat="44.33933" lon="2.49159">
        <ele>506.7</ele>
        <time>2024-12-28T14:16:00.100Z</time>
      </trkpt>
      <trkpt lat="44.33933" lon="2.49159">
        <ele>506.8</ele>
        <time>2024-12-28T14:16:04.000Z</time>
      </trkpt>
      <trkpt lat="44.33933" lon="2.49159">
        <ele>506.8</ele>
        <time>2024-12-28T14:16:05.000Z</time>
      </trkpt>
      <trkpt lat="44.33933" lon="2.49159">
        <ele>506.8</ele>
        <time>2024-12-28T14:16:07.100Z</time>
      </trkpt>
      <trkpt lat="44.33933" lon="2.49159">
        <ele>506.9</ele>
        <time>2024-12-28T14:16:15.000Z</time>
      </trkpt>
      <trkpt lat="44.33933" lon="2.49159">
        <ele>506.9</ele>
        <time>2024-12-28T14:16:16.000Z</time>
      </trkpt>
      <trkpt lat="44.33932" lon="2.49158">
        <ele>506.9</ele>
        <time>2024-12-28T14:16:17.000Z</time>
      </trkpt>
      <trkpt lat="44.33926" lon="2.49158">
        <ele>506.9</ele>
        <time>2024-12-28T14:16:22.000Z</time>
      </trkpt>
      <trkpt lat="44.33922" lon="2.49156">
        <ele>506.9</ele>
        <time>2024-12-28T14:16:27.000Z</time>
      </trkpt>
      <trkpt lat="44.33918" lon="2.49154">
        <ele>507</ele>
        <time>2024-12-28T14:16:32.000Z</time>
      </trkpt>
      <trkpt lat="44.33913" lon="2.49156">
        <ele>506.9</ele>
        <time>2024-12-28T14:16:36.000Z</time>
      </trkpt>
      <trkpt lat="44.33909" lon="2.49158">
        <ele>506.9</ele>
        <time>2024-12-28T14:16:40.000Z</time>
      </trkpt>
      <trkpt lat="44.33904" lon="2.4916">
        <ele>506.8</ele>
        <time>2024-12-28T14:16:44.000Z</time>
      </trkpt>
      <trkpt lat="44.33899" lon="2.49163">
        <ele>506.7</ele>
        <time>2024-12-28T14:16:48.000Z</time>
      </trkpt>
      <trkpt lat="44.33894" lon="2.49165">
        <ele>506.5</ele>
        <time>2024-12-28T14:16:52.000Z</time>
      </trkpt>
      <trkpt lat="44.3389" lon="2.49168">
        <ele>506.3</ele>
        <time>2024-12-28T14:16:56.000Z</time>
      </trkpt>
      <trkpt lat="44.33885" lon="2.4917">
        <ele>505.9</ele>
        <time>2024-12-28T14:17:00.000Z</time>
      </trkpt>
      <trkpt lat="44.3388" lon="2.4917">
        <ele>505.5</ele>
        <time>2024-12-28T14:17:04.000Z</time>
      </trkpt>
      <trkpt lat="44.33875" lon="2.49172">
        <ele>504.9</ele>
        <time>2024-12-28T14:17:08.000Z</time>
      </trkpt>
      <trkpt lat="44.3387" lon="2.49173">
        <ele>504.2</ele>
        <time>2024-12-28T14:17:12.000Z</time>
      </trkpt>
      <trkpt lat="44.33865" lon="2.49175">
        <ele>503.6</ele>
        <time>2024-12-28T14:17:16.000Z</time>
      </trkpt>
      <trkpt lat="44.3386" lon="2.49176">
        <ele>502.9</ele>
        <time>2024-12-28T14:17:20.000Z</time>
      </trkpt>
      <trkpt lat="44.33855" lon="2.49177">
        <ele>502.3</ele>
        <time>2024-12-28T14:17:24.000Z</time>
      </trkpt>
      <trkpt lat="44.3385" lon="2.49177">
        <ele>501.7</ele>
        <time>2024-12-28T14:17:28.000Z</time>
      </trkpt>
      <trkpt lat="44.33845" lon="2.49178">
        <ele>501.2</ele>
        <time>2024-12-28T14:17:32.000Z</time>
      </trkpt>
      <trkpt lat="44.33841" lon="2.49179">
        <ele>500.7</ele>
        <time>2024-12-28T14:17:36.000Z</time>
      </trkpt>
      <trkpt lat="44.33836" lon="2.49182">
        <ele>500.3</ele>
        <time>2024-12-28T14:17:40.000Z</time>
      </trkpt>
      <trkpt lat="44.33831" lon="2.49185">
        <ele>500.1</ele>
        <time>2024-12-28T14:17:44.000Z</time>
      </trkpt>
      <trkpt lat="44.33827" lon="2.49187">
        <ele>499.9</ele>
        <time>2024-12-28T14:17:48.000Z</time>
      </trkpt>
      <trkpt lat="44.33822" lon="2.4919">
        <ele>499.8</ele>
        <time>2024-12-28T14:17:52.000Z</time>
      </trkpt>
      <trkpt lat="44.33821" lon="2.49191">
        <ele>499</ele>
        <time>2024-12-28T14:18:09.100Z</time>
      </trkpt>
      <trkpt lat="44.33821" lon="2.49191">
        <ele>498.7</ele>
        <time>2024-12-28T14:18:23.000Z</time>
      </trkpt>
      <trkpt lat="44.3382" lon="2.49191">
        <ele>498.6</ele>
        <time>2024-12-28T14:18:24.000Z</time>
      </trkpt>
      <trkpt lat="44.33815" lon="2.49193">
        <ele>498.6</ele>
        <time>2024-12-28T14:18:29.000Z</time>
      </trkpt>
      <trkpt lat="44.3381" lon="2.49195">
        <ele>498.5</ele>
        <time>2024-12-28T14:18:33.000Z</time>
      </trkpt>
      <trkpt lat="44.33805" lon="2.49197">
        <ele>498.5</ele>
        <time>2024-12-28T14:18:37.000Z</time>
      </trkpt>
      <trkpt lat="44.33799" lon="2.49199">
        <ele>498.4</ele>
        <time>2024-12-28T14:18:41.000Z</time>
      </trkpt>
      <trkpt lat="44.33794" lon="2.492">
        <ele>498.3</ele>
        <time>2024-12-28T14:18:45.000Z</time>
      </trkpt>
      <trkpt lat="44.33789" lon="2.49202">
        <ele>498.2</ele>
        <time>2024-12-28T14:18:49.000Z</time>
      </trkpt>
      <trkpt lat="44.33784" lon="2.49204">
        <ele>498.3</ele>
        <time>2024-12-28T14:18:53.000Z</time>
      </trkpt>
      <trkpt lat="44.33779" lon="2.49205">
        <ele>498.4</ele>
        <time>2024-12-28T14:18:57.000Z</time>
      </trkpt>
      <trkpt lat="44.33774" lon="2.49207">
        <ele>498.4</ele>
        <time>2024-12-28T14:19:01.000Z</time>
      </trkpt>
      <trkpt lat="44.33769" lon="2.49208">
        <ele>498.4</ele>
        <time>2024-12-28T14:19:05.000Z</time>
      </trkpt>
      <trkpt lat="44.33764" lon="2.4921">
        <ele>498.3</ele>
        <time>2024-12-28T14:19:09.000Z</time>
      </trkpt>
      <trkpt lat="44.3376" lon="2.49212">
        <ele>498.1</ele>
        <time>2024-12-28T14:19:13.000Z</time>
      </trkpt>
      <trkpt lat="44.33755" lon="2.49214">
        <ele>497.5</ele>
        <time>2024-12-28T14:19:18.000Z</time>
      </trkpt>
      <trkpt lat="44.3375" lon="2.49215">
        <ele>496.7</ele>
        <time>2024-12-28T14:19:22.000Z</time>
      </trkpt>
      <trkpt lat="44.33746" lon="2.49217">
        <ele>495.9</ele>
        <time>2024-12-28T14:19:26.000Z</time>
      </trkpt>
      <trkpt lat="44.33741" lon="2.49219">
        <ele>494.9</ele>
        <time>2024-12-28T14:19:31.000Z</time>
      </trkpt>
      <trkpt lat="44.33736" lon="2.49222">
        <ele>492.9</ele>
        <time>2024-12-28T14:19:47.000Z</time>
      </trkpt>
      <trkpt lat="44.33734" lon="2.49228">
        <ele>492.5</ele>
        <time>2024-12-28T14:19:52.000Z</time>
      </trkpt>
      <trkpt lat="44.33731" lon="2.49234">
        <ele>492.1</ele>
        <time>2024-12-28T14:19:57.000Z</time>
      </trkpt>
      <trkpt lat="44.33728" lon="2.49239">
        <ele>491.6</ele>
        <time>2024-12-28T14:20:01.000Z</time>
      </trkpt>
      <trkpt lat="44.33724" lon="2.49243">
        <ele>491.1</ele>
        <time>2024-12-28T14:20:06.000Z</time>
      </trkpt>
      <trkpt lat="44.33719" lon="2.49248">
        <ele>490.5</ele>
        <time>2024-12-28T14:20:11.000Z</time>
      </trkpt>
      <trkpt lat="44.33714" lon="2.49252">
        <ele>489.9</ele>
        <time>2024-12-28T14:20:16.000Z</time>
      </trkpt>
      <trkpt lat="44.33709" lon="2.49255">
        <ele>489.6</ele>
        <time>2024-12-28T14:20:21.000Z</time>
      </trkpt>
      <trkpt lat="44.33705" lon="2.49258">
        <ele>489.5</ele>
        <time>2024-12-28T14:20:25.000Z</time>
      </trkpt>
      <trkpt lat="44.33701" lon="2.49261">
        <ele>489.5</ele>
        <time>2024-12-28T14:20:29.000Z</time>
      </trkpt>
      <trkpt lat="44.33696" lon="2.49265">
        <ele>489.2</ele>
        <time>2024-12-28T14:20:34.000Z</time>
      </trkpt>
      <trkpt lat="44.33692" lon="2.49269">
        <ele>488.7</ele>
        <time>2024-12-28T14:20:39.000Z</time>
      </trkpt>
      <trkpt lat="44.33687" lon="2.49273">
        <ele>488.3</ele>
        <time>2024-12-28T14:20:44.000Z</time>
      </trkpt>
      <trkpt lat="44.33683" lon="2.49278">
        <ele>487.7</ele>
        <time>2024-12-28T14:20:49.000Z</time>
      </trkpt>
      <trkpt lat="44.33685" lon="2.49278">
        <ele>486.2</ele>
        <time>2024-12-28T14:21:00.100Z</time>
      </trkpt>
      <trkpt lat="44.33687" lon="2.49275">
        <ele>485.9</ele>
        <time>2024-12-28T14:21:04.000Z</time>
      </trkpt>
      <trkpt lat="44.33688" lon="2.49273">
        <ele>485.9</ele>
        <time>2024-12-28T14:21:05.000Z</time>
      </trkpt>
      <trkpt lat="44.33689" lon="2.49267">
        <ele>485.7</ele>
        <time>2024-12-28T14:21:10.000Z</time>
      </trkpt>
      <trkpt lat="44.33688" lon="2.49267">
        <ele>485.5</ele>
        <time>2024-12-28T14:21:15.100Z</time>
      </trkpt>
      <trkpt lat="44.33686" lon="2.49265">
        <ele>485.3</ele>
        <time>2024-12-28T14:21:27.000Z</time>
      </trkpt>
      <trkpt lat="44.33684" lon="2.49265">
        <ele>485.3</ele>
        <time>2024-12-28T14:21:34.099Z</time>
      </trkpt>
      <trkpt lat="44.33682" lon="2.49263">
        <ele>485.4</ele>
        <time>2024-12-28T14:21:41.000Z</time>
      </trkpt>
      <trkpt lat="44.33681" lon="2.49262">
        <ele>485.5</ele>
        <time>2024-12-28T14:21:42.000Z</time>
      </trkpt>
      <trkpt lat="44.33679" lon="2.49261">
        <ele>485.5</ele>
        <time>2024-12-28T14:21:43.000Z</time>
      </trkpt>
      <trkpt lat="44.33676" lon="2.49256">
        <ele>485.5</ele>
        <time>2024-12-28T14:21:47.000Z</time>
      </trkpt>
      <trkpt lat="44.33679" lon="2.49262">
        <ele>485.3</ele>
        <time>2024-12-28T14:21:56.000Z</time>
      </trkpt>
      <trkpt lat="44.33683" lon="2.49266">
        <ele>485.1</ele>
        <time>2024-12-28T14:22:00.000Z</time>
      </trkpt>
      <trkpt lat="44.33686" lon="2.49271">
        <ele>484.8</ele>
        <time>2024-12-28T14:22:04.000Z</time>
      </trkpt>
      <trkpt lat="44.33684" lon="2.49277">
        <ele>484.5</ele>
        <time>2024-12-28T14:22:09.000Z</time>
      </trkpt>
      <trkpt lat="44.33681" lon="2.49282">
        <ele>484.2</ele>
        <time>2024-12-28T14:22:14.000Z</time>
      </trkpt>
      <trkpt lat="44.33676" lon="2.49286">
        <ele>484</ele>
        <time>2024-12-28T14:22:18.000Z</time>
      </trkpt>
      <trkpt lat="44.33673" lon="2.49291">
        <ele>483.9</ele>
        <time>2024-12-28T14:22:23.000Z</time>
      </trkpt>
      <trkpt lat="44.33669" lon="2.49297">
        <ele>483.8</ele>
        <time>2024-12-28T14:22:28.000Z</time>
      </trkpt>
      <trkpt lat="44.33666" lon="2.49301">
        <ele>483.9</ele>
        <time>2024-12-28T14:22:37.000Z</time>
      </trkpt>
      <trkpt lat="44.33662" lon="2.49306">
        <ele>484.1</ele>
        <time>2024-12-28T14:22:43.000Z</time>
      </trkpt>
      <trkpt lat="44.33662" lon="2.49306">
        <ele>484.1</ele>
        <time>2024-12-28T14:22:44.099Z</time>
      </trkpt>
      <trkpt lat="44.3366" lon="2.49308">
        <ele>484.3</ele>
        <time>2024-12-28T14:22:48.000Z</time>
      </trkpt>
      <trkpt lat="44.3366" lon="2.49309">
        <ele>484.4</ele>
        <time>2024-12-28T14:22:49.000Z</time>
      </trkpt>
      <trkpt lat="44.33659" lon="2.49309">
        <ele>484.4</ele>
        <time>2024-12-28T14:22:50.000Z</time>
      </trkpt>
      <trkpt lat="44.33655" lon="2.49313">
        <ele>484.7</ele>
        <time>2024-12-28T14:22:55.000Z</time>
      </trkpt>
      <trkpt lat="44.33652" lon="2.49318">
        <ele>484.9</ele>
        <time>2024-12-28T14:22:59.000Z</time>
      </trkpt>
      <trkpt lat="44.33648" lon="2.49323">
        <ele>485.1</ele>
        <time>2024-12-28T14:23:03.000Z</time>
      </trkpt>
      <trkpt lat="44.33643" lon="2.49325">
        <ele>485.5</ele>
        <time>2024-12-28T14:23:08.000Z</time>
      </trkpt>
      <trkpt lat="44.33638" lon="2.49328">
        <ele>486.6</ele>
        <time>2024-12-28T14:23:14.000Z</time>
      </trkpt>
      <trkpt lat="44.33634" lon="2.49331">
        <ele>487.6</ele>
        <time>2024-12-28T14:23:18.000Z</time>
      </trkpt>
      <trkpt lat="44.33629" lon="2.49333">
        <ele>488.3</ele>
        <time>2024-12-28T14:23:21.000Z</time>
      </trkpt>
      <trkpt lat="44.33624" lon="2.49337">
        <ele>489.3</ele>
        <time>2024-12-28T14:23:25.000Z</time>
      </trkpt>
      <trkpt lat="44.3362" lon="2.4934">
        <ele>489.9</ele>
        <time>2024-12-28T14:23:29.000Z</time>
      </trkpt>
      <trkpt lat="44.33615" lon="2.49343">
        <ele>490.4</ele>
        <time>2024-12-28T14:23:33.000Z</time>
      </trkpt>
      <trkpt lat="44.33611" lon="2.49346">
        <ele>490.5</ele>
        <time>2024-12-28T14:23:37.000Z</time>
      </trkpt>
      <trkpt lat="44.33606" lon="2.49347">
        <ele>490.7</ele>
        <time>2024-12-28T14:23:42.000Z</time>
      </trkpt>
      <trkpt lat="44.33601" lon="2.49349">
        <ele>490.7</ele>
        <time>2024-12-28T14:23:46.000Z</time>
      </trkpt>
      <trkpt lat="44.33596" lon="2.49351">
        <ele>490.7</ele>
        <time>2024-12-28T14:23:50.000Z</time>
      </trkpt>
      <trkpt lat="44.33592" lon="2.49353">
        <ele>490.7</ele>
        <time>2024-12-28T14:23:54.000Z</time>
      </trkpt>
      <trkpt lat="44.33587" lon="2.49353">
        <ele>490.8</ele>
        <time>2024-12-28T14:23:58.000Z</time>
      </trkpt>
      <trkpt lat="44.33583" lon="2.49355">
        <ele>490.8</ele>
        <time>2024-12-28T14:24:02.000Z</time>
      </trkpt>
      <trkpt lat="44.33578" lon="2.49357">
        <ele>490.9</ele>
        <time>2024-12-28T14:24:06.000Z</time>
      </trkpt>
      <trkpt lat="44.33573" lon="2.49359">
        <ele>490.9</ele>
        <time>2024-12-28T14:24:10.000Z</time>
      </trkpt>
      <trkpt lat="44.33568" lon="2.49362">
        <ele>490.9</ele>
        <time>2024-12-28T14:24:14.000Z</time>
      </trkpt>
      <trkpt lat="44.33564" lon="2.49364">
        <ele>490.9</ele>
        <time>2024-12-28T14:24:18.000Z</time>
      </trkpt>
      <trkpt lat="44.33559" lon="2.49365">
        <ele>490.9</ele>
        <time>2024-12-28T14:24:22.000Z</time>
      </trkpt>
      <trkpt lat="44.33555" lon="2.49366">
        <ele>490.9</ele>
        <time>2024-12-28T14:24:26.000Z</time>
      </trkpt>
      <trkpt lat="44.3355" lon="2.49369">
        <ele>490.9</ele>
        <time>2024-12-28T14:24:31.000Z</time>
      </trkpt>
      <trkpt lat="44.33545" lon="2.49369">
        <ele>490.9</ele>
        <time>2024-12-28T14:24:35.000Z</time>
      </trkpt>
      <trkpt lat="44.33539" lon="2.49371">
        <ele>490.9</ele>
        <time>2024-12-28T14:24:39.000Z</time>
      </trkpt>
      <trkpt lat="44.33535" lon="2.49374">
        <ele>490.9</ele>
        <time>2024-12-28T14:24:43.000Z</time>
      </trkpt>
      <trkpt lat="44.3353" lon="2.49376">
        <ele>490.8</ele>
        <time>2024-12-28T14:24:47.000Z</time>
      </trkpt>
      <trkpt lat="44.33525" lon="2.49379">
        <ele>490.8</ele>
        <time>2024-12-28T14:24:51.000Z</time>
      </trkpt>
      <trkpt lat="44.3352" lon="2.49381">
        <ele>490.7</ele>
        <time>2024-12-28T14:24:56.000Z</time>
      </trkpt>
      <trkpt lat="44.33515" lon="2.49384">
        <ele>490.6</ele>
        <time>2024-12-28T14:25:00.000Z</time>
      </trkpt>
      <trkpt lat="44.3351" lon="2.49386">
        <ele>490.5</ele>
        <time>2024-12-28T14:25:04.000Z</time>
      </trkpt>
      <trkpt lat="44.33505" lon="2.49387">
        <ele>490.4</ele>
        <time>2024-12-28T14:25:08.000Z</time>
      </trkpt>
      <trkpt lat="44.33501" lon="2.4939">
        <ele>490.2</ele>
        <time>2024-12-28T14:25:11.000Z</time>
      </trkpt>
      <trkpt lat="44.33496" lon="2.49392">
        <ele>490</ele>
        <time>2024-12-28T14:25:14.000Z</time>
      </trkpt>
      <trkpt lat="44.33491" lon="2.49394">
        <ele>489.7</ele>
        <time>2024-12-28T14:25:18.000Z</time>
      </trkpt>
      <trkpt lat="44.33486" lon="2.49395">
        <ele>489.4</ele>
        <time>2024-12-28T14:25:22.000Z</time>
      </trkpt>
      <trkpt lat="44.33481" lon="2.49396">
        <ele>489.3</ele>
        <time>2024-12-28T14:25:25.000Z</time>
      </trkpt>
      <trkpt lat="44.33476" lon="2.49397">
        <ele>489.1</ele>
        <time>2024-12-28T14:25:29.000Z</time>
      </trkpt>
      <trkpt lat="44.3347" lon="2.49398">
        <ele>489</ele>
        <time>2024-12-28T14:25:32.000Z</time>
      </trkpt>
      <trkpt lat="44.33466" lon="2.494">
        <ele>488.8</ele>
        <time>2024-12-28T14:25:35.000Z</time>
      </trkpt>
      <trkpt lat="44.3346" lon="2.49403">
        <ele>488.5</ele>
        <time>2024-12-28T14:25:39.000Z</time>
      </trkpt>
      <trkpt lat="44.33455" lon="2.49404">
        <ele>488.5</ele>
        <time>2024-12-28T14:25:43.000Z</time>
      </trkpt>
      <trkpt lat="44.3345" lon="2.49405">
        <ele>488.7</ele>
        <time>2024-12-28T14:25:47.000Z</time>
      </trkpt>
      <trkpt lat="44.33444" lon="2.49405">
        <ele>489</ele>
        <time>2024-12-28T14:25:51.000Z</time>
      </trkpt>
      <trkpt lat="44.33439" lon="2.49404">
        <ele>489.4</ele>
        <time>2024-12-28T14:25:55.000Z</time>
      </trkpt>
      <trkpt lat="44.33434" lon="2.49404">
        <ele>489.8</ele>
        <time>2024-12-28T14:25:59.000Z</time>
      </trkpt>
      <trkpt lat="44.33428" lon="2.49403">
        <ele>490.5</ele>
        <time>2024-12-28T14:26:03.000Z</time>
      </trkpt>
      <trkpt lat="44.33423" lon="2.49404">
        <ele>491.2</ele>
        <time>2024-12-28T14:26:07.000Z</time>
      </trkpt>
      <trkpt lat="44.33418" lon="2.49407">
        <ele>491.6</ele>
        <time>2024-12-28T14:26:11.000Z</time>
      </trkpt>
      <trkpt lat="44.33413" lon="2.49409">
        <ele>491.7</ele>
        <time>2024-12-28T14:26:15.000Z</time>
      </trkpt>
      <trkpt lat="44.33408" lon="2.4941">
        <ele>491.9</ele>
        <time>2024-12-28T14:26:20.000Z</time>
      </trkpt>
      <trkpt lat="44.33403" lon="2.49412">
        <ele>492</ele>
        <time>2024-12-28T14:26:25.000Z</time>
      </trkpt>
      <trkpt lat="44.33399" lon="2.49414">
        <ele>492.1</ele>
        <time>2024-12-28T14:26:29.000Z</time>
      </trkpt>
      <trkpt lat="44.33394" lon="2.49416">
        <ele>492.3</ele>
        <time>2024-12-28T14:26:34.000Z</time>
      </trkpt>
      <trkpt lat="44.33388" lon="2.49418">
        <ele>492.5</ele>
        <time>2024-12-28T14:26:39.000Z</time>
      </trkpt>
      <trkpt lat="44.33383" lon="2.49421">
        <ele>492.6</ele>
        <time>2024-12-28T14:26:43.000Z</time>
      </trkpt>
      <trkpt lat="44.33379" lon="2.49423">
        <ele>492.6</ele>
        <time>2024-12-28T14:26:47.000Z</time>
      </trkpt>
      <trkpt lat="44.33374" lon="2.49425">
        <ele>492.6</ele>
        <time>2024-12-28T14:26:51.000Z</time>
      </trkpt>
      <trkpt lat="44.33369" lon="2.49428">
        <ele>492.6</ele>
        <time>2024-12-28T14:26:55.000Z</time>
      </trkpt>
      <trkpt lat="44.33364" lon="2.49431">
        <ele>492.7</ele>
        <time>2024-12-28T14:27:00.000Z</time>
      </trkpt>
      <trkpt lat="44.3336" lon="2.49434">
        <ele>492.8</ele>
        <time>2024-12-28T14:27:04.000Z</time>
      </trkpt>
      <trkpt lat="44.33354" lon="2.49436">
        <ele>493</ele>
        <time>2024-12-28T14:27:09.000Z</time>
      </trkpt>
      <trkpt lat="44.3335" lon="2.49438">
        <ele>493.3</ele>
        <time>2024-12-28T14:27:12.000Z</time>
      </trkpt>
      <trkpt lat="44.33344" lon="2.49441">
        <ele>493.5</ele>
        <time>2024-12-28T14:27:15.000Z</time>
      </trkpt>
      <trkpt lat="44.3334" lon="2.49445">
        <ele>493.8</ele>
        <time>2024-12-28T14:27:18.000Z</time>
      </trkpt>
      <trkpt lat="44.33335" lon="2.49448">
        <ele>494.2</ele>
        <time>2024-12-28T14:27:22.000Z</time>
      </trkpt>
      <trkpt lat="44.3333" lon="2.49449">
        <ele>494.6</ele>
        <time>2024-12-28T14:27:27.000Z</time>
      </trkpt>
      <trkpt lat="44.33325" lon="2.49451">
        <ele>494.7</ele>
        <time>2024-12-28T14:27:31.000Z</time>
      </trkpt>
      <trkpt lat="44.3332" lon="2.4945">
        <ele>495</ele>
        <time>2024-12-28T14:27:34.000Z</time>
      </trkpt>
      <trkpt lat="44.33315" lon="2.49451">
        <ele>495.3</ele>
        <time>2024-12-28T14:27:38.000Z</time>
      </trkpt>
      <trkpt lat="44.3331" lon="2.49451">
        <ele>495.7</ele>
        <time>2024-12-28T14:27:43.000Z</time>
      </trkpt>
      <trkpt lat="44.33305" lon="2.49452">
        <ele>495.8</ele>
        <time>2024-12-28T14:27:47.000Z</time>
      </trkpt>
      <trkpt lat="44.33299" lon="2.4945">
        <ele>496</ele>
        <time>2024-12-28T14:27:51.000Z</time>
      </trkpt>
      <trkpt lat="44.33294" lon="2.4945">
        <ele>496.2</ele>
        <time>2024-12-28T14:27:55.000Z</time>
      </trkpt>
      <trkpt lat="44.33289" lon="2.49448">
        <ele>496.3</ele>
        <time>2024-12-28T14:27:59.000Z</time>
      </trkpt>
      <trkpt lat="44.33284" lon="2.49447">
        <ele>496.4</ele>
        <time>2024-12-28T14:28:03.000Z</time>
      </trkpt>
      <trkpt lat="44.33278" lon="2.49446">
        <ele>496.5</ele>
        <time>2024-12-28T14:28:07.000Z</time>
      </trkpt>
      <trkpt lat="44.33274" lon="2.49445">
        <ele>496.9</ele>
        <time>2024-12-28T14:28:13.000Z</time>
      </trkpt>
      <trkpt lat="44.33268" lon="2.49445">
        <ele>497</ele>
        <time>2024-12-28T14:28:17.000Z</time>
      </trkpt>
      <trkpt lat="44.33263" lon="2.49445">
        <ele>497</ele>
        <time>2024-12-28T14:28:22.000Z</time>
      </trkpt>
      <trkpt lat="44.33258" lon="2.49444">
        <ele>497</ele>
        <time>2024-12-28T14:28:25.000Z</time>
      </trkpt>
      <trkpt lat="44.33254" lon="2.49445">
        <ele>497</ele>
        <time>2024-12-28T14:28:28.000Z</time>
      </trkpt>
      <trkpt lat="44.33248" lon="2.49445">
        <ele>497.1</ele>
        <time>2024-12-28T14:28:33.000Z</time>
      </trkpt>
      <trkpt lat="44.33242" lon="2.49446">
        <ele>497.3</ele>
        <time>2024-12-28T14:28:37.000Z</time>
      </trkpt>
      <trkpt lat="44.33237" lon="2.49445">
        <ele>497.2</ele>
        <time>2024-12-28T14:28:41.000Z</time>
      </trkpt>
      <trkpt lat="44.33231" lon="2.49442">
        <ele>497.1</ele>
        <time>2024-12-28T14:28:45.000Z</time>
      </trkpt>
      <trkpt lat="44.33227" lon="2.4944">
        <ele>496.8</ele>
        <time>2024-12-28T14:28:49.000Z</time>
      </trkpt>
      <trkpt lat="44.33222" lon="2.49437">
        <ele>496.6</ele>
        <time>2024-12-28T14:28:53.000Z</time>
      </trkpt>
      <trkpt lat="44.33217" lon="2.49434">
        <ele>496.4</ele>
        <time>2024-12-28T14:28:58.000Z</time>
      </trkpt>
      <trkpt lat="44.33213" lon="2.49434">
        <ele>496.2</ele>
        <time>2024-12-28T14:29:03.000Z</time>
      </trkpt>
      <trkpt lat="44.33209" lon="2.49437">
        <ele>494.9</ele>
        <time>2024-12-28T14:29:15.000Z</time>
      </trkpt>
      <trkpt lat="44.33204" lon="2.49441">
        <ele>494.1</ele>
        <time>2024-12-28T14:29:22.000Z</time>
      </trkpt>
      <trkpt lat="44.33201" lon="2.49446">
        <ele>493.5</ele>
        <time>2024-12-28T14:29:29.000Z</time>
      </trkpt>
      <trkpt lat="44.33196" lon="2.49449">
        <ele>493</ele>
        <time>2024-12-28T14:29:35.000Z</time>
      </trkpt>
      <trkpt lat="44.33191" lon="2.49451">
        <ele>492.9</ele>
        <time>2024-12-28T14:29:38.000Z</time>
      </trkpt>
      <trkpt lat="44.33187" lon="2.49453">
        <ele>492.8</ele>
        <time>2024-12-28T14:29:40.000Z</time>
      </trkpt>
      <trkpt lat="44.33181" lon="2.49457">
        <ele>492.5</ele>
        <time>2024-12-28T14:29:44.000Z</time>
      </trkpt>
      <trkpt lat="44.33175" lon="2.4946">
        <ele>492</ele>
        <time>2024-12-28T14:29:47.000Z</time>
      </trkpt>
      <trkpt lat="44.3317" lon="2.49462">
        <ele>491.5</ele>
        <time>2024-12-28T14:29:50.000Z</time>
      </trkpt>
      <trkpt lat="44.33166" lon="2.49465">
        <ele>490.9</ele>
        <time>2024-12-28T14:29:54.000Z</time>
      </trkpt>
      <trkpt lat="44.33161" lon="2.4947">
        <ele>490.4</ele>
        <time>2024-12-28T14:29:59.000Z</time>
      </trkpt>
      <trkpt lat="44.33156" lon="2.49474">
        <ele>490.3</ele>
        <time>2024-12-28T14:30:04.000Z</time>
      </trkpt>
      <trkpt lat="44.3315" lon="2.49475">
        <ele>490.4</ele>
        <time>2024-12-28T14:30:07.000Z</time>
      </trkpt>
      <trkpt lat="44.33145" lon="2.49478">
        <ele>490.5</ele>
        <time>2024-12-28T14:30:11.000Z</time>
      </trkpt>
      <trkpt lat="44.33139" lon="2.49482">
        <ele>490.7</ele>
        <time>2024-12-28T14:30:15.000Z</time>
      </trkpt>
      <trkpt lat="44.33134" lon="2.49483">
        <ele>490.9</ele>
        <time>2024-12-28T14:30:21.000Z</time>
      </trkpt>
      <trkpt lat="44.3313" lon="2.49484">
        <ele>491.1</ele>
        <time>2024-12-28T14:30:25.000Z</time>
      </trkpt>
      <trkpt lat="44.33125" lon="2.49488">
        <ele>491.2</ele>
        <time>2024-12-28T14:30:29.000Z</time>
      </trkpt>
      <trkpt lat="44.33121" lon="2.49492">
        <ele>491.4</ele>
        <time>2024-12-28T14:30:33.000Z</time>
      </trkpt>
      <trkpt lat="44.33116" lon="2.49495">
        <ele>491.7</ele>
        <time>2024-12-28T14:30:37.000Z</time>
      </trkpt>
      <trkpt lat="44.33112" lon="2.49498">
        <ele>491.8</ele>
        <time>2024-12-28T14:30:40.000Z</time>
      </trkpt>
      <trkpt lat="44.33107" lon="2.49502">
        <ele>491.7</ele>
        <time>2024-12-28T14:30:44.000Z</time>
      </trkpt>
      <trkpt lat="44.33102" lon="2.49506">
        <ele>491.5</ele>
        <time>2024-12-28T14:30:48.000Z</time>
      </trkpt>
      <trkpt lat="44.33098" lon="2.4951">
        <ele>491.4</ele>
        <time>2024-12-28T14:30:53.000Z</time>
      </trkpt>
      <trkpt lat="44.33094" lon="2.49514">
        <ele>491.3</ele>
        <time>2024-12-28T14:31:00.000Z</time>
      </trkpt>
      <trkpt lat="44.33094" lon="2.49521">
        <ele>491.5</ele>
        <time>2024-12-28T14:31:05.000Z</time>
      </trkpt>
      <trkpt lat="44.33096" lon="2.49528">
        <ele>491.9</ele>
        <time>2024-12-28T14:31:09.000Z</time>
      </trkpt>
      <trkpt lat="44.33096" lon="2.49535">
        <ele>492.6</ele>
        <time>2024-12-28T14:31:13.000Z</time>
      </trkpt>
      <trkpt lat="44.33098" lon="2.49542">
        <ele>493.4</ele>
        <time>2024-12-28T14:31:17.000Z</time>
      </trkpt>
      <trkpt lat="44.33098" lon="2.49548">
        <ele>496</ele>
        <time>2024-12-28T14:31:23.000Z</time>
      </trkpt>
      <trkpt lat="44.33096" lon="2.49554">
        <ele>499.7</ele>
        <time>2024-12-28T14:31:32.000Z</time>
      </trkpt>
      <trkpt lat="44.33093" lon="2.4956">
        <ele>501.2</ele>
        <time>2024-12-28T14:31:39.000Z</time>
      </trkpt>
      <trkpt lat="44.33093" lon="2.49566">
        <ele>501.9</ele>
        <time>2024-12-28T14:31:46.000Z</time>
      </trkpt>
      <trkpt lat="44.33089" lon="2.4957">
        <ele>503.3</ele>
        <time>2024-12-28T14:31:54.000Z</time>
      </trkpt>
      <trkpt lat="44.33087" lon="2.49576">
        <ele>505</ele>
        <time>2024-12-28T14:32:00.000Z</time>
      </trkpt>
      <trkpt lat="44.33086" lon="2.49582">
        <ele>505.8</ele>
        <time>2024-12-28T14:32:04.000Z</time>
      </trkpt>
      <trkpt lat="44.33082" lon="2.49589">
        <ele>506.6</ele>
        <time>2024-12-28T14:32:09.000Z</time>
      </trkpt>
      <trkpt lat="44.33079" lon="2.49595">
        <ele>507.1</ele>
        <time>2024-12-28T14:32:15.000Z</time>
      </trkpt>
      <trkpt lat="44.33077" lon="2.49601">
        <ele>507.5</ele>
        <time>2024-12-28T14:32:19.000Z</time>
      </trkpt>
      <trkpt lat="44.33077" lon="2.49608">
        <ele>508.4</ele>
        <time>2024-12-28T14:32:25.000Z</time>
      </trkpt>
      <trkpt lat="44.33074" lon="2.49614">
        <ele>509</ele>
        <time>2024-12-28T14:32:30.000Z</time>
      </trkpt>
      <trkpt lat="44.33072" lon="2.4962">
        <ele>509.3</ele>
        <time>2024-12-28T14:32:33.000Z</time>
      </trkpt>
      <trkpt lat="44.33072" lon="2.49627">
        <ele>509.8</ele>
        <time>2024-12-28T14:32:42.000Z</time>
      </trkpt>
      <trkpt lat="44.33073" lon="2.49634">
        <ele>510.3</ele>
        <time>2024-12-28T14:32:50.000Z</time>
      </trkpt>
      <trkpt lat="44.33071" lon="2.49641">
        <ele>510.8</ele>
        <time>2024-12-28T14:32:56.000Z</time>
      </trkpt>
      <trkpt lat="44.33067" lon="2.49646">
        <ele>512</ele>
        <time>2024-12-28T14:33:04.000Z</time>
      </trkpt>
      <trkpt lat="44.33063" lon="2.49649">
        <ele>513.3</ele>
        <time>2024-12-28T14:33:10.000Z</time>
      </trkpt>
      <trkpt lat="44.3306" lon="2.49655">
        <ele>514.3</ele>
        <time>2024-12-28T14:33:15.000Z</time>
      </trkpt>
      <trkpt lat="44.33056" lon="2.4966">
        <ele>515.4</ele>
        <time>2024-12-28T14:33:20.000Z</time>
      </trkpt>
      <trkpt lat="44.33052" lon="2.49665">
        <ele>516.7</ele>
        <time>2024-12-28T14:33:25.000Z</time>
      </trkpt>
      <trkpt lat="44.33051" lon="2.49672">
        <ele>518.2</ele>
        <time>2024-12-28T14:33:30.000Z</time>
      </trkpt>
      <trkpt lat="44.33048" lon="2.49677">
        <ele>520.8</ele>
        <time>2024-12-28T14:33:36.000Z</time>
      </trkpt>
      <trkpt lat="44.33044" lon="2.49681">
        <ele>524.2</ele>
        <time>2024-12-28T14:33:48.000Z</time>
      </trkpt>
      <trkpt lat="44.3304" lon="2.49683">
        <ele>525</ele>
        <time>2024-12-28T14:33:54.000Z</time>
      </trkpt>
      <trkpt lat="44.33036" lon="2.49687">
        <ele>525.2</ele>
        <time>2024-12-28T14:33:58.000Z</time>
      </trkpt>
      <trkpt lat="44.33032" lon="2.49691">
        <ele>525.1</ele>
        <time>2024-12-28T14:34:01.000Z</time>
      </trkpt>
      <trkpt lat="44.33029" lon="2.49696">
        <ele>525</ele>
        <time>2024-12-28T14:34:04.000Z</time>
      </trkpt>
      <trkpt lat="44.33024" lon="2.49701">
        <ele>525.4</ele>
        <time>2024-12-28T14:34:09.000Z</time>
      </trkpt>
      <trkpt lat="44.3302" lon="2.49704">
        <ele>526.6</ele>
        <time>2024-12-28T14:34:14.000Z</time>
      </trkpt>
      <trkpt lat="44.33017" lon="2.49709">
        <ele>528.2</ele>
        <time>2024-12-28T14:34:19.000Z</time>
      </trkpt>
      <trkpt lat="44.33013" lon="2.49712">
        <ele>529.9</ele>
        <time>2024-12-28T14:34:25.000Z</time>
      </trkpt>
      <trkpt lat="44.33009" lon="2.49717">
        <ele>531</ele>
        <time>2024-12-28T14:34:30.000Z</time>
      </trkpt>
      <trkpt lat="44.33004" lon="2.49721">
        <ele>531.9</ele>
        <time>2024-12-28T14:34:34.000Z</time>
      </trkpt>
      <trkpt lat="44.33" lon="2.49724">
        <ele>532.5</ele>
        <time>2024-12-28T14:34:38.000Z</time>
      </trkpt>
      <trkpt lat="44.32997" lon="2.49731">
        <ele>532.9</ele>
        <time>2024-12-28T14:34:44.000Z</time>
      </trkpt>
      <trkpt lat="44.32993" lon="2.49735">
        <ele>533</ele>
        <time>2024-12-28T14:34:47.000Z</time>
      </trkpt>
      <trkpt lat="44.32989" lon="2.49741">
        <ele>533</ele>
        <time>2024-12-28T14:34:51.000Z</time>
      </trkpt>
      <trkpt lat="44.32986" lon="2.49747">
        <ele>533.1</ele>
        <time>2024-12-28T14:34:55.000Z</time>
      </trkpt>
      <trkpt lat="44.32983" lon="2.49754">
        <ele>533.3</ele>
        <time>2024-12-28T14:35:00.000Z</time>
      </trkpt>
      <trkpt lat="44.32982" lon="2.4976">
        <ele>533.4</ele>
        <time>2024-12-28T14:35:05.000Z</time>
      </trkpt>
      <trkpt lat="44.32979" lon="2.49766">
        <ele>533.4</ele>
        <time>2024-12-28T14:35:08.000Z</time>
      </trkpt>
      <trkpt lat="44.3298" lon="2.49773">
        <ele>533.4</ele>
        <time>2024-12-28T14:35:12.000Z</time>
      </trkpt>
      <trkpt lat="44.32985" lon="2.49774">
        <ele>533.3</ele>
        <time>2024-12-28T14:35:16.000Z</time>
      </trkpt>
      <trkpt lat="44.32989" lon="2.4977">
        <ele>533.2</ele>
        <time>2024-12-28T14:35:23.000Z</time>
      </trkpt>
      <trkpt lat="44.32994" lon="2.49769">
        <ele>533.2</ele>
        <time>2024-12-28T14:35:27.000Z</time>
      </trkpt>
      <trkpt lat="44.32999" lon="2.49767">
        <ele>533.3</ele>
        <time>2024-12-28T14:35:31.000Z</time>
      </trkpt>
      <trkpt lat="44.33004" lon="2.49764">
        <ele>533.5</ele>
        <time>2024-12-28T14:35:35.000Z</time>
      </trkpt>
      <trkpt lat="44.33008" lon="2.49761">
        <ele>533.5</ele>
        <time>2024-12-28T14:35:39.000Z</time>
      </trkpt>
      <trkpt lat="44.33012" lon="2.49757">
        <ele>533.5</ele>
        <time>2024-12-28T14:35:46.000Z</time>
      </trkpt>
      <trkpt lat="44.33017" lon="2.49756">
        <ele>533.6</ele>
        <time>2024-12-28T14:35:49.000Z</time>
      </trkpt>
      <trkpt lat="44.33022" lon="2.49754">
        <ele>533.8</ele>
        <time>2024-12-28T14:35:53.000Z</time>
      </trkpt>
      <trkpt lat="44.33027" lon="2.49753">
        <ele>534.1</ele>
        <time>2024-12-28T14:35:56.000Z</time>
      </trkpt>
      <trkpt lat="44.33032" lon="2.49752">
        <ele>534.7</ele>
        <time>2024-12-28T14:36:00.000Z</time>
      </trkpt>
      <trkpt lat="44.33037" lon="2.49751">
        <ele>536.6</ele>
        <time>2024-12-28T14:36:07.000Z</time>
      </trkpt>
      <trkpt lat="44.33043" lon="2.4975">
        <ele>538.3</ele>
        <time>2024-12-28T14:36:12.000Z</time>
      </trkpt>
      <trkpt lat="44.33049" lon="2.49751">
        <ele>539.3</ele>
        <time>2024-12-28T14:36:17.000Z</time>
      </trkpt>
      <trkpt lat="44.33053" lon="2.49748">
        <ele>540.2</ele>
        <time>2024-12-28T14:36:22.000Z</time>
      </trkpt>
      <trkpt lat="44.33058" lon="2.49746">
        <ele>540.8</ele>
        <time>2024-12-28T14:36:26.000Z</time>
      </trkpt>
      <trkpt lat="44.33063" lon="2.49744">
        <ele>541.2</ele>
        <time>2024-12-28T14:36:30.000Z</time>
      </trkpt>
      <trkpt lat="44.33068" lon="2.49745">
        <ele>541.4</ele>
        <time>2024-12-28T14:36:35.000Z</time>
      </trkpt>
      <trkpt lat="44.33073" lon="2.49743">
        <ele>541.8</ele>
        <time>2024-12-28T14:36:39.000Z</time>
      </trkpt>
      <trkpt lat="44.33078" lon="2.49742">
        <ele>542.6</ele>
        <time>2024-12-28T14:36:43.000Z</time>
      </trkpt>
      <trkpt lat="44.33083" lon="2.49739">
        <ele>543.2</ele>
        <time>2024-12-28T14:36:48.000Z</time>
      </trkpt>
      <trkpt lat="44.33087" lon="2.49737">
        <ele>543.5</ele>
        <time>2024-12-28T14:36:53.000Z</time>
      </trkpt>
      <trkpt lat="44.33092" lon="2.49735">
        <ele>543.6</ele>
        <time>2024-12-28T14:36:58.000Z</time>
      </trkpt>
      <trkpt lat="44.33098" lon="2.49732">
        <ele>543.6</ele>
        <time>2024-12-28T14:37:02.000Z</time>
      </trkpt>
      <trkpt lat="44.33103" lon="2.49731">
        <ele>543.6</ele>
        <time>2024-12-28T14:37:06.000Z</time>
      </trkpt>
      <trkpt lat="44.33108" lon="2.49729">
        <ele>543.7</ele>
        <time>2024-12-28T14:37:10.000Z</time>
      </trkpt>
      <trkpt lat="44.33114" lon="2.49728">
        <ele>543.7</ele>
        <time>2024-12-28T14:37:14.000Z</time>
      </trkpt>
      <trkpt lat="44.33114" lon="2.49725">
        <ele>544.3</ele>
        <time>2024-12-28T14:37:19.100Z</time>
      </trkpt>
      <trkpt lat="44.33113" lon="2.49724">
        <ele>545.3</ele>
        <time>2024-12-28T14:37:26.000Z</time>
      </trkpt>
      <trkpt lat="44.33113" lon="2.49724">
        <ele>545.5</ele>
        <time>2024-12-28T14:37:27.000Z</time>
      </trkpt>
      <trkpt lat="44.33113" lon="2.49724">
        <ele>545.6</ele>
        <time>2024-12-28T14:37:28.000Z</time>
      </trkpt>
      <trkpt lat="44.33113" lon="2.49724">
        <ele>545.6</ele>
        <time>2024-12-28T14:37:28.100Z</time>
      </trkpt>
      <trkpt lat="44.33113" lon="2.49724">
        <ele>546.1</ele>
        <time>2024-12-28T14:37:33.000Z</time>
      </trkpt>
      <trkpt lat="44.33113" lon="2.49724">
        <ele>546.1</ele>
        <time>2024-12-28T14:37:34.000Z</time>
      </trkpt>
      <trkpt lat="44.33113" lon="2.49724">
        <ele>546.9</ele>
        <time>2024-12-28T14:37:45.099Z</time>
      </trkpt>
      <trkpt lat="44.33113" lon="2.49724">
        <ele>547.2</ele>
        <time>2024-12-28T14:37:49.000Z</time>
      </trkpt>
      <trkpt lat="44.33113" lon="2.49724">
        <ele>547.2</ele>
        <time>2024-12-28T14:37:50.000Z</time>
      </trkpt>
      <trkpt lat="44.33113" lon="2.49724">
        <ele>547.5</ele>
        <time>2024-12-28T14:37:57.099Z</time>
      </trkpt>
      <trkpt lat="44.33115" lon="2.49725">
        <ele>547.6</ele>
        <time>2024-12-28T14:38:04.000Z</time>
      </trkpt>
      <trkpt lat="44.33115" lon="2.49725">
        <ele>547.6</ele>
        <time>2024-12-28T14:38:05.000Z</time>
      </trkpt>
      <trkpt lat="44.33116" lon="2.49726">
        <ele>547.8</ele>
        <time>2024-12-28T14:38:12.100Z</time>
      </trkpt>
      <trkpt lat="44.33116" lon="2.49725">
        <ele>547.9</ele>
        <time>2024-12-28T14:38:15.000Z</time>
      </trkpt>
      <trkpt lat="44.33116" lon="2.49724">
        <ele>547.9</ele>
        <time>2024-12-28T14:38:16.000Z</time>
      </trkpt>
      <trkpt lat="44.33116" lon="2.49724">
        <ele>548</ele>
        <time>2024-12-28T14:38:17.000Z</time>
      </trkpt>
      <trkpt lat="44.33116" lon="2.49724">
        <ele>548</ele>
        <time>2024-12-28T14:38:17.100Z</time>
      </trkpt>
      <trkpt lat="44.33116" lon="2.49725">
        <ele>548.1</ele>
        <time>2024-12-28T14:38:23.000Z</time>
      </trkpt>
      <trkpt lat="44.33117" lon="2.49725">
        <ele>548.2</ele>
        <time>2024-12-28T14:38:24.000Z</time>
      </trkpt>
      <trkpt lat="44.33117" lon="2.49725">
        <ele>548.2</ele>
        <time>2024-12-28T14:38:24.100Z</time>
      </trkpt>
      <trkpt lat="44.33117" lon="2.49726">
        <ele>548.3</ele>
        <time>2024-12-28T14:38:28.000Z</time>
      </trkpt>
      <trkpt lat="44.33117" lon="2.49726">
        <ele>548.4</ele>
        <time>2024-12-28T14:38:29.000Z</time>
      </trkpt>
      <trkpt lat="44.33117" lon="2.49727">
        <ele>549</ele>
        <time>2024-12-28T14:38:37.099Z</time>
      </trkpt>
      <trkpt lat="44.33117" lon="2.49727">
        <ele>549.1</ele>
        <time>2024-12-28T14:38:40.000Z</time>
      </trkpt>
      <trkpt lat="44.33117" lon="2.49728">
        <ele>549.2</ele>
        <time>2024-12-28T14:38:41.000Z</time>
      </trkpt>
      <trkpt lat="44.33117" lon="2.49728">
        <ele>549.2</ele>
        <time>2024-12-28T14:38:42.000Z</time>
      </trkpt>
      <trkpt lat="44.33117" lon="2.49729">
        <ele>549.6</ele>
        <time>2024-12-28T14:38:49.099Z</time>
      </trkpt>
      <trkpt lat="44.33117" lon="2.49731">
        <ele>549.9</ele>
        <time>2024-12-28T14:38:55.000Z</time>
      </trkpt>
      <trkpt lat="44.33117" lon="2.49732">
        <ele>549.9</ele>
        <time>2024-12-28T14:38:56.000Z</time>
      </trkpt>
      <trkpt lat="44.33117" lon="2.49733">
        <ele>549.9</ele>
        <time>2024-12-28T14:38:57.000Z</time>
      </trkpt>
      <trkpt lat="44.33115" lon="2.49738">
        <ele>550.2</ele>
        <time>2024-12-28T14:39:03.000Z</time>
      </trkpt>
      <trkpt lat="44.33111" lon="2.49743">
        <ele>550.5</ele>
        <time>2024-12-28T14:39:07.000Z</time>
      </trkpt>
      <trkpt lat="44.33109" lon="2.49748">
        <ele>550.8</ele>
        <time>2024-12-28T14:39:11.000Z</time>
      </trkpt>
      <trkpt lat="44.33105" lon="2.49752">
        <ele>551.4</ele>
        <time>2024-12-28T14:39:17.000Z</time>
      </trkpt>
      <trkpt lat="44.331" lon="2.49754">
        <ele>552.5</ele>
        <time>2024-12-28T14:39:24.000Z</time>
      </trkpt>
      <trkpt lat="44.33096" lon="2.4976">
        <ele>553</ele>
        <time>2024-12-28T14:39:28.000Z</time>
      </trkpt>
      <trkpt lat="44.33093" lon="2.49767">
        <ele>553.5</ele>
        <time>2024-12-28T14:39:32.000Z</time>
      </trkpt>
      <trkpt lat="44.33091" lon="2.49772">
        <ele>553.9</ele>
        <time>2024-12-28T14:39:36.000Z</time>
      </trkpt>
      <trkpt lat="44.33096" lon="2.49774">
        <ele>555</ele>
        <time>2024-12-28T14:39:47.000Z</time>
      </trkpt>
      <trkpt lat="44.33101" lon="2.49772">
        <ele>555.5</ele>
        <time>2024-12-28T14:39:53.000Z</time>
      </trkpt>
      <trkpt lat="44.33106" lon="2.49771">
        <ele>555.7</ele>
        <time>2024-12-28T14:39:57.000Z</time>
      </trkpt>
      <trkpt lat="44.3311" lon="2.49772">
        <ele>555.9</ele>
        <time>2024-12-28T14:40:02.000Z</time>
      </trkpt>
      <trkpt lat="44.33115" lon="2.49771">
        <ele>556.2</ele>
        <time>2024-12-28T14:40:08.000Z</time>
      </trkpt>
      <trkpt lat="44.3312" lon="2.49772">
        <ele>556.4</ele>
        <time>2024-12-28T14:40:12.000Z</time>
      </trkpt>
      <trkpt lat="44.33126" lon="2.49772">
        <ele>557</ele>
        <time>2024-12-28T14:40:18.000Z</time>
      </trkpt>
      <trkpt lat="44.33131" lon="2.49772">
        <ele>557.5</ele>
        <time>2024-12-28T14:40:21.000Z</time>
      </trkpt>
      <trkpt lat="44.33133" lon="2.49772">
        <ele>558.4</ele>
        <time>2024-12-28T14:40:25.100Z</time>
      </trkpt>
      <trkpt lat="44.33134" lon="2.49772">
        <ele>559.1</ele>
        <time>2024-12-28T14:40:28.000Z</time>
      </trkpt>
      <trkpt lat="44.33134" lon="2.49772">
        <ele>559.4</ele>
        <time>2024-12-28T14:40:29.000Z</time>
      </trkpt>
      <trkpt lat="44.3314" lon="2.49771">
        <ele>560.4</ele>
        <time>2024-12-28T14:40:34.000Z</time>
      </trkpt>
      <trkpt lat="44.33144" lon="2.49771">
        <ele>561.2</ele>
        <time>2024-12-28T14:40:38.000Z</time>
      </trkpt>
      <trkpt lat="44.33149" lon="2.49769">
        <ele>561.8</ele>
        <time>2024-12-28T14:40:42.000Z</time>
      </trkpt>
      <trkpt lat="44.33153" lon="2.49766">
        <ele>562.7</ele>
        <time>2024-12-28T14:40:47.000Z</time>
      </trkpt>
      <trkpt lat="44.33157" lon="2.49761">
        <ele>563.3</ele>
        <time>2024-12-28T14:40:53.000Z</time>
      </trkpt>
      <trkpt lat="44.33161" lon="2.49756">
        <ele>563.8</ele>
        <time>2024-12-28T14:40:58.000Z</time>
      </trkpt>
      <trkpt lat="44.33166" lon="2.49754">
        <ele>564.4</ele>
        <time>2024-12-28T14:41:03.000Z</time>
      </trkpt>
      <trkpt lat="44.3317" lon="2.4975">
        <ele>565</ele>
        <time>2024-12-28T14:41:08.000Z</time>
      </trkpt>
      <trkpt lat="44.33174" lon="2.49746">
        <ele>565.5</ele>
        <time>2024-12-28T14:41:12.000Z</time>
      </trkpt>
      <trkpt lat="44.33178" lon="2.49743">
        <ele>566.5</ele>
        <time>2024-12-28T14:41:17.000Z</time>
      </trkpt>
      <trkpt lat="44.33183" lon="2.49741">
        <ele>567.8</ele>
        <time>2024-12-28T14:41:23.000Z</time>
      </trkpt>
      <trkpt lat="44.33188" lon="2.49739">
        <ele>569.4</ele>
        <time>2024-12-28T14:41:29.000Z</time>
      </trkpt>
      <trkpt lat="44.33193" lon="2.49738">
        <ele>571.4</ele>
        <time>2024-12-28T14:41:36.000Z</time>
      </trkpt>
      <trkpt lat="44.33198" lon="2.4974">
        <ele>572.2</ele>
        <time>2024-12-28T14:41:42.000Z</time>
      </trkpt>
      <trkpt lat="44.33202" lon="2.49743">
        <ele>572.8</ele>
        <time>2024-12-28T14:41:47.000Z</time>
      </trkpt>
      <trkpt lat="44.33206" lon="2.49745">
        <ele>573.7</ele>
        <time>2024-12-28T14:41:53.000Z</time>
      </trkpt>
      <trkpt lat="44.33209" lon="2.49746">
        <ele>574.6</ele>
        <time>2024-12-28T14:41:57.099Z</time>
      </trkpt>
      <trkpt lat="44.3321" lon="2.49746">
        <ele>575.4</ele>
        <time>2024-12-28T14:42:00.000Z</time>
      </trkpt>
      <trkpt lat="44.33211" lon="2.49746">
        <ele>575.7</ele>
        <time>2024-12-28T14:42:01.000Z</time>
      </trkpt>
      <trkpt lat="44.33211" lon="2.49745">
        <ele>576</ele>
        <time>2024-12-28T14:42:02.000Z</time>
      </trkpt>
      <trkpt lat="44.33212" lon="2.49744">
        <ele>577.8</ele>
        <time>2024-12-28T14:42:07.100Z</time>
      </trkpt>
      <trkpt lat="44.33212" lon="2.49742">
        <ele>579.8</ele>
        <time>2024-12-28T14:42:15.000Z</time>
      </trkpt>
      <trkpt lat="44.33213" lon="2.49741">
        <ele>580.1</ele>
        <time>2024-12-28T14:42:16.000Z</time>
      </trkpt>
      <trkpt lat="44.33213" lon="2.49739">
        <ele>580.3</ele>
        <time>2024-12-28T14:42:17.000Z</time>
      </trkpt>
      <trkpt lat="44.33215" lon="2.49734">
        <ele>580.9</ele>
        <time>2024-12-28T14:42:23.000Z</time>
      </trkpt>
      <trkpt lat="44.33217" lon="2.49728">
        <ele>581</ele>
        <time>2024-12-28T14:42:29.000Z</time>
      </trkpt>
      <trkpt lat="44.3322" lon="2.49721">
        <ele>580.9</ele>
        <time>2024-12-28T14:42:35.000Z</time>
      </trkpt>
      <trkpt lat="44.33223" lon="2.49715">
        <ele>580.9</ele>
        <time>2024-12-28T14:42:40.000Z</time>
      </trkpt>
      <trkpt lat="44.33225" lon="2.49708">
        <ele>580.9</ele>
        <time>2024-12-28T14:42:45.000Z</time>
      </trkpt>
      <trkpt lat="44.33228" lon="2.49703">
        <ele>580.9</ele>
        <time>2024-12-28T14:42:49.000Z</time>
      </trkpt>
      <trkpt lat="44.33231" lon="2.49697">
        <ele>581.1</ele>
        <time>2024-12-28T14:42:53.000Z</time>
      </trkpt>
      <trkpt lat="44.33234" lon="2.49692">
        <ele>581.2</ele>
        <time>2024-12-28T14:42:57.000Z</time>
      </trkpt>
      <trkpt lat="44.33237" lon="2.49687">
        <ele>581.3</ele>
        <time>2024-12-28T14:43:01.000Z</time>
      </trkpt>
      <trkpt lat="44.33241" lon="2.49682">
        <ele>581.6</ele>
        <time>2024-12-28T14:43:05.000Z</time>
      </trkpt>
      <trkpt lat="44.33245" lon="2.49677">
        <ele>582.2</ele>
        <time>2024-12-28T14:43:10.000Z</time>
      </trkpt>
      <trkpt lat="44.33249" lon="2.49674">
        <ele>582.7</ele>
        <time>2024-12-28T14:43:15.000Z</time>
      </trkpt>
      <trkpt lat="44.33253" lon="2.4967">
        <ele>583</ele>
        <time>2024-12-28T14:43:20.000Z</time>
      </trkpt>
      <trkpt lat="44.33257" lon="2.49666">
        <ele>583.4</ele>
        <time>2024-12-28T14:43:25.000Z</time>
      </trkpt>
      <trkpt lat="44.33259" lon="2.49661">
        <ele>585.6</ele>
        <time>2024-12-28T14:43:33.099Z</time>
      </trkpt>
      <trkpt lat="44.33262" lon="2.49659">
        <ele>587.4</ele>
        <time>2024-12-28T14:43:44.000Z</time>
      </trkpt>
      <trkpt lat="44.33263" lon="2.49658">
        <ele>587.4</ele>
        <time>2024-12-28T14:43:45.000Z</time>
      </trkpt>
      <trkpt lat="44.33267" lon="2.49654">
        <ele>587.3</ele>
        <time>2024-12-28T14:43:49.000Z</time>
      </trkpt>
      <trkpt lat="44.33272" lon="2.49651">
        <ele>587.2</ele>
        <time>2024-12-28T14:43:53.000Z</time>
      </trkpt>
      <trkpt lat="44.33278" lon="2.49649">
        <ele>587</ele>
        <time>2024-12-28T14:43:57.000Z</time>
      </trkpt>
      <trkpt lat="44.33282" lon="2.49648">
        <ele>586.7</ele>
        <time>2024-12-28T14:44:01.000Z</time>
      </trkpt>
      <trkpt lat="44.33287" lon="2.49645">
        <ele>586.4</ele>
        <time>2024-12-28T14:44:06.000Z</time>
      </trkpt>
      <trkpt lat="44.33291" lon="2.49643">
        <ele>586.1</ele>
        <time>2024-12-28T14:44:10.000Z</time>
      </trkpt>
      <trkpt lat="44.33296" lon="2.49641">
        <ele>585.8</ele>
        <time>2024-12-28T14:44:14.000Z</time>
      </trkpt>
      <trkpt lat="44.33301" lon="2.49638">
        <ele>585.6</ele>
        <time>2024-12-28T14:44:18.000Z</time>
      </trkpt>
      <trkpt lat="44.33305" lon="2.49636">
        <ele>585.4</ele>
        <time>2024-12-28T14:44:22.000Z</time>
      </trkpt>
      <trkpt lat="44.3331" lon="2.49633">
        <ele>585.1</ele>
        <time>2024-12-28T14:44:26.000Z</time>
      </trkpt>
      <trkpt lat="44.33315" lon="2.49633">
        <ele>585.1</ele>
        <time>2024-12-28T14:44:29.000Z</time>
      </trkpt>
      <trkpt lat="44.3332" lon="2.49631">
        <ele>585.1</ele>
        <time>2024-12-28T14:44:34.000Z</time>
      </trkpt>
      <trkpt lat="44.33325" lon="2.49632">
        <ele>585.2</ele>
        <time>2024-12-28T14:44:39.000Z</time>
      </trkpt>
      <trkpt lat="44.3333" lon="2.49635">
        <ele>585.1</ele>
        <time>2024-12-28T14:44:45.000Z</time>
      </trkpt>
      <trkpt lat="44.33334" lon="2.49638">
        <ele>585.1</ele>
        <time>2024-12-28T14:44:49.000Z</time>
      </trkpt>
      <trkpt lat="44.33339" lon="2.49641">
        <ele>585.1</ele>
        <time>2024-12-28T14:44:53.000Z</time>
      </trkpt>
      <trkpt lat="44.33343" lon="2.49644">
        <ele>585.1</ele>
        <time>2024-12-28T14:44:57.000Z</time>
      </trkpt>
      <trkpt lat="44.33348" lon="2.49648">
        <ele>585.1</ele>
        <time>2024-12-28T14:45:02.000Z</time>
      </trkpt>
      <trkpt lat="44.33351" lon="2.49653">
        <ele>585.1</ele>
        <time>2024-12-28T14:45:07.000Z</time>
      </trkpt>
      <trkpt lat="44.33355" lon="2.49657">
        <ele>585.1</ele>
        <time>2024-12-28T14:45:11.000Z</time>
      </trkpt>
      <trkpt lat="44.3336" lon="2.49659">
        <ele>585.1</ele>
        <time>2024-12-28T14:45:15.000Z</time>
      </trkpt>
      <trkpt lat="44.33364" lon="2.49662">
        <ele>585.1</ele>
        <time>2024-12-28T14:45:18.000Z</time>
      </trkpt>
      <trkpt lat="44.33368" lon="2.49664">
        <ele>585.1</ele>
        <time>2024-12-28T14:45:23.000Z</time>
      </trkpt>
      <trkpt lat="44.33373" lon="2.49666">
        <ele>585.1</ele>
        <time>2024-12-28T14:45:27.000Z</time>
      </trkpt>
      <trkpt lat="44.33378" lon="2.49666">
        <ele>585.1</ele>
        <time>2024-12-28T14:45:32.000Z</time>
      </trkpt>
      <trkpt lat="44.33383" lon="2.49665">
        <ele>585.1</ele>
        <time>2024-12-28T14:45:38.000Z</time>
      </trkpt>
      <trkpt lat="44.33388" lon="2.49664">
        <ele>585.1</ele>
        <time>2024-12-28T14:45:43.000Z</time>
      </trkpt>
      <trkpt lat="44.33392" lon="2.49664">
        <ele>585.2</ele>
        <time>2024-12-28T14:45:45.000Z</time>
      </trkpt>
      <trkpt lat="44.33398" lon="2.49661">
        <ele>585.2</ele>
        <time>2024-12-28T14:45:50.000Z</time>
      </trkpt>
      <trkpt lat="44.33403" lon="2.49659">
        <ele>585.2</ele>
        <time>2024-12-28T14:45:54.000Z</time>
      </trkpt>
      <trkpt lat="44.33408" lon="2.49655">
        <ele>585.1</ele>
        <time>2024-12-28T14:45:58.000Z</time>
      </trkpt>
      <trkpt lat="44.33413" lon="2.49654">
        <ele>585.1</ele>
        <time>2024-12-28T14:46:03.000Z</time>
      </trkpt>
      <trkpt lat="44.33418" lon="2.49651">
        <ele>585</ele>
        <time>2024-12-28T14:46:08.000Z</time>
      </trkpt>
      <trkpt lat="44.33422" lon="2.49649">
        <ele>585</ele>
        <time>2024-12-28T14:46:12.000Z</time>
      </trkpt>
      <trkpt lat="44.33426" lon="2.49649">
        <ele>584.8</ele>
        <time>2024-12-28T14:46:16.000Z</time>
      </trkpt>
      <trkpt lat="44.33431" lon="2.49646">
        <ele>584.6</ele>
        <time>2024-12-28T14:46:20.000Z</time>
      </trkpt>
      <trkpt lat="44.33436" lon="2.49646">
        <ele>584.2</ele>
        <time>2024-12-28T14:46:27.000Z</time>
      </trkpt>
      <trkpt lat="44.3344" lon="2.49643">
        <ele>584.1</ele>
        <time>2024-12-28T14:46:31.000Z</time>
      </trkpt>
      <trkpt lat="44.33445" lon="2.49643">
        <ele>584.1</ele>
        <time>2024-12-28T14:46:35.000Z</time>
      </trkpt>
      <trkpt lat="44.3345" lon="2.49644">
        <ele>584.2</ele>
        <time>2024-12-28T14:46:39.000Z</time>
      </trkpt>
      <trkpt lat="44.33455" lon="2.49646">
        <ele>584.5</ele>
        <time>2024-12-28T14:46:43.000Z</time>
      </trkpt>
      <trkpt lat="44.3346" lon="2.49647">
        <ele>584.8</ele>
        <time>2024-12-28T14:46:46.000Z</time>
      </trkpt>
      <trkpt lat="44.33465" lon="2.49649">
        <ele>585.3</ele>
        <time>2024-12-28T14:46:50.000Z</time>
      </trkpt>
      <trkpt lat="44.3347" lon="2.49651">
        <ele>586</ele>
        <time>2024-12-28T14:46:54.000Z</time>
      </trkpt>
      <trkpt lat="44.33475" lon="2.49652">
        <ele>586.7</ele>
        <time>2024-12-28T14:46:58.000Z</time>
      </trkpt>
      <trkpt lat="44.33479" lon="2.49655">
        <ele>587.1</ele>
        <time>2024-12-28T14:47:03.000Z</time>
      </trkpt>
      <trkpt lat="44.33484" lon="2.49656">
        <ele>587.4</ele>
        <time>2024-12-28T14:47:07.000Z</time>
      </trkpt>
      <trkpt lat="44.33489" lon="2.49656">
        <ele>587.9</ele>
        <time>2024-12-28T14:47:13.000Z</time>
      </trkpt>
      <trkpt lat="44.33494" lon="2.49656">
        <ele>588.6</ele>
        <time>2024-12-28T14:47:20.000Z</time>
      </trkpt>
      <trkpt lat="44.33499" lon="2.49655">
        <ele>589.1</ele>
        <time>2024-12-28T14:47:25.000Z</time>
      </trkpt>
      <trkpt lat="44.33504" lon="2.49654">
        <ele>590.2</ele>
        <time>2024-12-28T14:47:32.000Z</time>
      </trkpt>
      <trkpt lat="44.3351" lon="2.49654">
        <ele>590.7</ele>
        <time>2024-12-28T14:47:36.000Z</time>
      </trkpt>
      <trkpt lat="44.33515" lon="2.49655">
        <ele>591.7</ele>
        <time>2024-12-28T14:47:43.000Z</time>
      </trkpt>
      <trkpt lat="44.33521" lon="2.49657">
        <ele>592.4</ele>
        <time>2024-12-28T14:47:50.000Z</time>
      </trkpt>
      <trkpt lat="44.33525" lon="2.49659">
        <ele>592.9</ele>
        <time>2024-12-28T14:47:54.000Z</time>
      </trkpt>
      <trkpt lat="44.3353" lon="2.49659">
        <ele>593.9</ele>
        <time>2024-12-28T14:47:59.000Z</time>
      </trkpt>
      <trkpt lat="44.33533" lon="2.49658">
        <ele>594.6</ele>
        <time>2024-12-28T14:48:07.100Z</time>
      </trkpt>
      <trkpt lat="44.33533" lon="2.49658">
        <ele>594.7</ele>
        <time>2024-12-28T14:48:11.000Z</time>
      </trkpt>
      <trkpt lat="44.33533" lon="2.49657">
        <ele>594.8</ele>
        <time>2024-12-28T14:48:12.000Z</time>
      </trkpt>
      <trkpt lat="44.33533" lon="2.49657">
        <ele>594.8</ele>
        <time>2024-12-28T14:48:15.100Z</time>
      </trkpt>
      <trkpt lat="44.33533" lon="2.49657">
        <ele>594.9</ele>
        <time>2024-12-28T14:48:20.000Z</time>
      </trkpt>
      <trkpt lat="44.33533" lon="2.49657">
        <ele>594.9</ele>
        <time>2024-12-28T14:48:21.000Z</time>
      </trkpt>
      <trkpt lat="44.33534" lon="2.49657">
        <ele>595</ele>
        <time>2024-12-28T14:48:22.000Z</time>
      </trkpt>
      <trkpt lat="44.33534" lon="2.49657">
        <ele>595</ele>
        <time>2024-12-28T14:48:22.100Z</time>
      </trkpt>
      <trkpt lat="44.33535" lon="2.49658">
        <ele>595.8</ele>
        <time>2024-12-28T14:49:40.000Z</time>
      </trkpt>
      <trkpt lat="44.33535" lon="2.49658">
        <ele>595.8</ele>
        <time>2024-12-28T14:49:41.000Z</time>
      </trkpt>
      <trkpt lat="44.33535" lon="2.49659">
        <ele>595.8</ele>
        <time>2024-12-28T14:49:42.000Z</time>
      </trkpt>
      <trkpt lat="44.33532" lon="2.4966">
        <ele>596</ele>
        <time>2024-12-28T14:49:53.099Z</time>
      </trkpt>
      <trkpt lat="44.33531" lon="2.49661">
        <ele>596</ele>
        <time>2024-12-28T14:49:58.000Z</time>
      </trkpt>
      <trkpt lat="44.33531" lon="2.49661">
        <ele>596</ele>
        <time>2024-12-28T14:49:59.000Z</time>
      </trkpt>
      <trkpt lat="44.33528" lon="2.49667">
        <ele>596</ele>
        <time>2024-12-28T14:50:05.000Z</time>
      </trkpt>
      <trkpt lat="44.33525" lon="2.49673">
        <ele>596</ele>
        <time>2024-12-28T14:50:10.000Z</time>
      </trkpt>
      <trkpt lat="44.33523" lon="2.49679">
        <ele>596</ele>
        <time>2024-12-28T14:50:14.000Z</time>
      </trkpt>
      <trkpt lat="44.33521" lon="2.49686">
        <ele>596.1</ele>
        <time>2024-12-28T14:50:19.000Z</time>
      </trkpt>
      <trkpt lat="44.33518" lon="2.49691">
        <ele>596.3</ele>
        <time>2024-12-28T14:50:24.000Z</time>
      </trkpt>
      <trkpt lat="44.33514" lon="2.49697">
        <ele>596.8</ele>
        <time>2024-12-28T14:50:30.000Z</time>
      </trkpt>
      <trkpt lat="44.33511" lon="2.49702">
        <ele>597.4</ele>
        <time>2024-12-28T14:50:36.000Z</time>
      </trkpt>
      <trkpt lat="44.33507" lon="2.49707">
        <ele>598.2</ele>
        <time>2024-12-28T14:50:41.000Z</time>
      </trkpt>
      <trkpt lat="44.33503" lon="2.4971">
        <ele>599</ele>
        <time>2024-12-28T14:50:45.000Z</time>
      </trkpt>
      <trkpt lat="44.33498" lon="2.49711">
        <ele>600.7</ele>
        <time>2024-12-28T14:50:51.000Z</time>
      </trkpt>
      <trkpt lat="44.33493" lon="2.49712">
        <ele>601.9</ele>
        <time>2024-12-28T14:50:58.000Z</time>
      </trkpt>
      <trkpt lat="44.33489" lon="2.49716">
        <ele>603.1</ele>
        <time>2024-12-28T14:51:06.000Z</time>
      </trkpt>
      <trkpt lat="44.33485" lon="2.4972">
        <ele>605.5</ele>
        <time>2024-12-28T14:51:15.000Z</time>
      </trkpt>
      <trkpt lat="44.33485" lon="2.49721">
        <ele>606.1</ele>
        <time>2024-12-28T14:51:18.100Z</time>
      </trkpt>
      <trkpt lat="44.33486" lon="2.49721">
        <ele>606.7</ele>
        <time>2024-12-28T14:51:21.000Z</time>
      </trkpt>
      <trkpt lat="44.33486" lon="2.49722">
        <ele>606.9</ele>
        <time>2024-12-28T14:51:22.000Z</time>
      </trkpt>
      <trkpt lat="44.33486" lon="2.49723">
        <ele>607.3</ele>
        <time>2024-12-28T14:51:24.100Z</time>
      </trkpt>
      <trkpt lat="44.33485" lon="2.49724">
        <ele>608.1</ele>
        <time>2024-12-28T14:51:31.000Z</time>
      </trkpt>
      <trkpt lat="44.33484" lon="2.49724">
        <ele>608.2</ele>
        <time>2024-12-28T14:51:32.000Z</time>
      </trkpt>
      <trkpt lat="44.33483" lon="2.49725">
        <ele>608.3</ele>
        <time>2024-12-28T14:51:33.000Z</time>
      </trkpt>
      <trkpt lat="44.33479" lon="2.49727">
        <ele>608.9</ele>
        <time>2024-12-28T14:51:41.000Z</time>
      </trkpt>
      <trkpt lat="44.33474" lon="2.49728">
        <ele>609.4</ele>
        <time>2024-12-28T14:51:49.000Z</time>
      </trkpt>
      <trkpt lat="44.3347" lon="2.4973">
        <ele>609.7</ele>
        <time>2024-12-28T14:51:54.000Z</time>
      </trkpt>
      <trkpt lat="44.33465" lon="2.49732">
        <ele>610.3</ele>
        <time>2024-12-28T14:52:01.000Z</time>
      </trkpt>
      <trkpt lat="44.33459" lon="2.49734">
        <ele>611</ele>
        <time>2024-12-28T14:52:07.000Z</time>
      </trkpt>
      <trkpt lat="44.33454" lon="2.49736">
        <ele>611.7</ele>
        <time>2024-12-28T14:52:11.000Z</time>
      </trkpt>
      <trkpt lat="44.33449" lon="2.4974">
        <ele>612.6</ele>
        <time>2024-12-28T14:52:15.000Z</time>
      </trkpt>
      <trkpt lat="44.33444" lon="2.4974">
        <ele>613.6</ele>
        <time>2024-12-28T14:52:19.000Z</time>
      </trkpt>
      <trkpt lat="44.3344" lon="2.49743">
        <ele>614.6</ele>
        <time>2024-12-28T14:52:24.000Z</time>
      </trkpt>
      <trkpt lat="44.33435" lon="2.49747">
        <ele>615.3</ele>
        <time>2024-12-28T14:52:29.000Z</time>
      </trkpt>
      <trkpt lat="44.33431" lon="2.4975">
        <ele>615.7</ele>
        <time>2024-12-28T14:52:36.000Z</time>
      </trkpt>
      <trkpt lat="44.33426" lon="2.49754">
        <ele>616.1</ele>
        <time>2024-12-28T14:52:41.000Z</time>
      </trkpt>
      <trkpt lat="44.33422" lon="2.49758">
        <ele>616.5</ele>
        <time>2024-12-28T14:52:46.000Z</time>
      </trkpt>
      <trkpt lat="44.33418" lon="2.49764">
        <ele>616.9</ele>
        <time>2024-12-28T14:52:52.000Z</time>
      </trkpt>
      <trkpt lat="44.33414" lon="2.49769">
        <ele>617</ele>
        <time>2024-12-28T14:52:56.000Z</time>
      </trkpt>
      <trkpt lat="44.33409" lon="2.49771">
        <ele>617.1</ele>
        <time>2024-12-28T14:53:00.000Z</time>
      </trkpt>
      <trkpt lat="44.33404" lon="2.49772">
        <ele>617.2</ele>
        <time>2024-12-28T14:53:04.000Z</time>
      </trkpt>
      <trkpt lat="44.33399" lon="2.49776">
        <ele>617.3</ele>
        <time>2024-12-28T14:53:07.000Z</time>
      </trkpt>
      <trkpt lat="44.33395" lon="2.49779">
        <ele>617.5</ele>
        <time>2024-12-28T14:53:10.000Z</time>
      </trkpt>
      <trkpt lat="44.33388" lon="2.49783">
        <ele>617.7</ele>
        <time>2024-12-28T14:53:14.000Z</time>
      </trkpt>
      <trkpt lat="44.33382" lon="2.49785">
        <ele>617.9</ele>
        <time>2024-12-28T14:53:17.000Z</time>
      </trkpt>
      <trkpt lat="44.33376" lon="2.49791">
        <ele>618</ele>
        <time>2024-12-28T14:53:20.000Z</time>
      </trkpt>
      <trkpt lat="44.33381" lon="2.49794">
        <ele>618.5</ele>
        <time>2024-12-28T14:53:24.000Z</time>
      </trkpt>
      <trkpt lat="44.33379" lon="2.498">
        <ele>620.5</ele>
        <time>2024-12-28T14:53:32.000Z</time>
      </trkpt>
      <trkpt lat="44.33377" lon="2.49807">
        <ele>621.5</ele>
        <time>2024-12-28T14:53:36.000Z</time>
      </trkpt>
      <trkpt lat="44.33376" lon="2.49813">
        <ele>622.5</ele>
        <time>2024-12-28T14:53:44.099Z</time>
      </trkpt>
      <trkpt lat="44.33379" lon="2.49817">
        <ele>623.7</ele>
        <time>2024-12-28T14:53:53.000Z</time>
      </trkpt>
      <trkpt lat="44.33379" lon="2.49817">
        <ele>623.9</ele>
        <time>2024-12-28T14:53:54.000Z</time>
      </trkpt>
      <trkpt lat="44.33375" lon="2.49813">
        <ele>624.7</ele>
        <time>2024-12-28T14:53:57.000Z</time>
      </trkpt>
      <trkpt lat="44.33374" lon="2.49807">
        <ele>625.8</ele>
        <time>2024-12-28T14:54:00.000Z</time>
      </trkpt>
      <trkpt lat="44.33374" lon="2.49805">
        <ele>627.1</ele>
        <time>2024-12-28T14:54:05.100Z</time>
      </trkpt>
      <trkpt lat="44.33372" lon="2.49807">
        <ele>628.5</ele>
        <time>2024-12-28T14:54:18.000Z</time>
      </trkpt>
      <trkpt lat="44.33373" lon="2.49809">
        <ele>628.5</ele>
        <time>2024-12-28T14:54:19.000Z</time>
      </trkpt>
      <trkpt lat="44.33374" lon="2.4981">
        <ele>628.5</ele>
        <time>2024-12-28T14:54:20.000Z</time>
      </trkpt>
      <trkpt lat="44.33372" lon="2.49817">
        <ele>628.6</ele>
        <time>2024-12-28T14:54:28.000Z</time>
      </trkpt>
      <trkpt lat="44.33372" lon="2.49818">
        <ele>628.7</ele>
        <time>2024-12-28T14:54:29.100Z</time>
      </trkpt>
      <trkpt lat="44.33372" lon="2.49816">
        <ele>628.8</ele>
        <time>2024-12-28T14:54:35.000Z</time>
      </trkpt>
      <trkpt lat="44.33372" lon="2.49817">
        <ele>628.8</ele>
        <time>2024-12-28T14:54:36.000Z</time>
      </trkpt>
      <trkpt lat="44.33372" lon="2.49818">
        <ele>628.8</ele>
        <time>2024-12-28T14:54:37.000Z</time>
      </trkpt>
      <trkpt lat="44.33371" lon="2.49817">
        <ele>628.8</ele>
        <time>2024-12-28T14:54:39.099Z</time>
      </trkpt>
      <trkpt lat="44.33371" lon="2.4982">
        <ele>628.9</ele>
        <time>2024-12-28T14:54:46.000Z</time>
      </trkpt>
      <trkpt lat="44.3337" lon="2.49821">
        <ele>628.9</ele>
        <time>2024-12-28T14:54:47.000Z</time>
      </trkpt>
      <trkpt lat="44.33367" lon="2.49826">
        <ele>628.9</ele>
        <time>2024-12-28T14:54:52.000Z</time>
      </trkpt>
      <trkpt lat="44.33367" lon="2.49832">
        <ele>628.9</ele>
        <time>2024-12-28T14:54:58.000Z</time>
      </trkpt>
      <trkpt lat="44.33365" lon="2.49839">
        <ele>628.8</ele>
        <time>2024-12-28T14:55:04.000Z</time>
      </trkpt>
      <trkpt lat="44.33362" lon="2.49847">
        <ele>628.6</ele>
        <time>2024-12-28T14:55:11.000Z</time>
      </trkpt>
      <trkpt lat="44.33359" lon="2.49853">
        <ele>628.6</ele>
        <time>2024-12-28T14:55:15.000Z</time>
      </trkpt>
      <trkpt lat="44.33356" lon="2.49859">
        <ele>628.6</ele>
        <time>2024-12-28T14:55:19.000Z</time>
      </trkpt>
      <trkpt lat="44.33353" lon="2.49865">
        <ele>628.7</ele>
        <time>2024-12-28T14:55:23.000Z</time>
      </trkpt>
      <trkpt lat="44.3335" lon="2.49872">
        <ele>628.8</ele>
        <time>2024-12-28T14:55:28.000Z</time>
      </trkpt>
      <trkpt lat="44.33347" lon="2.49877">
        <ele>628.8</ele>
        <time>2024-12-28T14:55:31.000Z</time>
      </trkpt>
      <trkpt lat="44.33344" lon="2.49883">
        <ele>628.8</ele>
        <time>2024-12-28T14:55:34.000Z</time>
      </trkpt>
      <trkpt lat="44.33341" lon="2.49889">
        <ele>628.8</ele>
        <time>2024-12-28T14:55:37.000Z</time>
      </trkpt>
      <trkpt lat="44.33338" lon="2.49894">
        <ele>628.8</ele>
        <time>2024-12-28T14:55:41.000Z</time>
      </trkpt>
      <trkpt lat="44.33335" lon="2.49899">
        <ele>628.8</ele>
        <time>2024-12-28T14:55:44.000Z</time>
      </trkpt>
      <trkpt lat="44.33333" lon="2.49906">
        <ele>628.9</ele>
        <time>2024-12-28T14:55:48.000Z</time>
      </trkpt>
      <trkpt lat="44.3333" lon="2.4991">
        <ele>629.1</ele>
        <time>2024-12-28T14:55:51.000Z</time>
      </trkpt>
      <trkpt lat="44.33328" lon="2.49917">
        <ele>629.5</ele>
        <time>2024-12-28T14:55:54.000Z</time>
      </trkpt>
      <trkpt lat="44.33325" lon="2.49922">
        <ele>630.9</ele>
        <time>2024-12-28T14:56:00.000Z</time>
      </trkpt>
      <trkpt lat="44.33322" lon="2.49927">
        <ele>631.5</ele>
        <time>2024-12-28T14:56:03.000Z</time>
      </trkpt>
      <trkpt lat="44.3332" lon="2.49934">
        <ele>631.9</ele>
        <time>2024-12-28T14:56:07.000Z</time>
      </trkpt>
      <trkpt lat="44.33318" lon="2.49941">
        <ele>632</ele>
        <time>2024-12-28T14:56:11.000Z</time>
      </trkpt>
      <trkpt lat="44.33316" lon="2.49949">
        <ele>632</ele>
        <time>2024-12-28T14:56:15.000Z</time>
      </trkpt>
      <trkpt lat="44.33315" lon="2.49955">
        <ele>632</ele>
        <time>2024-12-28T14:56:18.000Z</time>
      </trkpt>
      <trkpt lat="44.33313" lon="2.49962">
        <ele>632.1</ele>
        <time>2024-12-28T14:56:23.000Z</time>
      </trkpt>
      <trkpt lat="44.33312" lon="2.49969">
        <ele>632.5</ele>
        <time>2024-12-28T14:56:30.000Z</time>
      </trkpt>
      <trkpt lat="44.33311" lon="2.49975">
        <ele>632.6</ele>
        <time>2024-12-28T14:56:35.000Z</time>
      </trkpt>
      <trkpt lat="44.33309" lon="2.49981">
        <ele>632.7</ele>
        <time>2024-12-28T14:56:39.000Z</time>
      </trkpt>
      <trkpt lat="44.33308" lon="2.49988">
        <ele>632.8</ele>
        <time>2024-12-28T14:56:44.000Z</time>
      </trkpt>
      <trkpt lat="44.33306" lon="2.49994">
        <ele>632.9</ele>
        <time>2024-12-28T14:56:48.000Z</time>
      </trkpt>
      <trkpt lat="44.33304" lon="2.5">
        <ele>633</ele>
        <time>2024-12-28T14:56:53.000Z</time>
      </trkpt>
      <trkpt lat="44.33301" lon="2.50005">
        <ele>633.1</ele>
        <time>2024-12-28T14:56:58.000Z</time>
      </trkpt>
      <trkpt lat="44.33299" lon="2.50012">
        <ele>633.1</ele>
        <time>2024-12-28T14:57:03.000Z</time>
      </trkpt>
      <trkpt lat="44.33295" lon="2.50018">
        <ele>633.1</ele>
        <time>2024-12-28T14:57:08.000Z</time>
      </trkpt>
      <trkpt lat="44.33291" lon="2.50023">
        <ele>633.2</ele>
        <time>2024-12-28T14:57:12.000Z</time>
      </trkpt>
      <trkpt lat="44.3329" lon="2.50032">
        <ele>633.3</ele>
        <time>2024-12-28T14:57:18.000Z</time>
      </trkpt>
      <trkpt lat="44.33288" lon="2.50039">
        <ele>633.4</ele>
        <time>2024-12-28T14:57:20.000Z</time>
      </trkpt>
      <trkpt lat="44.33286" lon="2.50045">
        <ele>633.7</ele>
        <time>2024-12-28T14:57:24.000Z</time>
      </trkpt>
      <trkpt lat="44.33284" lon="2.50051">
        <ele>634.3</ele>
        <time>2024-12-28T14:57:28.000Z</time>
      </trkpt>
      <trkpt lat="44.33281" lon="2.50057">
        <ele>635.2</ele>
        <time>2024-12-28T14:57:32.000Z</time>
      </trkpt>
      <trkpt lat="44.33278" lon="2.50063">
        <ele>636</ele>
        <time>2024-12-28T14:57:36.000Z</time>
      </trkpt>
      <trkpt lat="44.33276" lon="2.50069">
        <ele>636.5</ele>
        <time>2024-12-28T14:57:40.000Z</time>
      </trkpt>
      <trkpt lat="44.33274" lon="2.50075">
        <ele>636.9</ele>
        <time>2024-12-28T14:57:44.000Z</time>
      </trkpt>
      <trkpt lat="44.33272" lon="2.50082">
        <ele>637.3</ele>
        <time>2024-12-28T14:57:48.000Z</time>
      </trkpt>
      <trkpt lat="44.33269" lon="2.50089">
        <ele>637.7</ele>
        <time>2024-12-28T14:57:52.000Z</time>
      </trkpt>
      <trkpt lat="44.33267" lon="2.50094">
        <ele>638.3</ele>
        <time>2024-12-28T14:57:56.000Z</time>
      </trkpt>
      <trkpt lat="44.33265" lon="2.50101">
        <ele>638.5</ele>
        <time>2024-12-28T14:58:00.000Z</time>
      </trkpt>
      <trkpt lat="44.33263" lon="2.50107">
        <ele>638.5</ele>
        <time>2024-12-28T14:58:04.000Z</time>
      </trkpt>
      <trkpt lat="44.33261" lon="2.50113">
        <ele>638.6</ele>
        <time>2024-12-28T14:58:08.000Z</time>
      </trkpt>
      <trkpt lat="44.33258" lon="2.50119">
        <ele>638.6</ele>
        <time>2024-12-28T14:58:12.000Z</time>
      </trkpt>
      <trkpt lat="44.33257" lon="2.50125">
        <ele>638.6</ele>
        <time>2024-12-28T14:58:16.000Z</time>
      </trkpt>
      <trkpt lat="44.33255" lon="2.50132">
        <ele>638.8</ele>
        <time>2024-12-28T14:58:21.000Z</time>
      </trkpt>
      <trkpt lat="44.33253" lon="2.50139">
        <ele>639.1</ele>
        <time>2024-12-28T14:58:25.000Z</time>
      </trkpt>
      <trkpt lat="44.33251" lon="2.50146">
        <ele>639.8</ele>
        <time>2024-12-28T14:58:30.000Z</time>
      </trkpt>
      <trkpt lat="44.33249" lon="2.50153">
        <ele>641</ele>
        <time>2024-12-28T14:58:35.000Z</time>
      </trkpt>
      <trkpt lat="44.33246" lon="2.50159">
        <ele>641.7</ele>
        <time>2024-12-28T14:58:40.000Z</time>
      </trkpt>
      <trkpt lat="44.33245" lon="2.50162">
        <ele>642.1</ele>
        <time>2024-12-28T14:58:45.099Z</time>
      </trkpt>
      <trkpt lat="44.33245" lon="2.50163">
        <ele>642.4</ele>
        <time>2024-12-28T14:59:01.000Z</time>
      </trkpt>
      <trkpt lat="44.33245" lon="2.50164">
        <ele>642.4</ele>
        <time>2024-12-28T14:59:02.000Z</time>
      </trkpt>
      <trkpt lat="44.33242" lon="2.5017">
        <ele>642.4</ele>
        <time>2024-12-28T14:59:08.000Z</time>
      </trkpt>
      <trkpt lat="44.33242" lon="2.5017">
        <ele>642.4</ele>
        <time>2024-12-28T14:59:12.100Z</time>
      </trkpt>
      <trkpt lat="44.33241" lon="2.50171">
        <ele>642.4</ele>
        <time>2024-12-28T14:59:30.000Z</time>
      </trkpt>
      <trkpt lat="44.33241" lon="2.50172">
        <ele>642.4</ele>
        <time>2024-12-28T14:59:31.000Z</time>
      </trkpt>
      <trkpt lat="44.3324" lon="2.50173">
        <ele>642.4</ele>
        <time>2024-12-28T14:59:32.000Z</time>
      </trkpt>
      <trkpt lat="44.3324" lon="2.50175">
        <ele>642.5</ele>
        <time>2024-12-28T14:59:35.099Z</time>
      </trkpt>
      <trkpt lat="44.3324" lon="2.50175">
        <ele>642.5</ele>
        <time>2024-12-28T14:59:41.000Z</time>
      </trkpt>
      <trkpt lat="44.3324" lon="2.50175">
        <ele>642.5</ele>
        <time>2024-12-28T14:59:42.000Z</time>
      </trkpt>
      <trkpt lat="44.3324" lon="2.50176">
        <ele>642.5</ele>
        <time>2024-12-28T14:59:43.000Z</time>
      </trkpt>
      <trkpt lat="44.33239" lon="2.50175">
        <ele>642.5</ele>
        <time>2024-12-28T14:59:48.099Z</time>
      </trkpt>
      <trkpt lat="44.33238" lon="2.50175">
        <ele>642.5</ele>
        <time>2024-12-28T14:59:53.000Z</time>
      </trkpt>
      <trkpt lat="44.33239" lon="2.50175">
        <ele>642.5</ele>
        <time>2024-12-28T14:59:54.000Z</time>
      </trkpt>
      <trkpt lat="44.33239" lon="2.50175">
        <ele>642.5</ele>
        <time>2024-12-28T14:59:54.099Z</time>
      </trkpt>
      <trkpt lat="44.33239" lon="2.50178">
        <ele>642.5</ele>
        <time>2024-12-28T15:00:00.000Z</time>
      </trkpt>
      <trkpt lat="44.33238" lon="2.5018">
        <ele>642.5</ele>
        <time>2024-12-28T15:00:01.000Z</time>
      </trkpt>
      <trkpt lat="44.33237" lon="2.50181">
        <ele>642.6</ele>
        <time>2024-12-28T15:00:02.000Z</time>
      </trkpt>
      <trkpt lat="44.33233" lon="2.50187">
        <ele>642.6</ele>
        <time>2024-12-28T15:00:06.000Z</time>
      </trkpt>
      <trkpt lat="44.3323" lon="2.50191">
        <ele>642.6</ele>
        <time>2024-12-28T15:00:12.000Z</time>
      </trkpt>
      <trkpt lat="44.3323" lon="2.50191">
        <ele>642.6</ele>
        <time>2024-12-28T15:00:12.100Z</time>
      </trkpt>
      <trkpt lat="44.33229" lon="2.50193">
        <ele>642.6</ele>
        <time>2024-12-28T15:00:15.000Z</time>
      </trkpt>
      <trkpt lat="44.33228" lon="2.50194">
        <ele>642.6</ele>
        <time>2024-12-28T15:00:16.000Z</time>
      </trkpt>
      <trkpt lat="44.33227" lon="2.50195">
        <ele>642.6</ele>
        <time>2024-12-28T15:00:17.000Z</time>
      </trkpt>
      <trkpt lat="44.33224" lon="2.502">
        <ele>642.6</ele>
        <time>2024-12-28T15:00:21.000Z</time>
      </trkpt>
      <trkpt lat="44.33222" lon="2.50206">
        <ele>642.5</ele>
        <time>2024-12-28T15:00:26.000Z</time>
      </trkpt>
      <trkpt lat="44.33218" lon="2.50212">
        <ele>642.6</ele>
        <time>2024-12-28T15:00:31.000Z</time>
      </trkpt>
      <trkpt lat="44.33215" lon="2.50217">
        <ele>642.6</ele>
        <time>2024-12-28T15:00:35.000Z</time>
      </trkpt>
      <trkpt lat="44.33212" lon="2.50221">
        <ele>642.6</ele>
        <time>2024-12-28T15:00:39.000Z</time>
      </trkpt>
      <trkpt lat="44.33208" lon="2.50226">
        <ele>642.6</ele>
        <time>2024-12-28T15:00:43.000Z</time>
      </trkpt>
      <trkpt lat="44.33204" lon="2.50232">
        <ele>642.7</ele>
        <time>2024-12-28T15:00:47.000Z</time>
      </trkpt>
      <trkpt lat="44.33201" lon="2.50235">
        <ele>642.8</ele>
        <time>2024-12-28T15:00:51.000Z</time>
      </trkpt>
      <trkpt lat="44.33197" lon="2.50239">
        <ele>642.8</ele>
        <time>2024-12-28T15:00:55.000Z</time>
      </trkpt>
      <trkpt lat="44.33192" lon="2.50242">
        <ele>642.8</ele>
        <time>2024-12-28T15:00:59.000Z</time>
      </trkpt>
      <trkpt lat="44.33188" lon="2.50246">
        <ele>642.9</ele>
        <time>2024-12-28T15:01:03.000Z</time>
      </trkpt>
      <trkpt lat="44.33184" lon="2.50251">
        <ele>643</ele>
        <time>2024-12-28T15:01:07.000Z</time>
      </trkpt>
      <trkpt lat="44.33179" lon="2.50256">
        <ele>643.3</ele>
        <time>2024-12-28T15:01:11.000Z</time>
      </trkpt>
      <trkpt lat="44.33175" lon="2.5026">
        <ele>643.8</ele>
        <time>2024-12-28T15:01:15.000Z</time>
      </trkpt>
      <trkpt lat="44.33171" lon="2.50265">
        <ele>644.4</ele>
        <time>2024-12-28T15:01:19.000Z</time>
      </trkpt>
      <trkpt lat="44.33166" lon="2.50269">
        <ele>645</ele>
        <time>2024-12-28T15:01:23.000Z</time>
      </trkpt>
      <trkpt lat="44.33161" lon="2.5027">
        <ele>645.4</ele>
        <time>2024-12-28T15:01:27.000Z</time>
      </trkpt>
      <trkpt lat="44.33157" lon="2.50275">
        <ele>645.6</ele>
        <time>2024-12-28T15:01:31.000Z</time>
      </trkpt>
      <trkpt lat="44.33153" lon="2.50279">
        <ele>645.7</ele>
        <time>2024-12-28T15:01:35.000Z</time>
      </trkpt>
      <trkpt lat="44.33149" lon="2.50283">
        <ele>645.8</ele>
        <time>2024-12-28T15:01:39.000Z</time>
      </trkpt>
      <trkpt lat="44.33145" lon="2.5029">
        <ele>645.8</ele>
        <time>2024-12-28T15:01:43.000Z</time>
      </trkpt>
      <trkpt lat="44.33141" lon="2.50293">
        <ele>645.8</ele>
        <time>2024-12-28T15:01:47.000Z</time>
      </trkpt>
      <trkpt lat="44.33136" lon="2.50297">
        <ele>645.8</ele>
        <time>2024-12-28T15:01:51.000Z</time>
      </trkpt>
      <trkpt lat="44.33131" lon="2.50302">
        <ele>645.8</ele>
        <time>2024-12-28T15:01:55.000Z</time>
      </trkpt>
      <trkpt lat="44.33127" lon="2.50305">
        <ele>645.8</ele>
        <time>2024-12-28T15:01:59.000Z</time>
      </trkpt>
      <trkpt lat="44.33122" lon="2.50309">
        <ele>645.8</ele>
        <time>2024-12-28T15:02:03.000Z</time>
      </trkpt>
      <trkpt lat="44.33118" lon="2.50313">
        <ele>645.7</ele>
        <time>2024-12-28T15:02:07.000Z</time>
      </trkpt>
      <trkpt lat="44.33113" lon="2.50317">
        <ele>645.6</ele>
        <time>2024-12-28T15:02:11.000Z</time>
      </trkpt>
      <trkpt lat="44.33108" lon="2.50321">
        <ele>645.6</ele>
        <time>2024-12-28T15:02:15.000Z</time>
      </trkpt>
      <trkpt lat="44.33103" lon="2.50323">
        <ele>645.5</ele>
        <time>2024-12-28T15:02:19.000Z</time>
      </trkpt>
      <trkpt lat="44.33098" lon="2.50326">
        <ele>645.5</ele>
        <time>2024-12-28T15:02:23.000Z</time>
      </trkpt>
      <trkpt lat="44.33094" lon="2.50329">
        <ele>645.4</ele>
        <time>2024-12-28T15:02:27.000Z</time>
      </trkpt>
      <trkpt lat="44.3309" lon="2.50333">
        <ele>645.3</ele>
        <time>2024-12-28T15:02:31.000Z</time>
      </trkpt>
      <trkpt lat="44.33086" lon="2.50337">
        <ele>645</ele>
        <time>2024-12-28T15:02:35.000Z</time>
      </trkpt>
      <trkpt lat="44.33081" lon="2.5034">
        <ele>644.8</ele>
        <time>2024-12-28T15:02:39.000Z</time>
      </trkpt>
      <trkpt lat="44.33078" lon="2.50344">
        <ele>644.4</ele>
        <time>2024-12-28T15:02:43.000Z</time>
      </trkpt>
      <trkpt lat="44.33074" lon="2.50349">
        <ele>644</ele>
        <time>2024-12-28T15:02:47.000Z</time>
      </trkpt>
      <trkpt lat="44.3307" lon="2.50352">
        <ele>643.6</ele>
        <time>2024-12-28T15:02:51.000Z</time>
      </trkpt>
      <trkpt lat="44.33065" lon="2.50354">
        <ele>643.3</ele>
        <time>2024-12-28T15:02:55.000Z</time>
      </trkpt>
      <trkpt lat="44.33061" lon="2.50357">
        <ele>643.2</ele>
        <time>2024-12-28T15:02:59.000Z</time>
      </trkpt>
      <trkpt lat="44.33056" lon="2.50359">
        <ele>643.1</ele>
        <time>2024-12-28T15:03:03.000Z</time>
      </trkpt>
      <trkpt lat="44.33052" lon="2.50362">
        <ele>643.1</ele>
        <time>2024-12-28T15:03:07.000Z</time>
      </trkpt>
      <trkpt lat="44.33047" lon="2.50364">
        <ele>643.2</ele>
        <time>2024-12-28T15:03:11.000Z</time>
      </trkpt>
      <trkpt lat="44.33042" lon="2.50368">
        <ele>643.4</ele>
        <time>2024-12-28T15:03:15.000Z</time>
      </trkpt>
      <trkpt lat="44.33038" lon="2.50369">
        <ele>643.5</ele>
        <time>2024-12-28T15:03:19.000Z</time>
      </trkpt>
      <trkpt lat="44.33033" lon="2.50372">
        <ele>643.6</ele>
        <time>2024-12-28T15:03:23.000Z</time>
      </trkpt>
      <trkpt lat="44.33028" lon="2.50376">
        <ele>643.7</ele>
        <time>2024-12-28T15:03:27.000Z</time>
      </trkpt>
      <trkpt lat="44.33024" lon="2.50377">
        <ele>644</ele>
        <time>2024-12-28T15:03:31.000Z</time>
      </trkpt>
      <trkpt lat="44.33019" lon="2.5038">
        <ele>644.2</ele>
        <time>2024-12-28T15:03:35.000Z</time>
      </trkpt>
      <trkpt lat="44.33015" lon="2.50383">
        <ele>644.4</ele>
        <time>2024-12-28T15:03:39.000Z</time>
      </trkpt>
      <trkpt lat="44.3301" lon="2.50386">
        <ele>644.6</ele>
        <time>2024-12-28T15:03:43.000Z</time>
      </trkpt>
      <trkpt lat="44.33006" lon="2.50389">
        <ele>644.7</ele>
        <time>2024-12-28T15:03:47.000Z</time>
      </trkpt>
      <trkpt lat="44.33001" lon="2.50391">
        <ele>644.8</ele>
        <time>2024-12-28T15:03:51.000Z</time>
      </trkpt>
      <trkpt lat="44.32997" lon="2.50394">
        <ele>644.8</ele>
        <time>2024-12-28T15:03:55.000Z</time>
      </trkpt>
      <trkpt lat="44.32992" lon="2.50396">
        <ele>644.9</ele>
        <time>2024-12-28T15:03:59.000Z</time>
      </trkpt>
      <trkpt lat="44.32988" lon="2.50399">
        <ele>644.9</ele>
        <time>2024-12-28T15:04:03.000Z</time>
      </trkpt>
      <trkpt lat="44.32983" lon="2.50403">
        <ele>644.9</ele>
        <time>2024-12-28T15:04:07.000Z</time>
      </trkpt>
      <trkpt lat="44.32979" lon="2.50406">
        <ele>645</ele>
        <time>2024-12-28T15:04:11.000Z</time>
      </trkpt>
      <trkpt lat="44.32974" lon="2.50408">
        <ele>645.1</ele>
        <time>2024-12-28T15:04:16.000Z</time>
      </trkpt>
      <trkpt lat="44.32969" lon="2.50411">
        <ele>645.1</ele>
        <time>2024-12-28T15:04:20.000Z</time>
      </trkpt>
      <trkpt lat="44.32964" lon="2.50414">
        <ele>645.1</ele>
        <time>2024-12-28T15:04:24.000Z</time>
      </trkpt>
      <trkpt lat="44.32961" lon="2.50419">
        <ele>645</ele>
        <time>2024-12-28T15:04:28.000Z</time>
      </trkpt>
      <trkpt lat="44.32957" lon="2.50422">
        <ele>645.1</ele>
        <time>2024-12-28T15:04:32.000Z</time>
      </trkpt>
      <trkpt lat="44.32952" lon="2.50425">
        <ele>645.1</ele>
        <time>2024-12-28T15:04:36.000Z</time>
      </trkpt>
      <trkpt lat="44.32948" lon="2.50427">
        <ele>645.1</ele>
        <time>2024-12-28T15:04:40.000Z</time>
      </trkpt>
      <trkpt lat="44.32943" lon="2.5043">
        <ele>645.2</ele>
        <time>2024-12-28T15:04:44.000Z</time>
      </trkpt>
      <trkpt lat="44.32939" lon="2.50432">
        <ele>645.1</ele>
        <time>2024-12-28T15:04:48.000Z</time>
      </trkpt>
      <trkpt lat="44.32934" lon="2.50435">
        <ele>644.9</ele>
        <time>2024-12-28T15:04:52.000Z</time>
      </trkpt>
      <trkpt lat="44.32929" lon="2.50438">
        <ele>644.6</ele>
        <time>2024-12-28T15:04:56.000Z</time>
      </trkpt>
      <trkpt lat="44.32925" lon="2.50441">
        <ele>644.4</ele>
        <time>2024-12-28T15:05:00.000Z</time>
      </trkpt>
      <trkpt lat="44.3292" lon="2.50444">
        <ele>644.2</ele>
        <time>2024-12-28T15:05:05.000Z</time>
      </trkpt>
      <trkpt lat="44.32915" lon="2.50448">
        <ele>644.1</ele>
        <time>2024-12-28T15:05:10.000Z</time>
      </trkpt>
      <trkpt lat="44.32912" lon="2.50454">
        <ele>644.1</ele>
        <time>2024-12-28T15:05:15.000Z</time>
      </trkpt>
      <trkpt lat="44.32908" lon="2.50457">
        <ele>644.2</ele>
        <time>2024-12-28T15:05:19.000Z</time>
      </trkpt>
      <trkpt lat="44.32904" lon="2.5046">
        <ele>644.1</ele>
        <time>2024-12-28T15:05:23.000Z</time>
      </trkpt>
      <trkpt lat="44.32899" lon="2.50463">
        <ele>644.1</ele>
        <time>2024-12-28T15:05:27.000Z</time>
      </trkpt>
      <trkpt lat="44.32895" lon="2.50466">
        <ele>644.1</ele>
        <time>2024-12-28T15:05:31.000Z</time>
      </trkpt>
      <trkpt lat="44.32891" lon="2.50468">
        <ele>644.1</ele>
        <time>2024-12-28T15:05:35.000Z</time>
      </trkpt>
      <trkpt lat="44.32886" lon="2.50471">
        <ele>644.1</ele>
        <time>2024-12-28T15:05:39.000Z</time>
      </trkpt>
      <trkpt lat="44.32883" lon="2.50475">
        <ele>644.1</ele>
        <time>2024-12-28T15:05:43.000Z</time>
      </trkpt>
      <trkpt lat="44.32878" lon="2.50479">
        <ele>644.1</ele>
        <time>2024-12-28T15:05:47.000Z</time>
      </trkpt>
      <trkpt lat="44.32875" lon="2.50483">
        <ele>644.1</ele>
        <time>2024-12-28T15:05:51.000Z</time>
      </trkpt>
      <trkpt lat="44.32871" lon="2.50486">
        <ele>644.2</ele>
        <time>2024-12-28T15:05:55.000Z</time>
      </trkpt>
      <trkpt lat="44.32867" lon="2.50489">
        <ele>644.2</ele>
        <time>2024-12-28T15:05:59.000Z</time>
      </trkpt>
      <trkpt lat="44.32862" lon="2.50492">
        <ele>644.2</ele>
        <time>2024-12-28T15:06:03.000Z</time>
      </trkpt>
      <trkpt lat="44.32858" lon="2.50496">
        <ele>644.2</ele>
        <time>2024-12-28T15:06:07.000Z</time>
      </trkpt>
      <trkpt lat="44.32855" lon="2.505">
        <ele>644.2</ele>
        <time>2024-12-28T15:06:11.000Z</time>
      </trkpt>
      <trkpt lat="44.3285" lon="2.50503">
        <ele>644.3</ele>
        <time>2024-12-28T15:06:15.000Z</time>
      </trkpt>
      <trkpt lat="44.32846" lon="2.50507">
        <ele>644.3</ele>
        <time>2024-12-28T15:06:19.000Z</time>
      </trkpt>
      <trkpt lat="44.32842" lon="2.50511">
        <ele>644.3</ele>
        <time>2024-12-28T15:06:24.000Z</time>
      </trkpt>
      <trkpt lat="44.32842" lon="2.50512">
        <ele>644.3</ele>
        <time>2024-12-28T15:06:28.100Z</time>
      </trkpt>
      <trkpt lat="44.32843" lon="2.50513">
        <ele>644.3</ele>
        <time>2024-12-28T15:06:38.000Z</time>
      </trkpt>
      <trkpt lat="44.32843" lon="2.50513">
        <ele>644.3</ele>
        <time>2024-12-28T15:06:39.000Z</time>
      </trkpt>
      <trkpt lat="44.32843" lon="2.50513">
        <ele>644.3</ele>
        <time>2024-12-28T15:06:39.099Z</time>
      </trkpt>
      <trkpt lat="44.32843" lon="2.50513">
        <ele>644.4</ele>
        <time>2024-12-28T15:06:50.000Z</time>
      </trkpt>
      <trkpt lat="44.32843" lon="2.50514">
        <ele>644.4</ele>
        <time>2024-12-28T15:06:51.000Z</time>
      </trkpt>
      <trkpt lat="44.32842" lon="2.50515">
        <ele>644.4</ele>
        <time>2024-12-28T15:06:52.000Z</time>
      </trkpt>
      <trkpt lat="44.32838" lon="2.50519">
        <ele>644.4</ele>
        <time>2024-12-28T15:06:56.000Z</time>
      </trkpt>
      <trkpt lat="44.32834" lon="2.50523">
        <ele>644.4</ele>
        <time>2024-12-28T15:07:00.000Z</time>
      </trkpt>
      <trkpt lat="44.32831" lon="2.50526">
        <ele>644.4</ele>
        <time>2024-12-28T15:07:04.100Z</time>
      </trkpt>
      <trkpt lat="44.32831" lon="2.50526">
        <ele>644.6</ele>
        <time>2024-12-28T15:07:19.000Z</time>
      </trkpt>
      <trkpt lat="44.3283" lon="2.50527">
        <ele>644.6</ele>
        <time>2024-12-28T15:07:20.000Z</time>
      </trkpt>
      <trkpt lat="44.32826" lon="2.50531">
        <ele>644.6</ele>
        <time>2024-12-28T15:07:24.000Z</time>
      </trkpt>
      <trkpt lat="44.32822" lon="2.50535">
        <ele>644.6</ele>
        <time>2024-12-28T15:07:28.000Z</time>
      </trkpt>
      <trkpt lat="44.32817" lon="2.50539">
        <ele>644.6</ele>
        <time>2024-12-28T15:07:32.000Z</time>
      </trkpt>
      <trkpt lat="44.32813" lon="2.50542">
        <ele>644.6</ele>
        <time>2024-12-28T15:07:36.000Z</time>
      </trkpt>
      <trkpt lat="44.32809" lon="2.50546">
        <ele>644.7</ele>
        <time>2024-12-28T15:07:40.000Z</time>
      </trkpt>
      <trkpt lat="44.32804" lon="2.50549">
        <ele>644.7</ele>
        <time>2024-12-28T15:07:44.000Z</time>
      </trkpt>
      <trkpt lat="44.328" lon="2.50551">
        <ele>644.6</ele>
        <time>2024-12-28T15:07:48.000Z</time>
      </trkpt>
      <trkpt lat="44.32796" lon="2.50554">
        <ele>644.6</ele>
        <time>2024-12-28T15:07:52.000Z</time>
      </trkpt>
      <trkpt lat="44.32791" lon="2.50556">
        <ele>644.6</ele>
        <time>2024-12-28T15:07:56.000Z</time>
      </trkpt>
      <trkpt lat="44.32786" lon="2.50559">
        <ele>644.7</ele>
        <time>2024-12-28T15:08:00.000Z</time>
      </trkpt>
      <trkpt lat="44.32781" lon="2.50562">
        <ele>644.8</ele>
        <time>2024-12-28T15:08:04.000Z</time>
      </trkpt>
      <trkpt lat="44.32776" lon="2.50564">
        <ele>645</ele>
        <time>2024-12-28T15:08:08.000Z</time>
      </trkpt>
      <trkpt lat="44.32772" lon="2.50564">
        <ele>645.3</ele>
        <time>2024-12-28T15:08:12.000Z</time>
      </trkpt>
      <trkpt lat="44.32767" lon="2.50566">
        <ele>645.6</ele>
        <time>2024-12-28T15:08:16.000Z</time>
      </trkpt>
      <trkpt lat="44.32762" lon="2.50569">
        <ele>646</ele>
        <time>2024-12-28T15:08:21.000Z</time>
      </trkpt>
      <trkpt lat="44.32757" lon="2.5057">
        <ele>646.4</ele>
        <time>2024-12-28T15:08:25.000Z</time>
      </trkpt>
      <trkpt lat="44.32752" lon="2.50574">
        <ele>646.9</ele>
        <time>2024-12-28T15:08:30.000Z</time>
      </trkpt>
      <trkpt lat="44.32747" lon="2.50578">
        <ele>647.2</ele>
        <time>2024-12-28T15:08:36.000Z</time>
      </trkpt>
      <trkpt lat="44.32742" lon="2.5058">
        <ele>647.4</ele>
        <time>2024-12-28T15:08:40.000Z</time>
      </trkpt>
      <trkpt lat="44.32737" lon="2.50584">
        <ele>647.7</ele>
        <time>2024-12-28T15:08:44.000Z</time>
      </trkpt>
      <trkpt lat="44.32732" lon="2.50586">
        <ele>648.1</ele>
        <time>2024-12-28T15:08:48.000Z</time>
      </trkpt>
      <trkpt lat="44.32728" lon="2.50589">
        <ele>648.5</ele>
        <time>2024-12-28T15:08:52.000Z</time>
      </trkpt>
      <trkpt lat="44.32723" lon="2.50592">
        <ele>648.8</ele>
        <time>2024-12-28T15:08:56.000Z</time>
      </trkpt>
      <trkpt lat="44.32718" lon="2.50596">
        <ele>649.2</ele>
        <time>2024-12-28T15:09:00.000Z</time>
      </trkpt>
      <trkpt lat="44.32713" lon="2.50599">
        <ele>649.5</ele>
        <time>2024-12-28T15:09:04.000Z</time>
      </trkpt>
      <trkpt lat="44.32708" lon="2.50602">
        <ele>649.8</ele>
        <time>2024-12-28T15:09:08.000Z</time>
      </trkpt>
      <trkpt lat="44.32703" lon="2.50606">
        <ele>650</ele>
        <time>2024-12-28T15:09:12.000Z</time>
      </trkpt>
      <trkpt lat="44.32698" lon="2.50609">
        <ele>650.2</ele>
        <time>2024-12-28T15:09:16.000Z</time>
      </trkpt>
      <trkpt lat="44.32694" lon="2.50613">
        <ele>650.4</ele>
        <time>2024-12-28T15:09:20.000Z</time>
      </trkpt>
      <trkpt lat="44.3269" lon="2.50616">
        <ele>650.8</ele>
        <time>2024-12-28T15:09:24.000Z</time>
      </trkpt>
      <trkpt lat="44.32686" lon="2.5062">
        <ele>651.3</ele>
        <time>2024-12-28T15:09:33.000Z</time>
      </trkpt>
      <trkpt lat="44.32682" lon="2.50624">
        <ele>651.5</ele>
        <time>2024-12-28T15:09:37.000Z</time>
      </trkpt>
      <trkpt lat="44.32678" lon="2.50628">
        <ele>651.6</ele>
        <time>2024-12-28T15:09:41.000Z</time>
      </trkpt>
      <trkpt lat="44.32674" lon="2.50632">
        <ele>651.6</ele>
        <time>2024-12-28T15:09:45.000Z</time>
      </trkpt>
      <trkpt lat="44.3267" lon="2.50637">
        <ele>651.7</ele>
        <time>2024-12-28T15:09:49.000Z</time>
      </trkpt>
      <trkpt lat="44.32666" lon="2.50642">
        <ele>651.9</ele>
        <time>2024-12-28T15:09:53.000Z</time>
      </trkpt>
      <trkpt lat="44.32661" lon="2.50647">
        <ele>652.1</ele>
        <time>2024-12-28T15:09:57.000Z</time>
      </trkpt>
      <trkpt lat="44.32657" lon="2.50651">
        <ele>652.3</ele>
        <time>2024-12-28T15:10:01.000Z</time>
      </trkpt>
      <trkpt lat="44.32653" lon="2.50656">
        <ele>652.4</ele>
        <time>2024-12-28T15:10:05.000Z</time>
      </trkpt>
      <trkpt lat="44.3265" lon="2.5066">
        <ele>652.6</ele>
        <time>2024-12-28T15:10:09.000Z</time>
      </trkpt>
      <trkpt lat="44.32646" lon="2.50665">
        <ele>652.6</ele>
        <time>2024-12-28T15:10:13.000Z</time>
      </trkpt>
      <trkpt lat="44.32642" lon="2.5067">
        <ele>652.7</ele>
        <time>2024-12-28T15:10:17.000Z</time>
      </trkpt>
      <trkpt lat="44.32638" lon="2.50674">
        <ele>652.7</ele>
        <time>2024-12-28T15:10:21.000Z</time>
      </trkpt>
      <trkpt lat="44.32634" lon="2.50678">
        <ele>652.6</ele>
        <time>2024-12-28T15:10:25.000Z</time>
      </trkpt>
      <trkpt lat="44.3263" lon="2.50682">
        <ele>652.5</ele>
        <time>2024-12-28T15:10:29.000Z</time>
      </trkpt>
      <trkpt lat="44.32627" lon="2.50686">
        <ele>652.4</ele>
        <time>2024-12-28T15:10:33.000Z</time>
      </trkpt>
      <trkpt lat="44.32623" lon="2.50691">
        <ele>652.2</ele>
        <time>2024-12-28T15:10:37.000Z</time>
      </trkpt>
      <trkpt lat="44.32619" lon="2.50696">
        <ele>652.1</ele>
        <time>2024-12-28T15:10:42.000Z</time>
      </trkpt>
      <trkpt lat="44.32615" lon="2.507">
        <ele>651.9</ele>
        <time>2024-12-28T15:10:47.000Z</time>
      </trkpt>
      <trkpt lat="44.32614" lon="2.50701">
        <ele>651.8</ele>
        <time>2024-12-28T15:10:53.099Z</time>
      </trkpt>
      <trkpt lat="44.32614" lon="2.50701">
        <ele>651.5</ele>
        <time>2024-12-28T15:11:04.000Z</time>
      </trkpt>
      <trkpt lat="44.32614" lon="2.50701">
        <ele>651.5</ele>
        <time>2024-12-28T15:11:05.000Z</time>
      </trkpt>
      <trkpt lat="44.32614" lon="2.50701">
        <ele>651.5</ele>
        <time>2024-12-28T15:11:07.100Z</time>
      </trkpt>
      <trkpt lat="44.32613" lon="2.507">
        <ele>651.2</ele>
        <time>2024-12-28T15:11:21.000Z</time>
      </trkpt>
      <trkpt lat="44.32613" lon="2.507">
        <ele>651.2</ele>
        <time>2024-12-28T15:11:22.000Z</time>
      </trkpt>
      <trkpt lat="44.32613" lon="2.507">
        <ele>651.2</ele>
        <time>2024-12-28T15:11:23.000Z</time>
      </trkpt>
      <trkpt lat="44.32613" lon="2.507">
        <ele>651.1</ele>
        <time>2024-12-28T15:11:28.100Z</time>
      </trkpt>
      <trkpt lat="44.32613" lon="2.507">
        <ele>650.9</ele>
        <time>2024-12-28T15:11:35.000Z</time>
      </trkpt>
      <trkpt lat="44.32613" lon="2.507">
        <ele>650.9</ele>
        <time>2024-12-28T15:11:36.000Z</time>
      </trkpt>
      <trkpt lat="44.32613" lon="2.507">
        <ele>650.9</ele>
        <time>2024-12-28T15:11:37.000Z</time>
      </trkpt>
      <trkpt lat="44.32613" lon="2.507">
        <ele>650.9</ele>
        <time>2024-12-28T15:11:37.099Z</time>
      </trkpt>
      <trkpt lat="44.32613" lon="2.507">
        <ele>650.8</ele>
        <time>2024-12-28T15:11:48.000Z</time>
      </trkpt>
      <trkpt lat="44.32613" lon="2.507">
        <ele>650.8</ele>
        <time>2024-12-28T15:11:49.000Z</time>
      </trkpt>
      <trkpt lat="44.32609" lon="2.50705">
        <ele>651.2</ele>
        <time>2024-12-28T15:11:58.000Z</time>
      </trkpt>
      <trkpt lat="44.32605" lon="2.50708">
        <ele>652.8</ele>
        <time>2024-12-28T15:12:05.000Z</time>
      </trkpt>
      <trkpt lat="44.32604" lon="2.50708">
        <ele>653.6</ele>
        <time>2024-12-28T15:12:08.100Z</time>
      </trkpt>
      <trkpt lat="44.32604" lon="2.50708">
        <ele>653.6</ele>
        <time>2024-12-28T15:12:08.200Z</time>
      </trkpt>
      <trkpt lat="44.32604" lon="2.50708">
        <ele>655.4</ele>
        <time>2024-12-28T15:12:43.000Z</time>
      </trkpt>
      <trkpt lat="44.32603" lon="2.50708">
        <ele>655.4</ele>
        <time>2024-12-28T15:12:44.000Z</time>
      </trkpt>
      <trkpt lat="44.32602" lon="2.50708">
        <ele>655.4</ele>
        <time>2024-12-28T15:12:45.000Z</time>
      </trkpt>
      <trkpt lat="44.32598" lon="2.50711">
        <ele>655.4</ele>
        <time>2024-12-28T15:12:50.000Z</time>
      </trkpt>
      <trkpt lat="44.32594" lon="2.50712">
        <ele>655.4</ele>
        <time>2024-12-28T15:12:54.000Z</time>
      </trkpt>
      <trkpt lat="44.32589" lon="2.50713">
        <ele>655.4</ele>
        <time>2024-12-28T15:12:59.000Z</time>
      </trkpt>
      <trkpt lat="44.32583" lon="2.50716">
        <ele>655.4</ele>
        <time>2024-12-28T15:13:04.000Z</time>
      </trkpt>
      <trkpt lat="44.32579" lon="2.50718">
        <ele>655.5</ele>
        <time>2024-12-28T15:13:08.000Z</time>
      </trkpt>
      <trkpt lat="44.32575" lon="2.50719">
        <ele>655.6</ele>
        <time>2024-12-28T15:13:12.000Z</time>
      </trkpt>
      <trkpt lat="44.32569" lon="2.5072">
        <ele>655.8</ele>
        <time>2024-12-28T15:13:17.000Z</time>
      </trkpt>
      <trkpt lat="44.32564" lon="2.50721">
        <ele>656</ele>
        <time>2024-12-28T15:13:21.000Z</time>
      </trkpt>
      <trkpt lat="44.32558" lon="2.50721">
        <ele>656.3</ele>
        <time>2024-12-28T15:13:26.000Z</time>
      </trkpt>
      <trkpt lat="44.32554" lon="2.50722">
        <ele>656.6</ele>
        <time>2024-12-28T15:13:30.000Z</time>
      </trkpt>
      <trkpt lat="44.32549" lon="2.50723">
        <ele>656.9</ele>
        <time>2024-12-28T15:13:35.000Z</time>
      </trkpt>
      <trkpt lat="44.32544" lon="2.50723">
        <ele>657.4</ele>
        <time>2024-12-28T15:13:39.000Z</time>
      </trkpt>
      <trkpt lat="44.32538" lon="2.50723">
        <ele>658.3</ele>
        <time>2024-12-28T15:13:44.000Z</time>
      </trkpt>
      <trkpt lat="44.32533" lon="2.50725">
        <ele>659</ele>
        <time>2024-12-28T15:13:49.000Z</time>
      </trkpt>
      <trkpt lat="44.32527" lon="2.50726">
        <ele>659.3</ele>
        <time>2024-12-28T15:13:54.000Z</time>
      </trkpt>
      <trkpt lat="44.32522" lon="2.50729">
        <ele>659.5</ele>
        <time>2024-12-28T15:14:01.000Z</time>
      </trkpt>
      <trkpt lat="44.32517" lon="2.50731">
        <ele>659.6</ele>
        <time>2024-12-28T15:14:05.000Z</time>
      </trkpt>
      <trkpt lat="44.32513" lon="2.50734">
        <ele>659.8</ele>
        <time>2024-12-28T15:14:09.000Z</time>
      </trkpt>
      <trkpt lat="44.32509" lon="2.50738">
        <ele>660</ele>
        <time>2024-12-28T15:14:13.000Z</time>
      </trkpt>
      <trkpt lat="44.32505" lon="2.50743">
        <ele>660</ele>
        <time>2024-12-28T15:14:17.000Z</time>
      </trkpt>
      <trkpt lat="44.32501" lon="2.50747">
        <ele>660</ele>
        <time>2024-12-28T15:14:21.000Z</time>
      </trkpt>
      <trkpt lat="44.32498" lon="2.50753">
        <ele>660</ele>
        <time>2024-12-28T15:14:25.000Z</time>
      </trkpt>
      <trkpt lat="44.32495" lon="2.50758">
        <ele>659.9</ele>
        <time>2024-12-28T15:14:30.000Z</time>
      </trkpt>
      <trkpt lat="44.3249" lon="2.5076">
        <ele>659.7</ele>
        <time>2024-12-28T15:14:35.000Z</time>
      </trkpt>
      <trkpt lat="44.32486" lon="2.50763">
        <ele>659.5</ele>
        <time>2024-12-28T15:14:39.000Z</time>
      </trkpt>
      <trkpt lat="44.32481" lon="2.50767">
        <ele>659.1</ele>
        <time>2024-12-28T15:14:44.000Z</time>
      </trkpt>
      <trkpt lat="44.32476" lon="2.50772">
        <ele>658.7</ele>
        <time>2024-12-28T15:14:49.000Z</time>
      </trkpt>
      <trkpt lat="44.32471" lon="2.50775">
        <ele>658.4</ele>
        <time>2024-12-28T15:14:54.000Z</time>
      </trkpt>
      <trkpt lat="44.32466" lon="2.50778">
        <ele>658.2</ele>
        <time>2024-12-28T15:14:59.000Z</time>
      </trkpt>
      <trkpt lat="44.32462" lon="2.50781">
        <ele>658</ele>
        <time>2024-12-28T15:15:04.000Z</time>
      </trkpt>
      <trkpt lat="44.32457" lon="2.50785">
        <ele>657.7</ele>
        <time>2024-12-28T15:15:09.000Z</time>
      </trkpt>
      <trkpt lat="44.32452" lon="2.50788">
        <ele>657.3</ele>
        <time>2024-12-28T15:15:14.000Z</time>
      </trkpt>
      <trkpt lat="44.32447" lon="2.50791">
        <ele>657</ele>
        <time>2024-12-28T15:15:18.000Z</time>
      </trkpt>
      <trkpt lat="44.32443" lon="2.50793">
        <ele>656.7</ele>
        <time>2024-12-28T15:15:22.000Z</time>
      </trkpt>
      <trkpt lat="44.32438" lon="2.50796">
        <ele>656.7</ele>
        <time>2024-12-28T15:15:26.000Z</time>
      </trkpt>
      <trkpt lat="44.32433" lon="2.50798">
        <ele>656.6</ele>
        <time>2024-12-28T15:15:30.000Z</time>
      </trkpt>
      <trkpt lat="44.32428" lon="2.50802">
        <ele>656.5</ele>
        <time>2024-12-28T15:15:35.000Z</time>
      </trkpt>
      <trkpt lat="44.32423" lon="2.50805">
        <ele>656.4</ele>
        <time>2024-12-28T15:15:39.000Z</time>
      </trkpt>
      <trkpt lat="44.32419" lon="2.50807">
        <ele>656.3</ele>
        <time>2024-12-28T15:15:43.000Z</time>
      </trkpt>
      <trkpt lat="44.32414" lon="2.50808">
        <ele>656.4</ele>
        <time>2024-12-28T15:15:47.000Z</time>
      </trkpt>
      <trkpt lat="44.32409" lon="2.50809">
        <ele>656.6</ele>
        <time>2024-12-28T15:15:51.000Z</time>
      </trkpt>
      <trkpt lat="44.32405" lon="2.50811">
        <ele>656.8</ele>
        <time>2024-12-28T15:15:55.000Z</time>
      </trkpt>
      <trkpt lat="44.32401" lon="2.50814">
        <ele>656.8</ele>
        <time>2024-12-28T15:15:59.000Z</time>
      </trkpt>
      <trkpt lat="44.32396" lon="2.50816">
        <ele>656.8</ele>
        <time>2024-12-28T15:16:04.000Z</time>
      </trkpt>
      <trkpt lat="44.3239" lon="2.50818">
        <ele>656.7</ele>
        <time>2024-12-28T15:16:09.000Z</time>
      </trkpt>
      <trkpt lat="44.32386" lon="2.5082">
        <ele>656.6</ele>
        <time>2024-12-28T15:16:13.000Z</time>
      </trkpt>
      <trkpt lat="44.32381" lon="2.50821">
        <ele>656.6</ele>
        <time>2024-12-28T15:16:17.000Z</time>
      </trkpt>
      <trkpt lat="44.32377" lon="2.50826">
        <ele>656.6</ele>
        <time>2024-12-28T15:16:21.000Z</time>
      </trkpt>
      <trkpt lat="44.32373" lon="2.5083">
        <ele>656.5</ele>
        <time>2024-12-28T15:16:30.000Z</time>
      </trkpt>
      <trkpt lat="44.3237" lon="2.50835">
        <ele>656.3</ele>
        <time>2024-12-28T15:16:34.000Z</time>
      </trkpt>
      <trkpt lat="44.32367" lon="2.50842">
        <ele>656.1</ele>
        <time>2024-12-28T15:16:39.000Z</time>
      </trkpt>
      <trkpt lat="44.32365" lon="2.50848">
        <ele>655.9</ele>
        <time>2024-12-28T15:16:43.000Z</time>
      </trkpt>
      <trkpt lat="44.32364" lon="2.50855">
        <ele>655.7</ele>
        <time>2024-12-28T15:16:47.000Z</time>
      </trkpt>
      <trkpt lat="44.32362" lon="2.50862">
        <ele>655.5</ele>
        <time>2024-12-28T15:16:51.000Z</time>
      </trkpt>
      <trkpt lat="44.32361" lon="2.50868">
        <ele>655.2</ele>
        <time>2024-12-28T15:16:55.000Z</time>
      </trkpt>
      <trkpt lat="44.32361" lon="2.50875">
        <ele>654.8</ele>
        <time>2024-12-28T15:16:59.000Z</time>
      </trkpt>
      <trkpt lat="44.3236" lon="2.50883">
        <ele>653.9</ele>
        <time>2024-12-28T15:17:06.000Z</time>
      </trkpt>
      <trkpt lat="44.3236" lon="2.50891">
        <ele>653.4</ele>
        <time>2024-12-28T15:17:10.000Z</time>
      </trkpt>
      <trkpt lat="44.32359" lon="2.50898">
        <ele>652.8</ele>
        <time>2024-12-28T15:17:14.000Z</time>
      </trkpt>
      <trkpt lat="44.32359" lon="2.50904">
        <ele>652.1</ele>
        <time>2024-12-28T15:17:18.000Z</time>
      </trkpt>
      <trkpt lat="44.32359" lon="2.50911">
        <ele>651.6</ele>
        <time>2024-12-28T15:17:22.000Z</time>
      </trkpt>
      <trkpt lat="44.3236" lon="2.50918">
        <ele>651.2</ele>
        <time>2024-12-28T15:17:26.000Z</time>
      </trkpt>
      <trkpt lat="44.3236" lon="2.50925">
        <ele>650.9</ele>
        <time>2024-12-28T15:17:30.000Z</time>
      </trkpt>
      <trkpt lat="44.32359" lon="2.50933">
        <ele>650.5</ele>
        <time>2024-12-28T15:17:35.000Z</time>
      </trkpt>
      <trkpt lat="44.32358" lon="2.5094">
        <ele>650.1</ele>
        <time>2024-12-28T15:17:40.000Z</time>
      </trkpt>
      <trkpt lat="44.32358" lon="2.50947">
        <ele>649.8</ele>
        <time>2024-12-28T15:17:44.000Z</time>
      </trkpt>
      <trkpt lat="44.32357" lon="2.50953">
        <ele>649.6</ele>
        <time>2024-12-28T15:17:48.000Z</time>
      </trkpt>
      <trkpt lat="44.32357" lon="2.5096">
        <ele>649.3</ele>
        <time>2024-12-28T15:17:52.000Z</time>
      </trkpt>
      <trkpt lat="44.32356" lon="2.50966">
        <ele>648.9</ele>
        <time>2024-12-28T15:17:56.000Z</time>
      </trkpt>
      <trkpt lat="44.32355" lon="2.50974">
        <ele>648.6</ele>
        <time>2024-12-28T15:18:01.000Z</time>
      </trkpt>
      <trkpt lat="44.32357" lon="2.5098">
        <ele>648.2</ele>
        <time>2024-12-28T15:18:07.000Z</time>
      </trkpt>
      <trkpt lat="44.3236" lon="2.50986">
        <ele>647.8</ele>
        <time>2024-12-28T15:18:11.000Z</time>
      </trkpt>
      <trkpt lat="44.32363" lon="2.5099">
        <ele>647.3</ele>
        <time>2024-12-28T15:18:15.000Z</time>
      </trkpt>
      <trkpt lat="44.32367" lon="2.50995">
        <ele>647</ele>
        <time>2024-12-28T15:18:19.000Z</time>
      </trkpt>
      <trkpt lat="44.3237" lon="2.50998">
        <ele>646.8</ele>
        <time>2024-12-28T15:18:25.000Z</time>
      </trkpt>
      <trkpt lat="44.32371" lon="2.51">
        <ele>646.7</ele>
        <time>2024-12-28T15:18:30.100Z</time>
      </trkpt>
      <trkpt lat="44.32371" lon="2.51">
        <ele>646.7</ele>
        <time>2024-12-28T15:18:30.100Z</time>
      </trkpt>
    </trkseg>
  </trk>
</gpx>